     2.11           OBSERVATION DATA    G (GPS)             RINEX VERSION / TYPE
teqc 2010Oct21 OPUS Account 20111028 14:49:06UTC            PGM / RUN BY / DATE
C 1385                                                      MARKER NAME
2078                                                        MARKER NUMBER
CSMIDDLETON NGS                                             OBSERVER / AGENCY
0220316069 TRIMBLE 5700 1.30                                REC # / TYPE / VERS
60183425 TRM41249.00 NONE                                   ANT # / TYPE
  -743018.4832 -5578810.6678  2990842.3485                  APPROX POSITION XYZ
        2.0010        0.0000        0.0000                  ANTENNA: DELTA H/E/N
     1     1                                                WAVELENGTH FACT L1/2
     5    L1    L2    C1    P1    P2                        # / TYPES OF OBSERV
    15                                                      LEAP SECONDS
  2011     8    22    15    30    0.0000000     GPS         TIME OF FIRST OBS
                                                            END OF HEADER
 11  8 22 15 30  0.0000000  0  8G03G06G07G10G13G16G19G23
   -101163.59857    -66924.02156  20802857.5164                   20802855.9654
    -66990.41857    -45712.43255  22225094.3284                   22225093.6334
   -160304.72757   -109171.09955  22861829.4774                   22861827.5514
    -95252.34056    -68724.62353  23920077.2034                   23920077.3134
   -149467.05958    -93732.04056  20310547.5234                   20310544.8754
    -11642.84857    -11803.35155  22209425.5634                   22209423.7114
   -176695.52357   -114500.42356  21649068.3204                   21649065.4804
    -88676.34058    -59513.52457  20000504.3054                   20000500.3554
 11  8 22 15 30 30.0000000  0 10G03G06G07G08G10G13G16G19G20G23
   -191674.45348   -137451.98246  20785633.8284                   20785632.6454
   -127001.68047    -92474.48345  22213674.6024                   22213673.7974
   -312586.73847   -227832.40045  22832850.9224                   22832849.3984
   -323003.49656   -212261.36953  24856208.9454                   24856210.1604
   -206047.29746   -155058.39343  23898993.4144                   23898993.8014
   -284210.61348   -198727.01946  20284906.6254                   20284904.1884
    -22480.74647    -20248.51945  22207363.2274                   22207361.1134
   -335070.70747   -237909.62946  21618930.3364                   21618927.6134
    -16790.04757    -15249.89154  23945106.0164                   23945106.1134
   -168556.87948   -121758.13947  19985303.4144                   19985299.8014
 11  8 22 15 31  0.0000000  0 10G03G06G07G08G10G13G16G19G20G23
   -282046.75848   -207872.00846  20768436.8834                   20768435.5944
   -186974.30947   -139206.44945  22202262.2344                   22202261.8204
   -465354.19947   -346871.96945  22803780.0474                   22803779.0204
   -481961.08246   -336124.33043  24825960.5634                   24825961.7974
   -316831.28146   -241383.59043  23877911.5164                   23877912.0824
   -418969.74248   -303734.15146  20259262.4694                   20259260.2814
    -33664.70347    -28963.33645  22205234.8914                   22205232.9024
   -493505.39547   -361365.20746  21588781.6484                   21588778.2734
    -25853.21146    -22312.20344  23943381.5084                   23943381.2074
   -248363.93048   -183945.50247  19970116.7894                   19970112.6884
 11  8 22 15 31 30.0000000  0 10G03G06G07G08G10G13G16G19G20G23
   -372180.86348   -278106.41146  20751284.6094                   20751283.6884
   -246809.48847   -185831.29545  22190875.7894                   22190875.5514
   -618507.27047   -466212.01145  22774635.9144                   22774634.6414
   -641362.53946   -460333.21043  24795627.5164                   24795628.4774
   -427504.72746   -327622.70343  23856851.7344                   23856851.3404
   -553642.24648   -408673.77446  20233635.3054                   20233633.1954
    -45096.98847    -37871.63645  22203059.5474                   22203057.3134
   -651896.83647   -484787.10346  21558640.5554                   21558637.3674
    -35351.96546    -29713.93644  23941573.9534                   23941573.5904
   -327997.00448   -245997.27147  19954963.0864                   19954959.2464
 11  8 22 15 32  0.0000000  0 10G03G06G07G08G10G13G16G19G20G23
   -462062.65648   -348144.20946  20734180.8364                   20734179.6414
   -306494.60247   -232339.18845  22179518.1024                   22179517.6724
   -772032.04747   -585841.70145  22745420.9534                   22745419.6094
   -801194.84446   -584877.79344  24765212.3674                   24765213.3404
   -538054.39546   -413765.35243  23835814.3984                   23835814.9734
   -688212.69948   -513533.88146  20208027.6094                   20208025.3204
    -56766.52347    -46964.84245  22200838.8054                   22200837.0784
   -810229.03147   -608162.81546  21528510.6414                   21528508.2074
    -45275.25847    -37446.48944  23939686.1484                   23939685.1414
   -407442.42248   -307902.81847  19939845.3594                   19939841.1644
 11  8 22 15 32 30.0000000  0 10G03G06G07G08G10G13G16G19G20G23
   -551666.95748   -417965.76846  20717129.8594                   20717128.9654
   -366005.54747   -278711.38845  22168194.1254                   22168192.9534
   -925903.49647   -705741.51445  22716140.8204                   22716138.5904
   -961433.06246   -709738.65043  24734719.5944                   24734721.0394
   -648455.16446   -499791.91943  23814806.2894                   23814806.6254
   -822653.48848   -618292.96446  20182444.2114                   20182441.9264
    -68650.09447    -56224.79445  22198577.5394                   22198575.9224
   -968473.43447   -731470.12246  21498398.0474                   21498395.4694
    -55600.58647    -45492.28144  23937720.9064                   23937720.7934
   -486674.56648   -369642.17747  19924767.6024                   19924763.9144
 11  8 22 15 33  0.0000000  0 10G03G06G07G08G10G13G16G19G20G23
   -640970.03548   -487552.63346  20700136.1024                   20700135.0664
   -425319.46547   -324930.04945  22156906.4844                   22156905.7894
  -1080097.43047   -825892.62045  22686798.0164                   22686796.6214
  -1122054.18446   -834897.89843  24704154.6954                   24704155.4924
   -758683.33246   -585684.05943  23793830.2734                   23793831.2504
   -956938.71948   -722930.82946  20156890.3834                   20156888.2814
    -80726.94947    -65635.37645  22196279.5164                   22196278.1174
  -1126603.49647   -854688.33446  21468306.6024                   21468303.9184
    -66306.66847    -53834.76544  23935683.5634                   23935683.4734
   -565669.34848   -431196.58847  19909735.5554                   19909731.5234
 11  8 22 15 33 30.0000000  0 10G03G06G07G08G10G13G16G19G20G23
   -729957.33648   -556893.41146  20683202.0394                   20683201.0864
   -484422.59447   -370984.49045  22145659.6644                   22145659.2814
  -1234599.01247   -946283.44645  22657397.5864                   22657396.0704
  -1283043.24246   -960343.85543  24673519.7814                   24673521.2304
   -868724.67646   -671430.57843  23772889.9064                   23772890.5744
  -1091051.37548   -827434.22246  20131369.8134                   20131367.8404
    -92984.25047    -75186.57445  22193947.1024                   22193945.2704
  -1284601.87148   -977803.93046  21438240.6414                   21438237.8754
    -77381.46547    -62464.56244  23933576.1174                   23933576.2074
   -644411.66048   -492554.26947  19894751.4454                   19894747.5704
 11  8 22 15 34  0.0000000  0 10G03G06G07G08G10G13G16G19G20G23
   -818613.84448   -625976.43546  20666331.3204                   20666330.8594
   -543301.19947   -416863.95045  22134455.7894                   22134454.9384
  -1389393.23847  -1066902.32045  22627940.8204                   22627939.5944
  -1444385.97746  -1086065.41443  24642817.3444                   24642817.9654
   -978564.76646   -757020.23243  23751987.9924                   23751989.6054
  -1224974.77348   -931790.14946  20105885.0554                   20105883.0904
   -105409.34447    -84868.49945  22191583.0474                   22191580.5744
  -1442450.81647  -1100803.09146  21408202.9224                   21408200.2734
    -88812.63346    -71372.08244  23931400.9454                   23931400.8954
   -722886.61348   -553703.61747  19879818.0474                   19879814.5474
 11  8 22 15 34 30.0000000  0 10G03G06G07G08G10G13G16G19G20G23
    668495.12548    532809.76946  20949318.7664                   20949317.9924
    973477.02747    765041.10945  22423088.7584                   22423088.4344
     30956.90647     39864.06145  22898224.6564                   22898223.5664
    -30645.95346     15550.22143  24911842.0634                   24911844.0594
    487231.32846    385158.47843  24030920.3444                   24030920.7704
    216729.27748    191615.58846  20380232.1484                   20380230.3984
   1457427.39147   1132926.30545  22488980.6884                   22488978.0984
    -24710.68047      3929.49946  21677989.7034                   21677987.0904
   1474829.09446   1147050.00744  24228951.6024                   24228951.7274
    774340.60248    612966.90547  20164731.0474                   20164727.5784
 11  8 22 15 35  0.0000000  0 10G03G06G07G08G10G13G16G19G20G23
    580531.81648    464266.93846  20932579.8204                   20932578.8634
    915075.67648    719533.54745  22411975.8444                   22411974.7544
   -124390.29347    -81185.71045  22868663.0944                   22868661.1134
   -192665.70746   -110698.91443  24881011.0234                   24881011.8364
    377824.47746    299906.33044  24010100.9844                   24010101.1254
     83222.47348     87584.28846  20354826.7424                   20354824.3794
   1444691.19147   1123001.94245  22486556.8204                   22486555.1454
   -182220.80947   -118805.66046  21648016.7274                   21648013.8674
   1462708.80546   1137605.52443  24226645.5634                   24226645.1724
    696433.07448    552259.71447  20149905.9144                   20149902.2734
 11  8 22 15 35 30.0000000  0 10G03G06G07G08G10G13G16G19G20G23
    492925.37548    396002.16546  20915908.8284                   20915908.2624
    856921.57847    674218.63245  22400909.9224                   22400908.3324
   -280003.16047   -202442.48545  22839051.1724                   22839049.5354
   -355014.08246   -237204.01043  24850116.8364                   24850118.7814
    268643.98046    214830.60943  23989325.1884                   23989324.7464
    -50062.52748    -16274.16646  20329463.5474                   20329461.2114
   1431806.35547   1112961.76445  22484105.2584                   22484103.0474
   -339546.89548   -241397.41046  21618078.4534                   21618075.6914
   1450250.78546   1127897.84843  24224275.1254                   24224274.0274
    618819.94948    491781.93147  20135136.4224                   20135132.8444
 11  8 22 15 36  0.0000000  0 10G03G06G07G08G10G13G16G19G20G23
    405682.77048    328020.90446  20899307.1254                   20899306.4614
    799020.85248    629101.15045  22389891.6174                   22389890.0594
   -435874.77747   -323900.90145  22809389.4694                   22809387.7464
   -517684.35946   -363960.03543  24819162.6094                   24819163.4614
    159696.32046    129936.25343  23968592.3984                   23968592.4694
   -183116.50848   -119952.60446  20304144.4144                   20304142.2814
   1418777.61347   1102809.46045  22481625.8524                   22481623.8954
   -496679.16448   -363838.13446  21588177.1804                   21588174.4064
   1437459.18446   1117930.33743  24221841.0004                   24221840.5084
    541507.98448    431538.80547  20120424.7114                   20120420.6644
 11  8 22 15 36 30.0000000  0 10G03G06G07G08G10G13G16G19G20G23
    318810.62148    260328.32646  20882775.6954                   20882774.9414
    741378.96547    584185.33645  22378922.8984                   22378921.2504
   -591997.79747   -445555.17945  22779679.9924                   22779678.5354
   -680670.02746   -490961.80943  24788147.2424                   24788147.9184
     50988.11746     45228.50843  23947906.5864                   23947906.0164
   -315930.77348   -223444.24946  20278870.4844                   20278868.2114
   1405609.81347   1092548.78945  22479120.4774                   22479118.3954
   -653608.18748   -486120.49046  21558314.6804                   21558311.9024
   1424338.40246   1107706.25843  24219344.0864                   24219343.6214
    464504.45748    371536.02247  20105771.2504                   20105767.1684
 11  8 22 15 37  0.0000000  0 10G03G06G07G08G10G13G16G19G20G23
    232313.42648    192927.90046  20866316.1884                   20866315.3094
    683999.60947    539474.11045  22368003.9454                   22368002.4224
   -748367.45347   -567401.65045  22749924.0004                   22749922.7774
   -843966.57846   -618205.72343  24757072.1564                   24757074.0944
    -57476.62547    -39289.50644  23927265.8754                   23927265.5004
   -448498.45748   -326743.74646  20253643.8754                   20253641.5474
   1392305.26647   1082181.56745  22476588.6414                   22476586.8364
   -810326.43748   -608238.61446  21528492.0634                   21528489.4224
   1410890.64546   1097227.37043  24216785.1254                   24216785.8444
    387814.14548    311777.31347  20091177.6564                   20091173.7034
 11  8 22 15 37 30.0000000  0 10G03G06G07G08G10G13G16G19G20G23
    146197.61748    125824.65946  20849929.0234                   20849927.7854
    626887.99647    494971.50145  22357136.3914                   22357134.8754
   -904976.75047   -689434.85545  22720122.1804                   22720121.1844
  -1007567.85945   -745687.20742  24725939.7344                   24725941.2344
   -165691.62146   -123612.90844  23906673.3674                   23906673.9694
   -580811.10948   -429844.51946  20228465.3594                   20228462.9494
   1378868.11747   1071711.01545  22474031.7424                   22474030.1174
   -966824.77748   -730185.36346  21498711.5554                   21498708.7504
   1397119.82446   1086496.74843  24214165.2504                   24214165.3404
    311443.72348    252267.86347  20076644.7664                   20076641.1484
 11  8 22 15 38  0.0000000  0 10G03G06G07G08G10G13G16G19G20G23
     60468.09848     59022.42046  20833614.8134                   20833614.3364
    570047.94147    450680.54445  22346319.6174                   22346318.5084
  -1061820.62547   -811650.84545  22690275.5634                   22690274.6334
  -1171469.29745   -873402.55142  24694749.4774                   24694751.7504
   -273652.37146   -207738.19844  23886129.0864                   23886129.3014
   -712861.64148   -532741.05146  20203337.0084                   20203334.5234
   1365301.16847   1061139.35545  22471450.4144                   22471448.6254
  -1123095.59848   -851954.84746  21468974.0314                   21468970.9924
   1383028.40246   1075516.34643  24211483.4064                   24211483.3754
    235397.87548    193011.33347  20062173.7424                   20062170.1334
 11  8 22 15 38 30.0000000  0 10G03G06G07G08G10G13G16G19G20G23
    -24864.52048     -7470.53246  20817377.0634                   20817376.0744
    513489.25047    406608.84545  22335556.4454                   22335555.6844
  -1218887.72747   -934040.77345  22660387.3284                   22660385.5944
  -1335660.09045  -1001343.38742  24663505.8284                   24663506.9144
   -381348.20346   -291657.07744  23865635.1804                   23865635.6684
   -844636.83648   -635423.02846  20178260.9694                   20178258.8674
   1351613.46947   1050473.57445  22468845.2424                   22468843.9734
  -1279125.08648   -973536.27046  21439282.9384                   21439279.6804
   1368624.92246   1064292.73844  24208742.7814                   24208743.1294
    159688.23048    134016.77646  20047766.6884                   20047762.9654
 11  8 22 15 39  0.0000000  0 10G03G06G07G08G10G13G16G19G20G23
   -109792.81648    -73648.43446  20801215.4384                   20801214.9264
    457218.77047    362761.69645  22324848.1884                   22324847.4694
  -1376169.60947  -1056598.07245  22630457.4454                   22630456.2344
  -1500132.21146  -1129503.46142  24632208.2894                   24632207.8324
   -488771.80146   -375363.83743  23845193.0234                   23845193.7464
   -976126.72348   -737882.69846  20153239.3984                   20153237.2424
   1337810.99247   1039718.34945  22466219.1724                   22466217.5274
  -1434902.24248  -1094921.07946  21409639.3984                   21409636.5004
   1353915.06646   1052830.38144  24205943.6954                   24205944.2384
     84322.91448     75290.52147  20033425.1954                   20033421.7154
 11  8 22 15 39 30.0000000  0 10G03G06G07G08G10G13G16G19G20G23
   -194305.86748   -139502.78046  20785133.2424                   20785132.4144
    401246.14147    319146.64845  22314196.8754                   22314196.3984
  -1533655.40247  -1179314.27145  22600488.8364                   22600487.4344
  -1664875.15946  -1257874.58843  24600858.3134                   24600857.7344
   -595912.94146   -458850.46243  23824804.3364                   23824804.7934
  -1107318.57848   -840110.13046  20128274.3984                   20128272.4384
   1323902.09447   1028880.23545  22463572.1094                   22463570.3244
  -1590413.79348  -1216098.92546  21380046.3834                   21380043.3634
   1338907.18846   1041135.83644  24203087.8674                   24203087.8524
      9312.51248     16840.83946  20019151.0784                   20019147.5904
 11  8 22 15 40  0.0000000  0 10G03G06G07G08G10G13G16G19G20G23
   -278397.57448   -205028.81146  20769131.0864                   20769130.3674
    345576.05547    275767.33445  22303603.1954                   22303602.7624
  -1691338.45347  -1302184.17845  22570483.0314                   22570481.5394
  -1829883.28946  -1386452.31643  24569458.4304                   24569458.2584
   -702765.82046   -542112.44843  23804470.2734                   23804471.4924
  -1238204.06248   -942098.84346  20103367.7504                   20103365.8054
   1309890.93047   1017962.40145  22460905.7894                   22460903.8834
  -1745650.87948  -1337062.89346  21350506.3134                   21350502.6414
   1323604.96146   1029211.91544  24200176.1024                   24200175.8324
    -65337.15248    -41327.76946  20004945.8984                   20004942.0554
 11  8 22 15 40 30.0000000  0 10G03G06G07G08G10G13G16G19G20G23
   -362060.35548   -270220.60146  20753210.6414                   20753209.8954
    290215.64147    232629.33945  22293068.3914                   22293068.3164
  -1849210.05547  -1425201.00745  22540440.6334                   22540439.8404
  -1995148.78146  -1515230.57543  24538009.3594                   24538008.7894
   -809322.74646   -625143.83443  23784194.0864                   23784194.8324
  -1368773.26248  -1043841.08647  20078521.0394                   20078519.1994
   1295783.42647   1006969.49145  22458221.3914                   22458219.1134
  -1900602.48848  -1457804.41146  21321019.7034                   21321016.8244
   1308014.27747   1017063.25144  24197209.2584                   24197209.8594
   -139617.52348    -99208.60146  19990810.9304                   19990807.3324
 11  8 22 15 41  0.0000000  0 10G03G06G07G08G10G13G16G19G20G23
   -445283.20748   -335069.59046  20737373.8834                   20737373.1914
    235175.02047    189740.52645  22282594.3284                   22282594.5354
  -2007258.64547  -1548355.74745  22510365.5784                   22510364.2424
  -2160660.31646  -1644200.52043  24506514.0084                   24506513.6174
   -915572.99246   -707936.29243  23763975.1254                   23763975.8984
  -1499012.78948  -1145326.43647  20053737.6254                   20053735.5984
   1281589.11347    995908.93445  22455520.4534                   22455517.6254
  -2055254.99648  -1578312.86746  21291590.3204                   21291587.1024
   1292143.92247   1004696.62144  24194189.4534                   24194189.8914
   -213517.30148   -156792.88146  19976748.1484                   19976744.6844
 11  8 22 15 41 30.0000000  0 10G03G06G07G08G10G13G16G19G20G23
   -528056.65648   -399568.39946  20721623.0004                   20721621.8714
    180462.44947    147107.31645  22272183.3054                   22272183.5354
  -2165474.17247  -1671640.57045  22480257.9384                   22480256.8594
  -2326408.26246  -1773354.72743  24474972.9694                   24474972.8014
  -1021507.37546   -790482.55943  23743816.7344                   23743817.0204
  -1628911.04748  -1246545.85747  20029018.5784                   20029016.6134
   1267315.40647    984786.53745  22452804.2114                   22452802.2774
  -2209596.12548  -1698578.70046  21262220.0394                   21262217.2034
   1276001.18447    992117.77944  24191117.2734                   24191117.9734
   -287026.96948   -214073.16646  19962760.1024                   19962756.5744
 11  8 22 15 42  0.0000000  0 10G03G06G07G08G10G13G16G19G20G23
    965047.12948    763889.06446  21005751.2344                   21005750.0944
   1701503.86747   1332334.36945  22561628.1024                   22561627.7544
   -748425.19947   -567446.56745  22749913.3524                   22749912.5044
   -916961.81246   -675084.67843  24743180.8914                   24743182.0354
    448302.34446    354823.66043  24023512.4614                   24023512.7894
   -183035.97348   -119889.96447  20304159.8984                   20304157.5124
   2828386.20747   2201205.31645  22749866.0234                   22749864.5784
   -788192.16448   -590991.19246  21532704.4304                   21532701.2154
   2835009.90646   2206929.62144  24487787.6804                   24487787.8444
   1215281.70748    956556.93946  20248639.6334                   20248635.8874
 11  8 22 15 42 30.0000000  0 10G03G06G07G08G10G13G16G19G20G23
    883188.40248    700103.02546  20990173.9614                   20990172.5784
   1647460.81647   1290222.87045  22551344.3674                   22551344.2934
   -906955.75047   -690976.85245  22719746.0864                   22719744.6294
  -1083165.88346   -804594.24043  24711553.6804                   24711554.3594
    343014.88746    272781.47544  24003476.7504                   24003477.3594
   -312228.15248   -220559.18947  20279575.3444                   20279572.9494
   2813964.91447   2189967.90345  22747121.4844                   22747120.3554
   -941884.72348   -710751.62946  21503457.1954                   21503454.2074
   2818332.71947   2193934.30344  24484613.7034                   24484614.3484
   1142569.73448    899898.23346  20234802.7424                   20234799.2774
 11  8 22 15 43  0.0000000  0 10G03G06G07G08G10G13G16G19G20G23
    801797.46148    636681.48346  20974685.8524                   20974684.3754
   1593761.69547   1248379.36545  22541125.8284                   22541125.2894
  -1065632.05947   -814620.72445  22689551.1564                   22689550.2894
  -1249587.35546   -934273.24843  24679884.4304                   24679885.0744
    238060.95346    190999.15543  23983504.9844                   23983505.6254
   -441053.15248   -320942.29647  20255060.7344                   20255058.5044
   2799477.87947   2178679.27945  22744364.5634                   22744364.3364
  -1095238.00848   -830247.68546  21474275.3594                   21474272.1764
   2801396.01247   2180736.75344  24481390.8594                   24481391.0434
   1070267.63748    843558.92146  20221044.2814                   20221040.8404
 11  8 22 15 43 30.0000000  0 10G03G06G07G08G10G13G16G19G20G23
    720876.82448    573626.41546  20959287.4064                   20959285.5234
   1540408.04747   1206805.05145  22530973.1644                   22530972.4964
  -1224450.61347   -938375.44945  22659328.6334                   22659327.6174
  -1416223.21946  -1064119.32743  24648175.1884                   24648175.7854
    133443.08246    109478.71143  23963596.7814                   23963597.5084
   -569506.49648   -421035.81046  20230616.8054                   20230614.5354
   2784925.84447   2167339.98045  22741595.6174                   22741594.8014
  -1248246.30548   -949474.92046  21445158.9924                   21445155.4694
   2784200.18847   2167337.33944  24478119.1254                   24478118.9184
    998378.10248    787541.07246  20207364.3364                   20207360.6564
 11  8 22 15 44  0.0000000  0 10G03G06G07G08G10G13G16G19G20G23
    640428.18848    510939.15146  20943978.3054                   20943976.6994
   1487400.56347   1165500.49145  22520886.2814                   22520885.4654
  -1383409.37947  -1062239.42345  22629080.2114                   22629078.8594
  -1583071.40646  -1194130.81444  24616425.1094                   24616425.4844
     29162.28946     28220.89444  23943753.7504                   23943753.2384
   -697583.94948   -520836.42546  20206244.1884                   20206242.0984
   2770309.00047   2155950.19945  22738814.3364                   22738812.7814
  -1400905.50848  -1068430.12946  21416108.9614                   21416105.4104
   2766745.17247   2153735.88344  24474797.7584                   24474797.4224
    926902.59447    731845.83946  20193762.8914                   20193759.1914
 11  8 22 15 44 30.0000000  0 10G03G06G07G08G10G13G16G19G20G23
    560451.69548    448619.79446  20928759.3054                   20928757.8524
   1434738.36747   1124464.96245  22510864.8204                   22510864.2734
  -1542507.29747  -1186211.82545  22598804.7034                   22598802.9884
  -1750131.91446  -1324307.77243  24584634.2974                   24584635.0514
    -74781.39546    -52774.22244  23923973.3204                   23923973.5704
   -825283.34048   -620342.43346  20181943.8674                   20181941.7344
   2755625.70747   2144508.63845  22736020.4064                   22736018.5864
  -1553212.20748  -1187110.66546  21387125.5394                   21387122.5164
   2749028.98046   2139930.98044  24471426.0164                   24471426.4694
    855841.98048    676473.91746  20180240.8054                   20180237.0704
 11  8 22 15 45  0.0000000  0 10G03G06G07G08G10G13G16G19G20G23
    480948.00448    386668.85446  20913630.1884                   20913628.9304
   1382421.43847   1083698.50445  22500909.5864                   22500908.1884
  -1701742.09847  -1310290.89545  22568503.1884                   22568501.6524
  -1917403.15646  -1454648.94244  24552803.2504                   24552803.9494
   -178387.17646   -133505.99443  23904257.9694                   23904258.2384
   -952601.21948   -719551.18446  20157716.1254                   20157713.8914
   2740875.65647   2133015.03045  22733213.6884                   22733211.5004
  -1705162.54348  -1305513.50246  21358210.5474                   21358207.4344
   2731050.75846   2125921.78843  24468005.1334                   24468005.7304
    785197.53148    621426.27846  20166797.4454                   20166793.8524
 11  8 22 15 45 30.0000000  0 10G03G06G07G08G10G13G16G19G20G23
    401916.18848    325085.62746  20898591.0554                   20898589.8284
   1330448.09847   1043199.74445  22491018.7274                   22491017.6914
  -1861113.95347  -1434476.73245  22538175.6884                   22538174.1914
  -2084886.01246  -1585154.99543  24520933.0944                   24520933.3874
   -281656.19946   -213975.35044  23884606.7274                   23884607.0784
  -1079536.38348   -818461.71846  20133560.9534                   20133559.0434
   2726056.28947   2121467.41444  22730393.5234                   22730391.2074
  -1856754.48048  -1423637.07446  21329363.4844                   21329360.4734
   2712807.69546   2111706.31543  24464533.4144                   24464533.8594
    714968.38348    566702.24446  20153433.4224                   20153429.8054
 11  8 22 15 46  0.0000000  0 10G03G06G07G08G10G13G16G19G20G23
    323353.32048    263867.81345  20883640.8364                   20883639.4964
   1278814.69547   1002965.88645  22481193.4614                   22481192.3284
  -2020624.41847  -1558770.60445  22507821.5394                   22507820.2304
  -2252582.41046  -1715827.42243  24489020.5234                   24489021.2734
   -384591.47746   -294184.72143  23865018.4224                   23865018.6374
  -1206088.85248   -917074.03046  20109479.1334                   20109476.7424
   2711163.62547   2109862.69344  22727559.1954                   22727557.3634
  -2007987.36348  -1541480.85546  21300584.8444                   21300581.8324
   2694295.43046   2097281.04943  24461010.8054                   24461011.5864
    645152.12948    512299.94246  20140147.8444                   20140144.4734
 11  8 22 15 46 30.0000000  0 10G03G06G07G08G10G13G16G19G20G23
    245257.89547    203014.22646  20868779.7734                   20868778.6174
   1227518.62547    962994.87745  22471432.0944                   22471430.4924
  -2180274.31647  -1683173.10145  22477441.2814                   22477439.9344
  -2420493.97346  -1846667.51243  24457068.8204                   24457068.8714
   -487194.66846   -374135.25543  23845493.6254                   23845493.4454
  -1332258.15248  -1015387.77946  20085469.6564                   20085467.4184
   2696194.53147   2098198.40844  22724710.8834                   22724709.8094
  -2158860.30548  -1659044.17346  21271874.4774                   21271871.6884
   2675510.75446   2082643.51243  24457436.1484                   24457436.5274
    575747.41048    458218.30746  20126940.5164                   20126937.0984
 11  8 22 15 47  0.0000000  0 10G03G06G07G08G10G13G16G19G20G23
    167628.41848    142523.71845  20854007.3204                   20854006.4804
   1176557.64847    923284.99445  22461734.8134                   22461732.8054
  -2340063.89147  -1807684.46445  22447034.6254                   22447033.0044
  -2588621.43446  -1977675.88243  24425074.6724                   24425075.6054
   -589467.59446   -453828.51543  23826031.3984                   23826031.7304
  -1458043.17248  -1113402.10446  20061533.6954                   20061531.3324
   2681146.06647   2086472.28144  22721846.8674                   22721846.3444
  -2309371.30948  -1776325.45346  21243233.4534                   21243230.4884
   2656450.61346   2067791.38343  24453809.0394                   24453809.6954
    506753.11348    404456.49746  20113811.4534                   20113808.0314
 11  8 22 15 47 30.0000000  0 10G03G06G07G08G10G13G16G19G20G23
     90460.35248     82392.75845  20839322.3364                   20839321.4104
   1125926.53547    883832.15345  22452099.8984                   22452098.8054
  -2499996.06647  -1932306.93745  22416600.7344                   22416598.9804
  -2756968.44146  -2108855.24743  24393040.0084                   24393040.4774
   -691414.83246   -533267.94444  23806632.2664                   23806631.9144
  -1583446.14848  -1211118.70646  20037670.4144                   20037668.1454
   2666012.68447   2074680.01745  22718967.0004                   22718966.0704
  -2459521.84048  -1893325.86446  21214660.4614                   21214657.6684
   2637108.71546   2052719.62943  24450128.5084                   24450129.5514
    438165.21948    351011.35746  20100759.4224                   20100755.8554
 11  8 22 15 48  0.0000000  0 10G03G06G07G08G10G13G16G19G20G23
     13752.11748     22620.11046  20824725.3204                   20824724.7274
   1075622.80547    844634.38545  22442527.3284                   22442526.4144
  -2660071.28147  -2057040.86345  22386138.9844                   22386137.8164
  -2925536.10946  -2240206.64143  24360962.0164                   24360962.3874
   -793038.12946   -612454.94444  23787294.1174                   23787293.6844
  -1708465.79748  -1308536.62247  20013880.1484                   20013878.0084
   2650791.74647   2062819.49045  22716071.1024                   22716070.0984
  -2609310.07048  -2010043.95946  21186157.0864                   21186154.3324
   2617481.98446   2037426.01943  24446393.8834                   24446394.4414
    369982.58248    297881.99646  20087784.9144                   20087781.2544
 11  8 22 15 48 30.0000000  0 10G03G06G07G08G10G13G16G19G20G23
    -62494.35547    -36792.72946  20810216.4064                   20810215.3594
   1025647.82447    805692.78945  22433016.8054                   22433016.5274
  -2820286.39147  -2181883.79145  22355650.7664                   22355649.7074
  -3094321.46146  -2371727.55543  24328843.0314                   24328843.5784
   -894335.27046   -691387.80044  23768017.9064                   23768017.6134
  -1833097.75848  -1405652.43147  19990163.1334                   19990161.0044
   2635483.75047   2050891.14845  22713158.5474                   22713156.7734
  -2758731.41048  -2126476.15546  21157722.9384                   21157720.6564
   2597570.97746   2021910.77843  24442605.3594                   24442604.4694
    302207.64848    245070.33746  20074887.6484                   20074884.0784
 11  8 22 15 49  0.0000000  0 10G03G06G07G08G10G13G16G19G20G23
   -138275.67247    -95843.10946  20795795.8054                   20795794.7274
    976003.64147    767008.98245  22423570.2114                   22423569.5274
  -2980637.21147  -2306832.47145  22325137.1174                   22325135.6564
  -3263321.41446  -2503415.76643  24296683.2344                   24296683.8674
   -995303.87147   -770064.68043  23748803.9774                   23748803.9344
  -1957336.53148  -1502461.87447  19966521.5394                   19966519.3794
   2620090.67647   2038896.49345  22710229.1564                   22710227.2464
  -2907779.60548  -2242617.59546  21129359.7974                   21129357.4064
   2577377.22346   2006175.31543  24438763.1094                   24438761.1844
    234843.45748    192578.74746  20062068.5164                   20062065.2774
 11  8 22 15 49 30.0000000  0 10G03G06G07G08G10G13G16G19G20G23
   -213591.84848   -154531.04246  20781463.4924                   20781462.4304
    926689.98047    728582.71445  22414186.5234                   22414185.8244
  -3141121.65647  -2431885.26245  22294597.8284                   22294596.7424
  -3432534.73846  -2635270.22643  24264483.3134                   24264484.0084
  -1095943.38746   -848485.09343  23729652.5314                   23729652.7464
  -2081179.49248  -1598962.88047  19942955.2274                   19942952.7234
   2604611.94947   2026835.10944  22707284.0234                   22707281.7424
  -3056450.91048  -2358465.36446  21101068.7974                   21101065.9454
   2556899.71546   1990218.68743  24434865.7974                   24434865.0394
    167891.04748    140407.99846  20049328.0084                   20049324.5044
 11  8 22 15 50  0.0000000  0 10G03G06G07G08G10G13G16G19G20G23
   1286985.64848   1014750.12046  21067013.6884                   21067012.6374
   2453133.39547   1918019.13845  22704658.6174                   22704658.5744
  -1726307.65647  -1329432.79845  22563827.9304                   22563827.1094
  -2026529.46946  -1539681.71643  24532036.6564                   24532037.2934
    379175.00446    300957.77044  24010358.2114                   24010358.4264
   -629194.47748   -467545.99747  20219258.4534                   20219256.5044
   4164472.55147   3242310.85145  23004115.3134                   23004113.6334
  -1629311.69948  -1246408.83546  21372644.3914                   21372641.3014
   4111563.16846   3201644.64243  24730708.4694                   24730708.7344
   1676778.41848   1316164.37446  20336459.8284                   20336456.4184
 11  8 22 15 50 30.0000000  0 10G03G06G07G08G10G13G16G19G20G23
   1212614.10248    956798.24746  21052861.4304                   21052860.1644
   2404492.32047   1880116.98845  22695402.6724                   22695402.4694
  -1887041.96547  -1454680.28245  22533241.0394                   22533240.0704
  -2196153.26646  -1671856.03143  24499757.8364                   24499758.8014
    279206.91446    223060.52344  23991335.1174                   23991335.4064
   -752224.40248   -563413.48247  20195846.8594                   20195844.7074
   4148832.66447   3230123.88644  23001139.0864                   23001137.1954
  -1777205.93448  -1361651.09246  21344500.7114                   21344497.5704
   4090527.70746   3185253.23343  24726706.1484                   24726706.5474
   1610664.37948   1264646.91546  20323878.6884                   20323875.2464
 11  8 22 15 51  0.0000000  0 10G03G06G07G08G10G13G16G19G20G23
   1138723.08247    899220.80746  21038800.6804                   21038798.9804
   2356195.11347   1842482.76545  22686212.2894                   22686212.1564
  -2047890.35547  -1580016.70345  22502632.7814                   22502631.7814
  -2365972.46146  -1804182.69043  24467442.3834                   24467443.1914
    179583.03546    145431.49443  23972377.0394                   23972377.2544
   -874835.30148   -658954.45347  20172514.5084                   20172512.2704
   4133119.48446   3217879.79944  22998148.3674                   22998147.0704
  -1924698.46548  -1476580.33046  21316434.1884                   21316431.0124
   4069219.60247   3168649.37243  24722651.1804                   24722651.8164
   1544978.49248   1213463.09545  20311379.3054                   20311375.7114
 11  8 22 15 51 30.0000000  0 10G03G06G07G08G10G13G16G19G20G23
   1065319.53148    842023.21446  21024832.4924                   21024830.8444
   2308247.74647   1805121.16145  22677088.3284                   22677087.6604
  -2208844.54747  -1705435.54045  22472004.7114                   22472003.1094
  -2535979.31646  -1936655.46243  24435091.0864                   24435091.9414
     80309.98046     68075.81543  23953486.1174                   23953486.4144
   -997018.07048   -754161.81846  20149264.2034                   20149261.5354
   4117338.75847   3205583.05444  22995145.5164                   22995144.1024
  -2071779.44548  -1591188.87746  21288445.4384                   21288442.6214
   4047644.87146   3151837.81543  24718545.6724                   24718546.4024
   1479728.03548   1162618.54946  20298962.1804                   20298958.8984
 11  8 22 15 52  0.0000000  0 10G03G06G07G08G10G13G16G19G20G23
    992406.93448    785208.17646  21010957.7114                   21010956.2274
   2260652.54347   1768033.95545  22668031.4774                   22668030.6374
  -2369899.37947  -1830932.80645  22441356.7114                   22441355.0394
  -2706169.72347  -2069271.32543  24402705.5704                   24402705.1684
    -18609.07846     -9003.96844  23934662.6254                   23934663.6094
  -1118766.72348   -849030.92746  20126095.8914                   20126093.9734
   4101492.58647   3193235.32744  22992130.3754                   22992129.2814
  -2218442.45348  -1705471.73746  21260536.5554                   21260533.4144
   4025805.26246   3134819.85443  24714389.8284                   24714390.6994
   1414916.52048   1112116.02946  20286629.1724                   20286625.5984
 11  8 22 15 52 30.0000000  0 10G03G06G07G08G10G13G16G19G20G23
    919989.00448    728778.58346  20997176.6724                   20997175.6134
   2213412.80947   1731223.73845  22659042.1484                   22659041.6334
  -2531050.30147  -1956504.93145  22410690.9454                   22410688.8984
  -2876539.05947  -2202026.60243  24370285.2114                   24370284.9184
   -117170.38746    -85805.01943  23915906.9844                   23915907.1484
  -1240075.27048   -943557.07546  20103011.7114                   20103009.6764
   4085583.95347   3180838.93144  22989103.4694                   22989101.9304
  -2364680.36748  -1819423.35746  21232708.2114                   21232705.3634
   4003703.01646   3117597.14643  24710183.4144                   24710184.5044
   1350547.97748   1061958.69845  20274380.6484                   20274376.5634
 11  8 22 15 53  0.0000000  0 10G03G06G07G08G10G13G16G19G20G23
    848074.21948    672741.05645  20983492.1644                   20983490.8404
   2166536.25447   1694696.51345  22650121.2424                   22650121.3554
  -2692286.71147  -2082143.68145  22380008.6804                   22380006.5234
  -3047077.78547  -2334913.81743  24337832.5864                   24337833.0124
   -215365.49646   -162320.74743  23897221.6334                   23897222.0234
  -1360932.33248  -1037731.43146  20080013.2974                   20080010.8984
   4069620.70747   3168399.95745  22986065.8444                   22986064.1054
  -2510481.47348  -1933034.59446  21204963.2034                   21204960.3134
   3981345.77746   3100175.82543  24705929.6954                   24705930.4614
   1286631.76248   1012153.82245  20262217.6884                   20262213.9224
 11  8 22 15 53 30.0000000  0 10G03G06G07G08G10G13G16G19G20G23
    776664.33248    617096.96146  20969902.9844                   20969901.7074
   2120024.21147   1658453.31945  22641270.0944                   22641269.9304
  -2853604.99247  -2207846.23045  22349310.7344                   22349309.3164
  -3217782.96147  -2467930.81143  24305348.6954                   24305349.0904
   -313192.43746   -238549.51544  23878604.9844                   23878606.0354
  -1481333.49248  -1131550.52046  20057101.8524                   20057099.4064
   4053603.99247   3155919.36045  22983018.4224                   22983016.8054
  -2655840.72348  -2046301.53446  21177302.3284                   21177299.5554
   3958734.41446   3082556.44243  24701626.8134                   24701627.8014
   1223169.95748    962703.03746  20250141.2194                   20250137.4574
 11  8 22 15 54  0.0000000  0 10G03G06G07G08G10G13G16G19G20G23
    705763.87548    561849.82146  20956411.3754                   20956409.8484
   2073880.48847   1622497.14445  22632489.6564                   22632489.2934
  -3014999.21547  -2333607.94645  22318598.4924                   22318596.6374
  -3388649.07847  -2601073.16843  24272833.8984                   24272834.7034
   -410646.75446   -314488.01244  23860059.8364                   23860061.3364
  -1601272.08648  -1225009.18646  20034278.3134                   20034276.0124
   4037537.39547   3143399.88145  22979960.2734                   22979959.6294
  -2800750.36348  -2159218.12646  21149727.0784                   21149723.3094
   3935872.08246   3064741.48443  24697276.4304                   24697277.7074
   1160167.59448    913610.25745  20238152.2114                   20238148.7934
 11  8 22 15 54 30.0000000  0 10G03G06G07G08G10G13G16G19G20G23
    635378.59848    507004.13345  20943017.3134                   20943016.0704
   2028110.15247   1586831.92045  22623779.5004                   22623779.5904
  -3176461.82447  -2459422.96145  22287873.0704                   22287871.5744
  -3559669.83647  -2734336.00843  24240289.7034                   24240290.1134
   -507722.89546   -390131.83243  23841587.5084                   23841587.9734
  -1720739.46548  -1318100.65746  20011544.6804                   20011542.5314
   4021425.85947   3130845.40445  22976894.8134                   22976893.4804
  -2945201.52748  -2271777.46446  21122238.8674                   21122235.5864
   3912763.72346   3046734.82243  24692878.7734                   24692880.2154
   1097630.66048    864880.14545  20226251.7974                   20226247.9964
 11  8 22 15 55  0.0000000  0 10G03G06G07G08G10G13G16G19G20G23
    565510.62147    452561.53146  20929721.7114                   20929721.4414
   1982714.29346   1551458.47145  22615141.3754                   22615140.5744
  -3337989.43447  -2585288.60245  22257135.5234                   22257133.8364
  -3730842.15246  -2867716.96343  24207716.8054                   24207716.6764
   -604419.30146   -465479.69244  23823186.3594                   23823187.8324
  -1839731.53548  -1410821.76246  19988900.9534                   19988898.8984
   4005270.42647   3118256.70944  22973820.3984                   22973818.9694
  -3089189.55148  -2383975.91546  21094838.6644                   21094835.5124
   3889409.77346   3028536.85743  24688434.3914                   24688435.6294
   1035561.20748    816514.30645  20214440.3204                   20214436.6724
 11  8 22 15 55 30.0000000  0 10G03G06G07G08G10G13G16G19G20G23
    496164.21148    398525.35246  20916525.6334                   20916525.1024
   1937696.75847   1516379.85845  22606574.2734                   22606574.4024
  -3499575.70347  -2711199.95745  22226386.2194                   22226384.9024
  -3902160.02746  -3001211.38143  24175115.7344                   24175116.5234
   -700731.37946   -540528.11944  23804858.6804                   23804860.1844
  -1958241.72348  -1503167.38146  19966349.5554                   19966347.1024
   3989075.10247   3105636.91844  22970738.2814                   22970736.8284
  -3232706.28548  -2495807.13546  21067528.3204                   21067525.3404
   3865813.73446   3010150.13743  24683944.5864                   24683945.0314
    973964.27048    768516.66745  20202718.9144                   20202714.9454
 11  8 22 15 56  0.0000000  0 10G03G06G07G08G10G13G16G19G20G23
    427344.25847    344899.38646  20903429.3444                   20903428.9534
   1893062.03547   1481599.54245  22598081.0474                   22598080.3674
  -3661213.57847  -2837151.52745  22195627.9844                   22195625.7664
  -4073617.29346  -3134814.37343  24142489.0474                   24142488.8444
   -796653.99247   -615273.03144  23786605.2424                   23786606.5434
  -2076261.72748  -1595131.01846  19943890.7664                   19943888.6844
   3972844.07447   3092989.29345  22967650.4144                   22967648.5204
  -3375743.94548  -2607265.05746  21040309.4064                   21040306.1644
   3841979.85545   2991578.14842  24679409.4694                   24679410.0314
    912845.28148    720891.44045  20191088.5084                   20191084.3134
 11  8 22 15 56 30.0000000  0  9G03G06G07G08G10G13G16G19G23
    359051.21948    291684.01045  20890434.0394                   20890433.2894
   1848809.76247   1447117.21945  22589659.8134                   22589659.1764
  -3822900.53947  -2963141.33345  22164859.9064                   22164858.2034
  -4245212.75046  -3268525.07243  24109834.8754                   24109835.6024
   -892187.09846   -689714.43943  23768426.5784                   23768427.3094
  -2193788.54748  -1686710.35946  19921526.2194                   19921524.0124
   3956577.27347   3080313.80645  22964555.0784                   22964553.2234
  -3518298.46548  -2718346.49146  21013182.0004                   21013179.1134
    852205.03948    673639.28046  20179549.2034                   20179545.6994
 11  8 22 15 57  0.0000000  0  9G03G06G07G08G10G13G16G19G23
    291292.36748    238884.90346  20877539.6174                   20877539.0044
   1804946.34447   1412937.87444  22581313.3444                   22581312.4184
  -3984628.68047  -3089163.24745  22134083.8834                   22134082.3324
  -4416938.12946  -3402337.02143  24077156.7894                   24077157.1334
   -987323.53947   -763846.78543  23750322.8674                   23750323.7704
  -2310813.24648  -1777898.43247  19899257.1334                   19899255.3244
   3940280.94547   3067615.30245  22961453.8674                   22961451.9614
  -3660360.24648  -2829043.97446  20986148.5394                   20986145.5164
    792050.73848    626765.76446  20168101.8674                   20168098.3634
 11  8 22 15 57 30.0000000  0  9G03G06G07G08G10G13G16G19G23
   1799502.28948   1414113.39345  21164542.7344                   21164541.8874
   3336905.48447   2606672.23944  22872835.2734                   22872834.5044
  -2570957.18047  -1987601.02345  22403096.8054                   22403095.4064
  -3013353.09446  -2308634.27943  24344250.0554                   24344250.4264
    493372.88347    389942.61944  24032089.7504                   24032090.2544
   -851896.11348   -641079.89046  20176879.7424                   20176878.0824
   5499388.29347   4282504.10145  23258142.4064                   23258140.7194
  -2226488.23048  -1711741.10246  21259005.2814                   21259002.1524
   2307817.66448   1807882.82146  20456542.9224                   20456539.3054
 11  8 22 15 58  0.0000000  0  9G03G06G07G08G10G13G16G19G23
   1732842.86748   1362170.96145  21151858.1334                   21151857.1134
   3293849.82447   2573122.34745  22864642.5084                   22864641.3984
  -2732728.80147  -2113656.81645  22372312.8674                   22372311.0664
  -3185301.97346  -2442620.37543  24311529.0864                   24311528.9654
    399061.73447    316453.35144  24014143.5554                   24014143.4494
   -967876.12948   -731453.93047  20154809.5784                   20154807.8954
   5483063.66847   4269783.58444  23255035.1954                   23255033.8794
  -2367522.40648  -1821637.86846  21232167.5164                   21232164.3754
   2248668.50048   1761792.53146  20445287.1724                   20445283.5864
 11  8 22 15 58 30.0000000  0  9G03G06G07G08G10G13G16G19G23
   1666733.82848   1310657.41245  21139277.8364                   21139276.7154
   3251197.68847   2539886.86145  22856526.2344                   22856525.5164
  -2894518.87147  -2239726.98345  22341525.1094                   22341523.7234
  -3357360.53546  -2576691.90243  24278787.2974                   24278787.2814
    305163.27747    243285.74644  23996275.0634                   23996275.6254
  -1083329.66048   -821417.72746  20132839.5554                   20132837.6414
   5466724.64847   4257051.84244  23251926.0164                   23251924.6914
  -2508037.44148  -1931130.10446  21205428.3674                   21205425.0354
   2190022.99248   1716094.69446  20434127.2194                   20434123.7304
 11  8 22 15 59  0.0000000  0  9G03G06G07G08G10G13G16G19G23
   1601173.21148   1259571.19645  21126802.2664                   21126801.1524
   3208946.49647   2506963.80345  22848486.1954                   22848485.3054
  -3056327.28147  -2365811.42945  22310733.8834                   22310732.6024
  -3529529.30546  -2710849.33943  24246024.7814                   24246024.6024
    211675.85947    170438.36843  23978485.0234                   23978485.2504
  -1198256.42248   -910971.06246  20110969.7034                   20110967.6174
   5450368.87547   4244307.00744  23248813.5394                   23248812.7114
  -2648032.43448  -2040217.11646  21178788.0474                   21178784.9494
   2131879.61348   1670788.13046  20423063.0554                   20423059.6764
 11  8 22 15 59 30.0000000  0  9G03G06G07G08G10G13G16G19G23
   1536161.90648   1208913.01546  21114431.0634                   21114429.9064
   3167096.85247   2474353.64645  22840522.4224                   22840521.2854
  -3218151.00047  -2491907.81745  22279939.5234                   22279938.2504
  -3701806.02346  -2845090.89543  24213241.3134                   24213240.9964
    118600.49646     97912.06544  23960773.0704                   23960773.6724
  -1312652.52048  -1000110.89346  20089201.0234                   20089198.8204
   5433996.77347   4231549.47444  23245698.8834                   23245697.1294
  -2787502.97348  -2148895.45646  21152247.6334                   21152244.5944
   2074239.41848   1625873.65446  20412094.5474                   20412091.3794
 11  8 22 16  0  0.0000000  0  9G03G06G07G08G10G13G16G19G23
   1471698.94948   1158682.10645  21102164.1174                   21102163.1054
   3125646.92247   2442054.97145  22832634.7894                   22832634.7584
  -3379989.19947  -2618015.47645  22249142.8834                   22249141.8244
  -3874189.93046  -2979415.91343  24180437.3834                   24180437.5204
     25935.83647     25705.79543  23943139.0314                   23943140.0394
  -1426516.35548  -1088835.97246  20067533.1334                   20067531.0164
   5417607.14547   4218778.27244  23242580.3364                   23242578.9024
  -2926446.80947  -2257163.36846  21125807.6334                   21125804.6804
   2017102.27748   1581351.16946  20401221.8364                   20401218.6094
 11  8 22 16  0 30.0000000  0  9G03G06G07G08G10G13G16G19G23
   1407783.37148   1108877.74046  21090001.1954                   21090000.7114
   3084595.32047   2410066.67545  22824822.5394                   22824822.3794
  -3541840.44547  -2744133.30345  22218343.4384                   22218342.0124
  -4046680.95346  -3113824.50743  24147613.3134                   24147613.7854
    -66318.93046    -46181.06343  23925583.9144                   23925584.3444
  -1539846.60548  -1177145.27046  20045966.8914                   20045964.9104
   5401198.44547   4205992.23344  23239457.4694                   23239456.3014
  -3064862.03948  -2365019.38446  21099468.0164                   21099465.1414
   1960467.28548   1537219.96946  20390444.4454                   20390440.9454
 11  8 22 16  1  0.0000000  0  9G03G06G07G08G10G13G16G19G23
   1344412.27748   1059497.64145  21077942.6564                   21077941.4694
   3043938.89847   2378386.30945  22817086.2424                   22817085.5434
  -3703705.23047  -2870261.69445  22187541.7814                   22187540.2274
  -4219279.83246  -3248317.03443  24114769.4384                   24114769.2304
   -158165.84046   -117750.05344  23908106.8524                   23908106.8244
  -1652643.02348  -1265038.61146  20024502.7194                   20024500.9144
   5384768.09047   4193189.32244  23236330.9454                   23236329.4454
  -3202747.77047  -2472462.79146  21073229.1804                   21073226.2194
   1904332.69148   1493478.72546  20379762.4304                   20379758.8674
 11  8 22 16  1 30.0000000  0 10G03G06G07G08G10G13G16G19G11G23
   1281580.95348   1010538.13645  21065986.1644                   21065985.0634
   3003672.12547   2347009.54845  22809423.2894                   22809423.5004
  -3865586.28147  -2996402.75245  22156736.6564                   22156735.1994
  -4391990.24246  -3382896.54043  24081903.0704                   24081903.2584
   -249610.46146   -189005.65243  23890704.4694                   23890705.9654
  -1764908.17648  -1352517.96646  20003139.3914                   20003137.2034
   5368310.74647   4180365.38744  23233199.1174                   23233197.8244
  -3340106.09048  -2579495.25146  21047090.9144                   21047088.0004
   5999783.02356   4695455.11353  24745204.4384                   24745205.6454
   1848693.39548   1450123.38546  20369174.8364                   20369171.1684
 11  8 22 16  2  0.0000000  0 10G03G06G07G08G10G13G16G19G11G23
   1219275.29348    961988.24445  21054129.3594                   21054128.5314
   2963780.11347   2315924.81145  22801832.6254                   22801831.7934
  -4027495.87947  -3122566.07645  22125926.3444                   22125924.5124
  -4564824.93446  -3517572.85343  24049013.5944                   24049013.3484
   -340667.02346   -259958.84344  23873377.5394                   23873378.3484
  -1876653.94148  -1439592.60947  19981875.0704                   19981873.0164
   5351811.87947   4167509.07844  23230059.0634                   23230057.7664
  -3476947.91848  -2686125.24546  21021050.8674                   21021047.8484
   5820600.64846   4555832.52443  24711107.8054                   24711108.5004
   1793535.53948   1407143.21446  20358678.3834                   20358675.1134
 11  8 22 16  2 30.0000000  0 11G03G06G07G08G10G13G16G19G11G23G28
   1157483.84448    913839.04345  21042370.8284                   21042369.9774
   2924251.21947   2285123.08045  22794310.7274                   22794309.5354
  -4189442.75047  -3248758.42245  22095109.0704                   22095107.8554
  -4737793.55146  -3652353.55043  24016098.8914                   24016099.3094
   -431346.48446   -330618.17944  23856121.9534                   23856122.6334
  -1987888.65648  -1526269.03847  19960707.8204                   19960705.9534
   5335260.07047   4154611.50544  23226909.4144                   23226907.9384
  -3613281.05948  -2792358.84146  20995107.6094                   20995104.3284
   5641194.23446   4416035.37043  24676967.9454                   24676968.1094
   1738848.48048   1364529.90446  20348272.0084                   20348268.7624
   5998482.43456   4690556.24253  24584203.2034                   24584203.5394
 11  8 22 16  3  0.0000000  0 11G03G06G07G08G10G13G16G19G11G23G28
   1096194.64848    866081.20346  21030707.7584                   21030707.2074
   2885072.98847   2254594.55145  22786854.8524                   22786854.3714
  -4351436.85947  -3374987.58645  22064282.4304                   22064281.0744
  -4910906.65646  -3787246.83843  23983156.2344                   23983156.6134
   -521660.95746   -400993.12644  23838935.8984                   23838936.4304
  -2098622.00848  -1612554.77247  19939635.8834                   19939633.8164
   5318643.14547   4141663.21144  23223747.4304                   23223745.7934
  -3749114.62548  -2898203.16746  20969258.9844                   20969255.8404
   5461555.41047   4276057.12144  24642783.9384                   24642784.1604
   1684620.67248   1322274.43246  20337952.6724                   20337949.7154
   5819032.91046   4550725.53643  24550054.4534                   24550055.9414
 11  8 22 16  3 30.0000000  0 11G03G06G07G08G10G13G16G19G11G23G28
   1035400.44548    818709.07145  21019138.9924                   21019138.4614
   2846237.77047   2224333.28644  22779464.8444                   22779464.1334
  -4513483.19548  -3501257.44945  22033446.3984                   22033444.2504
  -5084169.66446  -3922256.91243  23950185.6414                   23950185.8164
   -611617.71946   -471089.38844  23821817.6174                   23821818.3284
  -2208858.43448  -1698453.30446  19918658.8444                   19918656.5704
   5301953.88747   4128658.55344  23220572.1884                   23220570.0204
  -3884453.01248  -3003661.64246  20943505.1254                   20943501.8284
   5281680.66847   4135895.04843  24608554.9924                   24608554.9304
   1630844.96148   1280371.25246  20327719.6334                   20327716.4104
   5639716.24646   4410998.27943  24515932.4454                   24515932.6094
 11  8 22 16  4  0.0000000  0 11G03G06G07G08G10G13G16G19G11G23G28
    975098.54348    771720.54645  21007663.8054                   21007663.3364
   2807742.42647   2194336.85544  22772139.8754                   22772138.5164
  -4675581.63747  -3627567.91145  22002599.3284                   22002598.1054
  -5257583.82046  -4057384.75444  23917186.1254                   23917186.0944
   -701219.53146   -540908.98244  23804767.2894                   23804767.3954
  -2318598.41448  -1783964.98347  19897775.8284                   19897774.1214
   5285189.49647   4115595.36444  23217382.0704                   23217380.3914
  -4019295.28148  -3108733.52246  20917845.3444                   20917842.1724
   5101571.43847   3995550.31743  24574281.0314                   24574281.2814
   1577519.34048   1238818.78546  20317572.0004                   20317568.7274
   5460531.85545   4271374.15443  24481834.0474                   24481834.9304
 11  8 22 16  4 30.0000000  0 11G03G06G07G08G10G13G16G19G11G23G28
   2490707.51648   1952714.52845  21296074.8984                   21296074.3984
   4345004.50447   3392203.40044  23064670.4454                   23064669.7774
  -3262308.08247  -2526315.78245  22271536.8754                   22271534.7074
  -3855724.38746  -2965026.69744  24183951.6414                   24183951.7624
    784953.98446    617148.25843  24087576.0474                   24087576.6564
   -852419.05548   -641487.56847  20176780.4694                   20176778.8594
   6843767.39847   5330071.58144  23513969.5474                   23513967.7114
  -2578216.90248  -1985815.29346  21192073.2344                   21192070.7034
   6496654.50846   5082628.13043  24839757.0084                   24839756.9104
   3100062.89148   2425216.33646  20607302.3284                   20607299.1564
   6856905.00446   5359457.24543  24747555.9144                   24747555.3054
 11  8 22 16  5  0.0000000  0 11G03G06G07G08G10G13G16G19G11G23G28
   2431381.48048   1906486.42646  21284785.6094                   21284784.6254
   4307178.44947   3362728.48344  23057472.6334                   23057471.6684
  -3424513.07447  -2652709.25945  22240670.1414                   22240668.8594
  -4029444.10547  -3100392.62244  24150893.8204                   24150894.0514
    696053.76646    547875.31643  24070659.1484                   24070659.9104
   -961167.00848   -726226.25046  20156086.2584                   20156084.7274
   6826843.94947   5316884.40944  23510748.6414                   23510747.4384
  -2712066.26647  -2090113.48546  21166603.0394                   21166599.9414
   6316079.48047   4941920.44644  24805394.5784                   24805394.6914
   3047629.84048   2384359.37446  20597324.8834                   20597321.5744
   6677982.93846   5220037.46943  24713507.4304                   24713507.3164
 11  8 22 16  5 30.0000000  0 11G03G06G07G08G10G13G16G19G11G23G28
   2372534.88748   1860631.89346  21273587.3524                   21273586.9304
   4269678.10547   3333507.38844  23050336.4924                   23050335.0824
  -3586775.68447  -2779147.64145  22209792.6804                   22209790.6844
  -4203321.81247  -3235881.72644  24117805.8754                   24117805.6884
    607495.87146    478869.10043  24053806.8984                   24053807.8834
  -1069423.22347   -810581.75247  20135485.9844                   20135484.0394
   6809832.73846   5303628.84944  23507511.6954                   23507510.3594
  -2845422.48448  -2194027.41046  21141226.1174                   21141222.8874
   6135269.19547   4801029.44244  24770987.1484                   24770987.9224
   2995635.44548   2343844.23646  20587430.4454                   20587427.2464
   6499186.96145   5080715.96942  24679481.8444                   24679483.3094
 11  8 22 16  6  0.0000000  0 11G03G06G07G08G10G13G16G19G11G23G28
   2314165.85248   1815149.48945  21262480.5234                   21262479.7934
   4232501.08247   3304538.26444  23043262.3444                   23043261.4534
  -3749095.74247  -2905630.78345  22178904.2114                   22178902.6524
  -4377358.26647  -3371494.48344  24084687.5474                   24084687.8054
    519278.40646    410128.14244  24037020.1174                   24037020.3954
  -1177187.45347   -894553.88046  20114979.3674                   20114976.9924
   6792731.53146   5290303.12644  23504257.7344                   23504256.6214
  -2978284.86348  -2297556.52846  21115943.1724                   21115940.0904
   5954225.46147   4659956.53244  24736535.5784                   24736535.9064
   2944078.10948   2303669.67946  20577619.4614                   20577616.0234
   6320517.05146   4941492.74642  24645483.2974                   24645482.6094
 11  8 22 16  6 30.0000000  0 11G03G06G07G08G10G13G16G19G11G23G28
   2256268.75048   1770034.82545  21251463.0704                   21251461.8014
   4195641.46547   3275816.43344  23036247.9924                   23036247.6374
  -3911476.51647  -3032161.24045  22148003.7194                   22148002.3484
  -4551557.38347  -3507233.98044  24051538.8524                   24051539.0394
    431396.21546    341648.49143  24020296.4924                   24020297.6334
  -1284462.73847   -978145.03046  20094565.2974                   20094563.4734
   6775534.96946   5276903.16044  23500984.7274                   23500984.2934
  -3110655.89148  -2400702.77746  21090753.8054                   21090750.5744
   5772946.57847   4518700.32343  24702039.4924                   24702039.7894
   2892952.66848   2263831.64246  20567890.6484                   20567887.3364
   6141969.81645   4802365.09442  24611507.0634                   24611506.5394
 11  8 22 16  7  0.0000000  0 11G03G06G07G08G10G13G16G19G11G23G28
   2198839.64548   1725284.81745  21240534.4774                   21240534.1054
   4159094.82047   3247338.49744  23029293.1954                   23029292.6724
  -4073919.00847  -3158739.79745  22117092.1484                   22117090.5864
  -4725920.73847  -3643101.49744  24018358.2034                   24018358.9064
    343845.17246    273426.88943  24003636.2344                   24003636.4614
  -1391250.23047  -1061356.06746  20074244.5084                   20074242.0514
   6758239.52046   5263426.11144  23497693.3594                   23497692.8754
  -3242536.22748  -2503466.66346  21065657.5634                   21065654.3204
   5591433.01247   4377261.30543  24667497.6334                   24667498.7154
   2842255.22748   2224327.13646  20558243.3674                   20558239.9494
   5963543.60546   4663331.65643  24577552.8444                   24577553.5314
 11  8 22 16  7 30.0000000  0 11G03G06G07G08G10G13G16G19G11G23G28
   2141871.21548   1680893.80845  21229693.8594                   21229692.8054
   4122853.94147   3219098.83044  23022396.8364                   23022396.5784
  -4236427.60947  -3285369.86845  22086167.7424                   22086165.9024
  -4900454.16847  -3779101.54144  23985145.9844                   23985146.3674
    256618.80546    205458.28143  23987038.0394                   23987038.0314
  -1497554.69548  -1144190.72746  20054015.2584                   20054013.3634
   6740838.08646   5249866.50644  23494382.7344                   23494381.4574
  -3373929.56647  -2605851.07846  21040654.4304                   21040651.2974
   5409682.03146   4235637.29343  24632911.2974                   24632912.0704
   2791979.35547   2185151.11045  20548676.2194                   20548673.0084
   5785233.84446   4524389.11843  24543622.1174                   24543622.9104
 11  8 22 16  8  0.0000000  0 11G03G06G07G08G10G13G16G19G11G23G28
   2085361.28148   1636860.05445  21218940.6024                   21218939.4304
   4086915.43847   3191094.78644  23015557.8204                   23015558.1024
  -4399002.58247  -3412051.64345  22055231.0084                   22055229.1294
  -5075158.46947  -3915234.69843  23951900.8524                   23951901.0744
    169713.69146    137739.95444  23970499.9614                   23970500.3014
  -1603376.30148  -1226649.12546  20033878.2344                   20033875.8674
   6723328.28547   5236222.45844  23491050.8984                   23491049.6374
  -3504835.64848  -2707855.82246  21015743.9144                   21015740.7544
   5227694.68846   4093828.99643  24598280.8444                   24598280.8014
   2742122.56347   2146301.63845  20539188.4694                   20539185.5274
   5607039.48846   4385536.43743  24509713.3134                   24509713.3484
 11  8 22 16  8 30.0000000  0 11G03G06G07G08G10G13G16G19G11G23G28
   2029302.46148   1593177.82145  21208272.6484                   21208271.6294
   4051271.90247   3163320.58745  23008775.3594                   23008775.7344
  -4561648.49647  -3538788.71845  22024280.6804                   22024278.3794
  -5250038.38746  -4051504.69343  23918621.9064                   23918622.4264
     83123.01646     70266.63543  23954023.4384                   23954022.8634
  -1708719.40248  -1308734.66846  20013832.1724                   20013830.0664
   6705703.10947   5222488.50044  23487696.8834                   23487696.0124
  -3635258.30548  -2809483.86646  20990925.2424                   20990922.1884
   5045468.21146   3951834.43543  24563603.7584                   24563604.5904
   2692678.48847   2107773.75645  20529779.9224                   20529776.7304
   5428955.89546   4246770.05843  24475824.5704                   24475825.1094
 11  8 22 16  9  0.0000000  0 11G03G06G07G08G10G13G16G19G11G23G28
   1973688.60247   1549842.32145  21197689.6484                   21197688.8794
   4015916.91847   3135771.21444  23002047.3364                   23002047.9454
  -4724368.70348  -3665583.66845  21993315.7034                   21993313.7934
  -5425097.95746  -4187914.64943  23885308.6094                   23885309.3244
     -3158.97346      3033.84744  23937604.0944                   23937604.4024
  -1813587.75847  -1390450.27446  19993876.0864                   19993874.0514
   6687956.71547   5208660.06544  23484320.0314                   23484318.7664
  -3765200.60948  -2910737.61546  20966197.8444                   20966194.4384
   4863000.75046   3809652.02643  24528880.5004                   24528882.5204
   2643641.09047   2069562.77145  20520448.4304                   20520444.8524
   5250979.21546   4108087.00243  24441957.1954                   24441957.2274
 11  8 22 16  9 30.0000000  0 11G03G06G07G08G10G13G16G19G11G23G28
   1918517.68448   1506851.96145  21187191.2274                   21187190.1844
   3980848.13347   3108444.87044  22995373.6954                   22995374.1684
  -4887162.41447  -3792435.90145  21962337.3134                   21962335.3404
  -5600337.48446  -4324464.88243  23851961.6024                   23851962.3674
    -89134.19946    -63959.83143  23921243.1884                   23921243.4064
  -1917980.80948  -1471795.52746  19974011.0474                   19974008.8954
   6670087.39846   5194735.86744  23480919.1024                   23480918.7344
  -3894661.32448  -3011616.10346  20941562.8284                   20941559.4964
   4680294.61346   3667283.70043  24494113.2504                   24494114.4694
   2595009.05547   2031667.66345  20511194.1644                   20511190.7584
   5073109.78947   3969487.41543  24408109.9224                   24408109.7234
 11  8 22 16 10  0.0000000  0 11G03G06G07G08G10G13G16G19G11G23G28
   1863788.22747   1464205.60245  21176776.4614                   21176775.2074
   3946063.68447   3081340.08344  22988754.9694                   22988754.6334
  -5050028.75448  -3919344.70445  21931344.9844                   21931342.7074
  -5775756.32847  -4461154.81943  23818580.9534                   23818581.0864
   -174804.39546   -130715.98243  23904940.1804                   23904941.1604
  -2021897.71548  -1552769.73646  19954236.3914                   19954234.1844
   6652093.92246   5180714.89044  23477495.4774                   23477494.6564
  -4023638.90648  -3112118.12646  20917019.0084                   20917015.7424
   4497352.16046   3524731.23243  24459300.7274                   24459302.2074
   2546781.15647   1994087.46945  20502016.5164                   20502013.3134
   4895348.31347   3830972.02143  24374283.0004                   24374282.9224
 11  8 22 16 10 30.0000000  0 11G03G06G07G08G10G13G16G19G11G23G28
   1809491.59848   1421896.51145  21166444.0704                   21166443.5164
   3911554.43847   3054449.73544  22982188.2424                   22982188.4144
  -5212973.27047  -4046314.44045  21900337.5084                   21900335.1724
  -5951361.13346  -4597989.70043  23785164.2974                   23785163.5394
   -260177.99646   -197240.88943  23888694.3594                   23888695.2974
  -2125344.37948  -1633377.53946  19934550.8984                   19934548.8554
   6633968.06646   5166590.75243  23474045.7504                   23474044.7034
  -4152139.22748  -3212248.23446  20892565.9304                   20892562.8094
   4314169.41446   3381991.49343  24424442.4304                   24424443.5084
   2498949.23047   1956815.80745  20492914.1804                   20492911.2304
   4717688.43047   3692535.78543  24340475.4304                   24340474.8754
 11  8 22 16 11  0.0000000  0 11G03G06G07G08G10G13G16G19G11G23G28
   1755624.28148   1379921.94745  21156193.3364                   21156193.2274
   3877316.52347   3027770.79144  22975672.8444                   22975673.0554
  -5375996.96148  -4173345.87845  21869314.9844                   21869313.0434
  -6127153.60546  -4734970.75444  23751712.0554                   23751712.6884
   -345258.62946   -263537.50543  23872504.3054                   23872505.3984
  -2228322.09447  -1713619.92346  19914954.8674                   19914952.8524
   6615706.47346   5152360.86344  23470571.1414                   23470569.6294
  -4280162.72348  -3312006.81346  20868203.6024                   20868200.9144
   4130746.79747   3239064.82743  24389538.1254                   24389538.6214
   2451509.85947   1919850.01045  20483886.9224                   20483883.6524
   4540128.43046   3554177.33943  24306686.7664                   24306687.0124
 11  8 22 16 11 30.0000000  0 11G03G06G07G08G10G13G16G19G11G23G28
   1702183.30147   1338279.60345  21146024.0784                   21146023.5944
   3843346.82447   3001300.84144  22969208.6954                   22969209.1024
  -5539100.11747  -4300439.23246  21838277.4694                   21838275.4104
  -6303134.11747  -4872098.42244  23718224.1414                   23718224.1174
   -430048.85246   -329607.80343  23856368.6484                   23856369.9064
  -2330831.12148  -1793497.10346  19895448.2584                   19895446.1094
   6597306.85547   5138023.46444  23467070.6884                   23467069.0474
  -4407708.93748  -3411393.47346  20843932.9384                   20843929.6644
   3947085.91047   3095952.53843  24354588.5164                   24354589.1524
   2404460.60948   1883188.23545  20474934.2034                   20474930.1294
   4362668.00847   3415896.54843  24272916.8984                   24272917.1604
 11  8 22 16 12  0.0000000  0 11G03G06G07G08G10G13G16G19G11G23G28
   3224586.25448   2524567.57345  21435727.8674                   21435727.5474
   5385062.14847   4202637.39844  23262588.2194                   23262587.6564
  -4126857.93747  -3199990.78346  22107018.6024                   22107016.4964
  -4903878.92247  -3781769.65844  23984493.5554                   23984493.5634
   1060870.12546    832147.11943  24140081.6024                   24140082.8364
   -857449.70747   -645407.72046  20175823.1564                   20175821.3984
   8154185.96547   6351175.96844  23763334.7424                   23763333.7814
  -2959354.65648  -2282805.71246  21119545.2344                   21119542.2304
   5338613.27347   4180259.65943  24619387.3284                   24619387.3324
   3933219.50448   3074428.88945  20765847.1174                   20765843.2344
   5760731.29746   4505296.51843  24538959.2194                   24538959.2504
 11  8 22 16 12 30.0000000  0 11G03G06G07G08G10G13G16G19G11G23G28
   3171987.44948   2483581.49045  21425718.8594                   21425717.8674
   5351617.58247   4176576.64144  23256223.8284                   23256223.0084
  -4290120.95747  -3327208.70046  22075949.9694                   22075948.1294
  -5080239.84847  -3919193.66744  23950933.5234                   23950933.3284
    976650.39146    766521.36843  24124054.8364                   24124055.7424
   -959024.30548   -724556.77446  20156494.4614                   20156492.3954
   8135501.07047   6336616.23944  23759778.7664                   23759778.1954
  -3085947.40248  -2381449.41246  21095455.6174                   21095452.5944
   5154478.73846   4036778.24143  24584348.1954                   24584347.5824
   3886941.57048   3038368.12745  20757040.8284                   20757037.3754
   5583466.62146   4367168.20343  24505227.3914                   24505227.3244
 11  8 22 16 13  0.0000000  0 11G03G06G07G08G10G13G16G19G11G23G28
   3119808.47348   2442922.51445  21415789.3284                   21415788.5984
   5318434.00047   4150719.27044  23249908.8364                   23249907.8404
  -4453461.11347  -3454486.74046  22044867.5394                   22044865.7774
  -5256789.02347  -4056764.44044  23917337.1254                   23917337.1174
    892714.85246    701116.97643  24108082.4694                   24108084.0274
  -1060129.15248   -803339.79446  20137254.7034                   20137252.6334
   8116673.08647   6321945.04544  23756195.9614                   23756194.8714
  -3212060.36348  -2479719.26446  21071457.3834                   21071453.8634
   4970112.84446   3893116.56843  24549264.7894                   24549263.7464
   3841048.48848   3002607.22845  20748307.5314                   20748304.5634
   5406302.12546   4229117.95742  24471514.4224                   24471513.0944
 11  8 22 16 13 30.0000000  0 11G03G06G07G08G10G13G16G19G11G23G28
   3068052.39148   2402593.08345  21405940.7344                   21405939.5004
   5285513.96147   4125067.23144  23243644.5554                   23243643.6454
  -4616872.18747  -3581820.04045  22013771.5554                   22013769.7384
  -5433521.18047  -4194477.74644  23883706.5784                   23883706.0664
    809066.41046    635936.34243  24092165.0634                   24092166.3714
  -1160758.90248   -881752.61446  20118105.5084                   20118103.3984
   8097705.66447   6307165.21044  23752586.5634                   23752585.4414
  -3337687.23448  -2577610.33446  21047551.1174                   21047547.6844
   4785523.12146   3749280.49343  24514137.7274                   24514137.5434
   3795543.71148   2967148.93945  20739648.1804                   20739645.3244
   5229242.84846   4091149.73042  24437820.5704                   24437819.1174
 11  8 22 16 14  0.0000000  0 11G03G06G07G08G10G13G16G19G11G23G28
   3016722.79348   2362595.98045  21396173.0784                   21396171.6134
   5252861.45747   4099623.65444  23237430.9144                   23237429.8914
  -4780347.30547  -3709203.23645  21982663.0234                   21982661.6684
  -5610429.94947  -4332328.70544  23850041.2424                   23850041.4184
    725709.35546    570982.68043  24076303.2814                   24076303.8914
  -1260906.69148   -959789.87746  20099047.9454                   20099045.9494
   8078603.27346   6292280.20344  23748951.3444                   23748950.6884
  -3462821.00048  -2675117.17346  21023739.0084                   21023735.5274
   4600717.78146   3605276.39343  24478969.6414                   24478970.4734
   3750431.52348   2931996.52645  20731063.6804                   20731060.9534
   5052295.13746   3953268.42642  24404148.0864                   24404147.1094
 11  8 22 16 14 30.0000000  0 11G03G06G07G08G10G13G16G19G11G23G28
   2965823.89547   2322934.48845  21386487.1954                   21386486.2304
   5220479.60947   4074390.99144  23231268.8674                   23231267.9414
  -4943879.69147  -3836631.05746  21951543.4924                   21951542.8404
  -5787509.50847  -4470312.70044  23816343.8524                   23816344.0314
    642647.63346    506259.25143  24060497.0634                   24060497.6214
  -1360567.06648  -1037447.32047  20080083.1564                   20080081.3794
   8059370.14846   6277293.30344  23745292.1024                   23745291.1294
  -3587454.93448  -2772234.54246  21000022.0864                   21000018.5434
   4415705.45346   3461111.05243  24443763.8284                   24443763.6844
   3705716.19148   2897153.37545  20722554.8914                   20722551.7114
   4875465.33246   3815479.00943  24370499.4844                   24370497.8134
 11  8 22 16 15  0.0000000  0 11G03G06G07G08G10G13G16G19G11G23G28
   2915359.11747   2283611.26245  21376883.8364                   21376882.6844
   5188372.19147   4049372.15444  23225159.0234                   23225158.5354
  -5107462.94947  -3964098.51746  21920415.1024                   21920413.5474
  -5964753.86747  -4608425.12944  23782615.6484                   23782615.8164
    559884.53546    441768.49343  24044746.9924                   24044748.3164
  -1459733.83648  -1114720.16247  20061212.3984                   20061210.3834
   8040010.41446   6262207.73044  23741607.7424                   23741606.5744
  -3711582.39548  -2868957.23146  20976401.2274                   20976397.8754
   4230494.09846   3316790.50643  24408519.4774                   24408519.4064
   3661401.70748   2862622.57345  20714121.9304                   20714118.9144
   4698759.08647   3677785.87343  24336873.0314                   24336872.9024
 11  8 22 16 15 30.0000000  0 11G03G06G07G08G10G13G16G19G11G23G28
   2865330.57847   2244627.95845  21367363.6564                   21367363.1094
   5156540.46547   4024568.16144  23219101.5784                   23219101.5164
  -5271092.08247  -4091601.72346  21889277.4454                   21889276.1484
  -6142158.78547  -4746662.71044  23748856.5554                   23748856.2424
    477422.31346    377512.14243  24029055.3754                   24029056.0044
  -1558402.50048  -1191604.85247  20042436.6644                   20042434.5124
   8020526.63747   6247025.49344  23737899.9454                   23737898.6684
  -3835198.60248  -2965281.55146  20952877.8054                   20952874.6764
   4045089.89146   3172319.71843  24373237.7814                   24373238.4454
   3617490.00848   2828405.64245  20705765.8834                   20705762.7894
   4522180.48447   3540192.19143  24303271.5394                   24303271.4344
 11  8 22 16 16  0.0000000  0 11G03G06G07G08G10G13G16G19G11G23G28
   2815736.13347   2205982.92345  21357926.2734                   21357925.4924
   5124982.67647   3999977.62344  23213096.3054                   23213096.6174
  -5434765.76248  -4219139.67246  21858131.1954                   21858130.1644
  -6319723.33647  -4885024.62344  23715067.0004                   23715066.5984
    395259.39546    313489.02743  24013420.2114                   24013421.3484
  -1656572.43748  -1268100.92047  20023755.5314                   20023753.6134
   8000918.02747   6231745.95544  23734169.2194                   23734167.8554
  -3958302.14548  -3061206.39546  20929451.8444                   20929448.6764
   3859495.98446   3027701.16143  24337920.3524                   24337921.1024
   3573980.05948   2794501.73945  20697486.3914                   20697483.1174
   4345730.42247   3402698.61543  24269693.8524                   24269693.7624
 11  8 22 16 16 30.0000000  0 11G03G06G07G08G10G13G16G19G11G23G28
   2766576.46147   2167676.66045  21348571.8204                   21348570.8594
   5093699.06647   3975600.70744  23207143.6094                   23207143.9654
  -5598480.42647  -4346709.51446  21826977.5634                   21826976.0004
  -6497444.93747  -5023508.96644  23681247.5084                   23681247.2464
    313396.46146    249699.69744  23997842.2034                   23997843.1254
  -1754240.51248  -1344205.93947  20005169.9064                   20005167.9184
   7981185.67246   6216370.07344  23730413.8754                   23730413.1254
  -4080889.52048  -3156729.02146  20906123.9924                   20906121.0164
   3673717.56646   2882938.77943  24302567.8134                   24302568.5354
   3530872.71947   2760911.58245  20689283.5164                   20689280.4264
   4169411.60547   3265307.37243  24236141.3984                   24236141.5354
 11  8 22 16 17  0.0000000  0 11G03G06G07G08G10G13G16G19G11G23G28
   2717844.86347   2129703.95245  21339298.3914                   21339297.4694
   5062682.71547   3951432.07744  23201240.7274                   23201241.5904
  -5762239.42647  -4474313.91946  21795815.4384                   21795813.3984
  -6675327.88747  -5162118.96744  23647397.8204                   23647397.1294
    231826.76646    186138.82043  23982320.4614                   23982321.5744
  -1851410.91048  -1419923.15447  19986678.9144                   19986677.0274
   7961323.74246   6200893.13644  23726634.2974                   23726633.6094
  -4202964.55548  -3251852.43246  20882894.2114                   20882890.6054
   3487752.51246   2738030.95343  24267179.9614                   24267179.8984
   3488161.55947   2727630.12345  20681155.9454                   20681152.9144
   3993219.81646   3128015.08043  24202613.1174                   24202613.3914
 11  8 22 16 17 30.0000000  0 11G03G06G07G08G10G13G16G19G11G23G28
   2669539.00047   2092063.00445  21330105.9224                   21330105.4454
   5031931.44146   3927469.96244  23195388.7424                   23195389.5354
  -5926041.79348  -4601952.11646  21764645.1094                   21764642.8594
  -6853372.00047  -5300854.62144  23613516.9304                   23613516.1334
    150548.41846    122804.99643  23966853.6254                   23966854.7234
  -1948083.68448  -1495252.60247  19968282.7974                   19968280.4924
   7941330.78946   6185314.14944  23722829.8444                   23722829.0394
  -4324526.32448  -3346575.88046  20859761.5234                   20859758.6024
   3301603.56346   2592979.87043  24231757.1334                   24231756.8284
   3445844.89547   2694656.08645  20673103.2894                   20673100.3364
   3817155.55147   2990822.17943  24169108.8754                   24169108.8874
 11  8 22 16 18  0.0000000  0 11G03G06G07G08G10G13G16G19G11G23G28
   2621658.45347   2054753.46945  21320994.8444                   21320993.5394
   5001444.26246   3903713.65744  23189588.2894                   23189587.7664
  -6089885.25047  -4729622.32745  21733466.7274                   21733464.7664
  -7031575.59447  -5439714.53144  23579605.7114                   23579605.1524
     69561.07046     59697.94844  23951442.7114                   23951444.5394
  -2044257.23848  -1570193.04847  19949981.3444                   19949979.5664
   7921206.91846   6169633.15244  23719000.2194                   23718999.6484
  -4445572.55948  -3440897.63546  20836727.9224                   20836724.1214
   3115274.44946   2447788.45943  24196299.5164                   24196299.5434
   3403922.37947   2661989.17645  20665125.6884                   20665122.7814
   3641220.35247   2853729.85843  24135629.6804                   24135629.8984
 11  8 22 16 18 30.0000000  0 11G03G06G07G08G10G13G16G19G11G23G28
   2574196.42247   2017770.04245  21311962.8444                   21311962.3014
   4971214.35947   3880157.86444  23183835.8284                   23183835.4414
  -6253773.28148  -4857327.26346  21702279.4844                   21702277.5234
  -7209942.68047  -5578701.83744  23545663.6094                   23545663.0784
    -11142.31646     -3187.87444  23936085.2974                   23936086.4534
  -2139935.81248  -1644747.79447  19931774.5474                   19931772.5354
   7900946.28946   6153845.60344  23715144.5164                   23715143.6644
  -4566107.10248  -3534820.65246  20813790.4614                   20813787.1564
   2928763.38746   2302455.18843  24160807.9534                   24160808.2544
   3362387.90248   2629624.61045  20657221.6564                   20657218.5004
   3465409.85547   2716734.73943  24102174.1254                   24102174.0704
 11  8 22 16 19  0.0000000  0 11G03G06G07G08G10G13G16G19G11G23G28
   2527152.68047   1981112.56045  21303010.7894                   21303010.4694
   4941241.24647   3856802.15844  23178132.1414                   23178132.0704
  -6417702.69548  -4985064.47245  21671084.7584                   21671082.9344
  -7388470.54347  -5717814.38644  23511690.8134                   23511689.9884
    -91561.39546    -65852.15644  23920781.8204                   23920783.9734
  -2235117.12548  -1718915.06247  19913662.2344                   19913660.2704
   7880549.42647   6137951.87344  23711263.4534                   23711262.1884
  -4686127.09048  -3628342.71746  20790951.4144                   20790948.2974
   2742074.89146   2156983.66743  24125282.1024                   24125282.1914
   3321241.46147   2597562.42945  20649391.9534                   20649388.6844
   3289725.97347   2579838.19943  24068742.9614                   24068742.7584
 11  8 22 16 19 30.0000000  0 11G03G06G07G08G10G13G16G19G11G23G28
   4055941.26647   3172376.37145  21593929.7584                   21593928.9844
   6486938.31347   5061241.40245  23472268.5234                   23472268.5984
  -5006252.15648  -3885232.87346  21939674.6174                   21939672.9924
  -5991738.43746  -4629451.66744  23777479.8754                   23777479.7154
   1403719.14846   1099301.49343  24205324.6884                   24205325.7894
   -754383.09448   -565096.35847  20195436.6174                   20195434.3404
   9435430.29747   7349547.27044  24007147.8524                   24007146.2234
  -3230213.26648  -2493864.41646  21068002.7974                   21067998.9844
   4130632.43846   3238976.70043  24389516.1174                   24389515.8484
   4855896.84848   3793397.77145  20941427.2814                   20941424.3204
   4689589.62947   3670641.15444  24335127.8674                   24335127.8674
 11  8 22 16 20  0.0000000  0 11G03G06G07G08G10G13G16G19G11G23G28
   4009716.93847   3136357.40145  21585133.3364                   21585132.8284
   6457461.57847   5038272.49044  23466659.3834                   23466659.0354
  -5170271.27048  -4013039.96346  21908463.0394                   21908460.8094
  -6170597.62547  -4768822.42644  23743444.3134                   23743444.0164
   1323852.09046   1037067.32443  24190126.0634                   24190127.5944
   -848579.91048   -638496.49647  20177511.2274                   20177509.3014
   9414746.89546   7333430.26344  24003212.3674                   24003210.3834
  -3349212.61348  -2586591.18346  21045358.0234                   21045354.4884
   3943586.34846   3093226.54743  24353922.3754                   24353922.6684
   4815510.35248   3761927.75245  20933742.1254                   20933739.1294
   4514149.67247   3533934.78243  24301742.6334                   24301742.7974
 11  8 22 16 20 30.0000000  0 11G03G06G07G08G10G13G16G19G11G23G28
   3963897.53147   3100653.94845  21576413.9694                   21576413.7114
   6428228.02746   5015493.08444  23461095.6024                   23461095.6684
  -5334335.30947  -4140882.04946  21877242.5314                   21877240.6764
  -6349623.56647  -4908323.13544  23709377.1334                   23709376.9344
   1244256.35946    975044.63044  24174980.2194                   24174981.2344
   -942285.41848   -711513.79147  20159679.9224                   20159678.0314
   9393916.70746   7317198.91043  23999247.8984                   23999247.1764
  -3467702.00048  -2678920.56946  21022809.8444                   21022806.7734
   3756364.37146   2947339.41143  24318294.4694                   24318294.8594
   4775499.66048   3730750.54845  20926128.1094                   20926125.4774
   4338830.48446   3397322.50443  24268380.8594                   24268380.5204
 11  8 22 16 21  0.0000000  0 11G03G06G07G08G10G13G16G19G11G23G28
   3918483.32447   3065266.24845  21567772.1884                   21567771.8204
   6399237.86346   4992903.29444  23455579.2274                   23455579.1054
  -5498440.33247  -4268756.09146  21846014.1954                   21846012.7194
  -6528813.11347  -5047951.32244  23675278.3594                   23675278.3364
   1164932.38746    913233.68744  24159884.5784                   24159885.5044
  -1035497.38348   -784146.50547  20141942.2344                   20141939.9534
   9372941.22346   7300854.30043  23995256.2344                   23995255.8714
  -3585678.03948  -2770849.94646  21000359.9924                   21000356.9924
   3568971.40246   2801319.01543  24282634.0474                   24282634.6994
   4735865.39848   3699866.67145  20918585.7814                   20918583.1134
   4163634.75046   3260806.41243  24235042.3444                   24235041.4734
 11  8 22 16 21 30.0000000  0 11G03G06G07G08G10G13G16G19G11G23G28
   3873465.85547   3030187.66245  21559205.5164                   21559205.1454
   6370482.30146   4970496.33644  23450107.0554                   23450106.9654
  -5662591.58647  -4396666.14946  21814777.2424                   21814776.0314
  -6708172.25047  -5187711.67144  23641147.4614                   23641147.5394
   1085871.78546    851627.97144  24144839.9144                   24144841.5274
  -1128221.69948   -856399.23447  20124297.2814                   20124295.3674
   9351812.71546   7284390.44643  23991235.8984                   23991235.2194
  -3703146.77348  -2862384.01646  20978006.4064                   20978003.4694
   3381403.54746   2655162.29743  24246941.1254                   24246941.5314
   4696599.19548   3669269.58145  20911113.9384                   20911110.4454
   3988556.34446   3124381.72943  24201724.9924                   24201725.0944
 11  8 22 16 22  0.0000000  0 11G03G06G07G08G10G13G16G19G11G23G28
   3828844.59047   2995417.80845  21550714.6564                   21550714.0784
   6341960.95746   4948271.84444  23444679.6724                   23444679.4574
  -5826786.33248  -4524610.10146  21783532.1724                   21783531.0514
  -6887698.93746  -5327602.53944  23606984.5474                   23606984.3674
   1007073.96946    790227.04143  24129845.4384                   24129846.4884
  -1220456.82848   -928270.77946  20106745.6174                   20106743.5904
   9330531.84046   7267807.86743  23987185.6884                   23987185.6334
  -3820105.64848  -2953520.79246  20955749.7814                   20955747.1564
   3193665.50046   2508873.05343  24211216.6174                   24211216.2894
   4657701.39548   3638959.58245  20903712.1094                   20903708.7464
   3813597.28546   2988050.03243  24168431.7194                   24168431.3284
 11  8 22 16 22 30.0000000  0 11G03G06G07G08G10G13G16G19G11G23G28
   3784614.32847   2960952.62745  21542298.2194                   21542297.1024
   6313668.50847   4926225.74744  23439296.0164                   23439295.2304
  -5991026.22748  -4652589.24246  21752278.3204                   21752276.9694
  -7067395.39846  -5467625.66944  23572788.9534                   23572789.2154
    928534.44146    729027.34743  24114899.8754                   24114900.5204
  -1312205.66048   -999763.39146  20089286.5474                   20089284.5904
   9309094.47746   7251103.31043  23983107.0554                   23983106.6724
  -3936556.58248  -3044261.76846  20933589.9304                   20933587.2274
   3005757.11345   2362450.99543  24175458.0084                   24175458.3834
   4619167.12148   3608932.80945  20896379.1884                   20896375.7974
   3638755.00846   2851809.37243  24135159.8834                   24135159.4414
 11  8 22 16 23  0.0000000  0 11G03G06G07G08G10G13G16G19G11G23G28
   3740769.78948   2926788.01045  21533955.1254                   21533953.8554
   6285599.51247   4904353.78344  23433954.6094                   23433954.1844
  -6155313.09448  -4780604.97846  21721015.9694                   21721014.7194
  -7247264.40647  -5607783.32344  23538561.2424                   23538560.1994
    850247.72346    668024.61243  24100002.8444                   24100003.0784
  -1403471.16848  -1070879.38946  20071919.1954                   20071917.0044
   9287496.41446   7234273.58544  23978996.9694                   23978996.6884
  -4052502.80948  -3134609.46146  20911526.1804                   20911522.8714
   2817677.71545   2215895.68442  24139668.1254                   24139668.0864
   4580991.22348   3579185.28645  20889114.2664                   20889111.3634
   3464026.07046   2715656.98443  24101910.0784                   24101909.8914
 11  8 22 16 23 30.0000000  0 11G03G06G07G08G10G13G16G19G11G23G28
   3697307.78147   2892921.46845  21525684.8674                   21525683.8204
   6257750.96947   4882653.55344  23428655.7894                   23428655.1644
  -6319646.51647  -4908656.99046  21689744.3284                   21689742.6804
  -7427305.96947  -5748075.42444  23504300.8204                   23504299.8914
    772211.21546    607216.84243  24085152.1644                   24085153.3984
  -1494253.83648  -1141619.15146  20054643.6254                   20054641.9024
   9265735.70746   7217317.07944  23974856.5634                   23974856.1994
  -4167944.16848  -3224563.75446  20889558.3834                   20889555.1294
   2629429.53946   2069208.83343  24103845.4384                   24103845.2624
   4543171.14548   3549715.05445  20881917.6804                   20881914.5314
   3289410.12146   2579592.62343  24068682.3984                   24068681.9884
 11  8 22 16 24  0.0000000  0 11G03G06G07G08G10G13G16G19G11G23G28
   3654224.94947   2859350.38245  21517486.0944                   21517485.1214
   6230118.96947   4861122.03944  23423397.4224                   23423397.4414
  -6484026.80948  -5036745.52046  21658463.5394                   21658462.0824
  -7607520.82447  -5888502.54044  23470006.3834                   23470006.3914
    694420.98446    546600.99943  24070349.4844                   24070350.4414
  -1584555.53948  -1211984.12246  20037460.1254                   20037458.0474
   9243809.91446   7200231.95943  23970684.5394                   23970683.7774
  -4282881.55148  -3314125.34346  20867686.6644                   20867683.1054
   2441013.78146   1922391.46542  24067991.0004                   24067990.7464
   4505703.35948   3520519.31745  20874787.4774                   20874784.6054
   3114906.35546   2443615.74843  24035475.3754                   24035475.1054
 11  8 22 16 24 30.0000000  0 11G03G06G07G08G10G13G16G19G11G23G28
   3611517.21947   2826071.57845  21509358.8754                   21509357.4184
   6202699.64847   4839756.26344  23418179.3594                   23418179.6484
  -6648454.07048  -5164870.64046  21627174.0234                   21627172.5514
  -7787910.71147  -6029066.06944  23435680.0784                   23435679.1804
    616873.63746    486174.45643  24055593.0634                   24055594.5434
  -1674377.77048  -1281975.48446  20020367.3284                   20020365.5274
   9221716.14146   7183015.98143  23966479.8364                   23966478.0514
  -4397316.18048  -3403295.17146  20845910.4924                   20845907.4694
   2252431.68846   1775444.38143  24032105.5944                   24032104.8324
   4468584.39148   3491595.36745  20867724.4224                   20867721.4344
   2940513.02746   2307724.89844  24002288.7894                   24002289.4774
 11  8 22 16 25  0.0000000  0 11G03G06G07G08G10G13G16G19G11G23G28
   3569181.65648   2793082.81445  21501302.5234                   21501302.1094
   6175490.28147   4818554.07344  23413001.9304                   23413002.9844
  -6812927.53548  -5293031.77046  21595876.1254                   21595874.4264
  -7968475.21547  -6169765.65444  23401319.4144                   23401318.3134
    539566.61746    425935.15443  24040882.4064                   24040883.7504
  -1763720.75448  -1351593.41346  20003365.8204                   20003363.9184
   9199453.00446   7165668.03743  23962243.4774                   23962242.0474
  -4511247.80548  -3492073.05746  20824229.8984                   20824226.5044
   2063685.51646   1628369.46143  23996187.9614                   23996187.9774
   4431812.01648   3462941.50445  20860726.6094                   20860723.3674
   2766229.82046   2171919.85143  23969124.6024                   23969123.8714
 11  8 22 16 25 30.0000000  0 11G03G06G07G08G10G13G16G19G11G23G28
   3527212.03147   2760379.17345  21493315.9534                   21493315.4414
   6148484.33247   4797510.40944  23407863.0234                   23407864.3914
  -6977450.18048  -5421231.22846  21564568.2274                   21564566.6604
  -8149217.86347  -6310604.04044  23366924.8444                   23366924.4264
    462493.25046    365877.91543  24026215.7894                   24026217.6024
  -1852589.03148  -1420841.44946  19986454.9144                   19986453.2194
   9177015.02046   7148183.86543  23957973.8284                   23957971.7734
  -4624680.23848  -3580461.96946  20802644.4304                   20802641.0944
   1874773.98046   1481165.71143  23960239.3204                   23960239.5394
   4395380.12948   3434552.98845  20853794.3364                   20853790.9414
   2592052.85246   2036197.59843  23935979.8754                   23935979.4774
 11  8 22 16 26  0.0000000  0 11G03G06G07G08G10G13G16G19G11G23G28
   3485604.94547   2727958.05245  21485398.7344                   21485398.0744
   6121678.39547   4776622.61044  23402762.4384                   23402762.6564
  -7142021.85548  -5549468.88146  21533251.5554                   21533249.8324
  -8330138.99647  -6451581.52044  23332496.6724                   23332496.9884
    385650.43046    306000.35843  24011593.1564                   24011594.3404
  -1940983.57048  -1489720.32946  19969633.9844                   19969632.2274
   9154400.09046   7130561.79243  23953669.3754                   23953668.4264
  -4737613.87948  -3668462.22246  20781153.9384                   20781151.0394
   1685698.87946   1333834.58743  23924259.3364                   23924259.5744
   4359285.44548   3406427.20345  20846925.7424                   20846922.8914
   2417981.35246   1900557.52243  23902854.8674                   23902854.3634
 11  8 22 16 26 30.0000000  0 11G03G06G07G08G10G13G16G19G11G23G28
   5019780.84447   3923419.76245  21777341.8284                   21777342.2074
   7670492.37546   5983490.59944  23697491.8284                   23697492.0314
  -5731214.43448  -4450138.39746  21801719.2814                   21801717.5354
  -6935810.62947  -5365091.84044  23597828.4384                   23597828.4964
   1884460.19547   1473904.03843  24296807.4774                   24296808.8484
   -453480.21948   -330626.82346  20252696.4774                   20252694.5394
  10707029.43446   8340402.76943  24249125.6954                   24249124.5234
  -3274623.65648  -2528469.84246  21059551.6484                   21059548.6764
   3071890.32446   2413983.80143  24188043.6804                   24188042.9884
   5898948.81647   4606164.87445  21139913.7894                   21139911.1174
   3819442.37946   2992605.10044  24169543.7034                   24169543.9184
 11  8 22 16 27  0.0000000  0 11G03G06G07G08G10G13G16G19G11G23G28
   4978894.35247   3891560.13645  21769561.5314                   21769561.8324
   7644082.13746   5962911.10644  23692465.6954                   23692466.4804
  -5895877.72348  -4578447.43146  21770384.7734                   21770382.4924
  -7117084.42647  -5506344.11844  23563333.5784                   23563333.6054
   1808074.92647   1414382.96543  24282271.6484                   24282272.8014
   -540925.06248   -398765.68446  20236056.2974                   20236054.3554
  10684060.27046   8322504.63443  24244754.5784                   24244753.6684
  -3386556.51248  -2615690.26246  21038251.5554                   21038248.8634
   2882498.67246   2266405.92543  24152002.9454                   24152003.1294
   5863525.43047   4578562.19645  21133172.7734                   21133169.9694
   3645584.34846   2857131.38043  24136458.6564                   24136459.8984
 11  8 22 16 27 30.0000000  0 11G03G06G07G08G10G13G16G19G11G23G28
   4938362.82047   3859977.11245  21761848.9844                   21761849.1214
   7617864.35946   5942481.62444  23687476.7274                   23687478.0984
  -6060586.42248  -4706791.85546  21739041.3134                   21739039.4574
  -7298535.94547  -5647734.89344  23528804.8444                   23528804.0314
   1731913.09047   1355036.02443  24267778.9454                   24267779.9144
   -627897.40248   -466536.36446  20219506.0394                   20219503.9694
  10660910.89546   8304466.10243  24240349.7974                   24240348.5864
  -3497990.12147  -2702521.65146  21017046.1254                   21017043.2664
   2692951.25846   2118706.72143  24115932.9614                   24115932.8874
   5828432.85547   4551217.29645  21126494.8834                   21126492.5124
   3471831.15246   2721739.32343  24103394.4144                   24103395.1094
 11  8 22 16 28  0.0000000  0 11G03G06G07G08G10G13G16G19G11G23G28
   4898182.88347   3828668.05645  21754203.4774                   21754202.7504
   7591835.51246   5922199.33744  23682523.8134                   23682523.9614
  -6225340.54748  -4835171.69346  21707689.9144                   21707688.1374
  -7480165.33247  -5789264.25444  23494241.6414                   23494241.5124
   1655971.68047   1295860.82243  24253327.7814                   24253328.4884
   -714398.33648   -533939.71646  20203045.2664                   20203043.4494
  10637578.52746   8286284.94243  24235909.9614                   24235908.4304
  -3608925.20348  -2788964.57946  20995935.9614                   20995933.0204
   2503249.54746   1970887.21043  24079833.9454                   24079834.2034
   5793667.85548   4524127.66345  21119879.6724                   21119876.8404
   3298182.24646   2586428.56843  24070349.8754                   24070350.2974
 11  8 22 16 28 30.0000000  0 11G03G06G07G08G10G13G16G19G11G23G28
   4858354.48047   3797632.89145  21746624.4614                   21746623.4104
   7565996.20746   5902064.73944  23677607.0784                   23677607.2774
  -6390135.98848  -4963583.71146  21676330.4144                   21676328.6884
  -7661969.26647  -5930929.60544  23459645.3204                   23459644.8014
   1580251.16046   1236857.76443  24238918.4454                   24238919.3054
   -800425.48047   -600973.87846  20186675.1484                   20186672.8714
  10614065.30546   8267962.89043  24231435.4304                   24231434.6294
  -3719359.08248  -2875016.95546  20974920.9144                   20974918.0824
   2313399.68846   1822952.39243  24043707.0474                   24043706.5904
   5759230.89848   4497293.64045  21113326.6174                   21113323.5744
   3124640.19946   2451201.03543  24037325.7504                   24037326.2154
 11  8 22 16 29  0.0000000  0 11G03G06G07G08G10G13G16G19G11G23G28
   4818875.71948   3766870.19345  21739111.7664                   21739110.9534
   7540344.04347   5882075.98444  23672726.0394                   23672726.3094
  -6554971.16448  -5092026.69046  21644963.2664                   21644961.6254
  -7843946.83247  -6072730.27944  23425015.7894                   23425015.9414
   1504749.67647   1178025.41143  24224551.2424                   24224551.9224
   -885978.73047   -667638.76146  20170394.8674                   20170393.0944
  10590370.32846   8249499.17343  24226926.5554                   24226926.1804
  -3829291.01648  -2960678.21646  20954001.6024                   20953998.5784
   2123404.45746   1674904.11343  24007551.9844                   24007551.6604
   5725120.64148   4470714.18545  21106835.7664                   21106832.6914
   2951205.57846   2316057.15043  24004322.9304                   24004322.5314
 11  8 22 16 29 30.0000000  0 11G03G06G07G08G10G13G16G19G11G23G28
   4779743.88748   3736377.83145  21731665.6564                   21731664.7154
   7514876.09847   5862230.81344  23667879.1564                   23667878.8134
  -6719845.25848  -5220500.00346  21613588.6644                   21613587.4534
  -8026098.03547  -6214666.24044  23390353.9454                   23390353.7934
   1429464.46546   1119361.49643  24210224.2034                   24210225.8594
   -971059.00047   -733935.10446  20154204.6804                   20154202.7344
  10566492.04746   8230892.64143  24222382.0314                   24222382.4184
  -3938721.33647  -3045948.59646  20933178.1334                   20933174.7894
   1933265.93446   1526744.34143  23971369.6564                   23971369.0164
   5691334.39548   4444387.19645  21100406.4774                   21100403.3794
   2777877.60546   2180996.38743  23971340.1414                   23971339.7384
 11  8 22 16 30  0.0000000  0 11G03G06G07G08G10G13G16G19G11G23G28
   4740960.75048   3706157.13145  21724285.2504                   21724284.4454
   7489594.69146   5842530.97144  23663068.2584                   23663067.2664
  -6884752.59448  -5348999.20846  21582208.3444                   21582206.0824
  -8208417.60247  -6356733.41244  23355659.3364                   23355659.1994
   1354397.70346   1060867.87543  24195939.2194                   24195941.1604
  -1055662.05147   -799859.59746  20138104.9144                   20138103.3244
  10542433.86346   8212145.91843  24217803.6884                   24217803.8014
  -4047645.40648  -3130824.49246  20912450.4064                   20912446.6644
   1742991.57046   1378478.65543  23935161.0864                   23935161.2424
   5657874.17648   4418314.27145  21094039.0474                   21094036.2424
   2604661.05246   2046022.48143  23938378.3524                   23938378.2234
 11  8 22 16 30 30.0000000  0 11G03G06G07G08G10G13G16G19G11G23G28
   4702526.59447   3676208.40945  21716971.1884                   21716970.9064
   7464499.67646   5822976.36144  23658292.1884                   23658292.2234
  -7049689.10548  -5477521.16246  21550821.8054                   21550819.7274
  -8390902.45347  -6498929.37144  23320933.7734                   23320933.2974
   1279549.22746   1002544.31943  24181696.5554                   24181698.5124
  -1139785.97747   -865410.72646  20122096.9614                   20122095.1134
  10518197.34446   8193260.28643  24213191.8984                   24213191.9844
  -4156060.49648  -3215303.77746  20891819.5704                   20891816.1214
   1552586.77346   1230111.33743  23898928.0314                   23898928.3554
   5624740.54348   4392495.81045  21087733.7664                   21087731.3794
   2431558.32846   1911137.33144  23905437.4454                   23905437.6294
 11  8 22 16 31  0.0000000  0 11G03G06G07G08G10G13G16G19G11G23G28
   4664444.68847   3646534.17245  21709724.4304                   21709724.1764
   7439595.06346   5803570.12244  23653553.1884                   23653553.1054
  -7214647.54748  -5606060.20046  21519430.9064                   21519429.3674
  -8573545.95347  -6641248.94544  23286177.9534                   23286177.0594
   1204923.02746    944394.01743  24167495.7894                   24167497.3444
  -1223424.89147   -930583.93546  20106181.2664                   20106179.3244
  10493787.60546   8174239.64643  24208547.2974                   24208546.8754
  -4263960.45748  -3299381.67946  20871287.0944                   20871283.8594
   1362060.41846   1081649.26243  23862672.8674                   23862672.4774
   5591937.23848   4366934.74445  21081491.8594                   21081488.7814
   2258575.44546   1776345.53944  23872520.4144                   23872520.4384
 11  8 22 16 31 30.0000000  0 11G03G06G07G08G10G13G16G19G11G23G28
   4626717.19147   3617136.08645  21702545.0864                   21702544.8874
   7414883.08646   5784313.96443  23648850.7734                   23648850.3014
  -7379621.55948  -5734611.36146  21488037.9224                   21488036.0044
  -8756342.28147  -6783687.61544  23251392.7974                   23251392.2854
   1130522.16046    886419.24843  24153338.1094                   24153339.2034
  -1306574.31647   -995375.72046  20090358.0084                   20090356.4694
  10469208.91446   8155087.33643  24203870.3284                   24203868.8164
  -4371340.57448  -3383054.48946  20850853.2424                   20850850.0864
   1171420.40247    933098.63043  23826394.9064                   23826394.1454
   5559467.22748   4341633.39845  21075313.0704                   21075310.1454
   2085717.57846   1641651.12944  23839626.1724                   23839626.5434
 11  8 22 16 32  0.0000000  0 11G03G06G07G08G10G13G16G19G11G23G28
   4589349.81347   3588018.64445  21695434.2974                   21695433.7384
   7390369.09846   5765212.14244  23644186.0784                   23644185.8914
  -7544601.90248  -5863167.47346  21456642.7734                   21456641.0274
  -8939283.27047  -6926238.98444  23216580.2584                   23216579.6954
   1056351.70746    828624.04643  24139223.9614                   24139225.4304
  -1389227.00847  -1059780.45346  20074629.8284                   20074628.0984
  10444467.53946   8135808.30143  24199162.0944                   24199160.4574
  -4478192.82847  -3466315.98946  20830519.8674                   20830516.7194
    980676.99247    784467.45943  23790098.3054                   23790097.4344
   5527335.99248   4316596.02045  21069198.8444                   21069195.7274
   1912992.58646   1507060.27844  23806757.8524                   23806758.5044
 11  8 22 16 32 30.0000000  0 11G03G06G07G08G10G13G16G19G11G23G28
   4552345.92647   3559184.42145  21688392.6954                   21688391.8484
   7366056.48046   5746267.16244  23639559.7974                   23639560.2194
  -7709581.54347  -5991723.02346  21425248.0944                   21425246.6174
  -9122362.25047  -7068897.90144  23181741.3444                   23181740.8284
    982415.27746    771011.16243  24125154.3284                   24125155.4774
  -1471377.49247  -1123793.84946  20058997.1094                   20058995.5554
  10419568.52746   8116406.45043  24194424.5004                   24194422.1564
  -4584511.40648  -3549161.64146  20810288.1094                   20810285.4804
    789838.80147    635762.41543  23753783.2114                   23753782.4184
   5495547.37547   4291825.61145  21063149.3524                   21063146.6454
   1740405.85946   1372577.19144  23773916.1094                   23773916.6214
 11  8 22 16 33  0.0000000  0 11G03G06G07G08G10G13G16G19G11G23G28
   4515706.68047   3530634.32345  21681420.2584                   21681419.6094
   7341946.83246   5727480.35844  23634971.4064                   23634972.5434
  -7874555.37547  -6120274.06046  21393854.3754                   21393853.2544
  -9305575.00047  -7211661.03544  23146877.6954                   23146876.5944
    908713.97346    713581.49543  24111130.1954                   24111130.8134
  -1553022.69947  -1187413.51946  20043460.3204                   20043458.8984
  10394514.63746   8096883.84043  24189657.1954                   24189654.6024
  -4690292.31648  -3631588.30746  20790158.8204                   20790155.8984
    598913.07447    486989.18043  23717450.8134                   23717450.3094
   5464102.79347   4267323.28844  21057165.6884                   21057162.8324
   1567961.49647   1238204.96444  23741100.7424                   23741101.5634
 11  8 22 16 33 30.0000000  0 11G03G06G07G08G10G13G16G19G11G23G28
   6054849.57447   4729966.41445  21974309.7664                   21974309.2584
   8893457.05946   6936449.30844  23930214.4924                   23930215.4654
  -6464097.68448  -5021216.12746  21662255.7814                   21662254.3834
  -7913495.84447  -6126923.99244  23411781.1804                   23411779.8594
   2410667.03546   1883934.44943  24396942.1334                   24396942.9264
    -58741.44147    -23038.54146  20327813.1174                   20327811.0664
  11944724.61346   9304839.56543  24484651.7894                   24484650.3634
  -3220113.57048  -2485994.48246  21069924.7034                   21069921.4024
   1983327.56347   1565753.78943  23980896.0864                   23980895.4104
   7008419.31347   5470686.75844  21351039.3754                   21351036.4104
   2971083.80946   2331547.06943  24008105.8594                   24008105.9304
 11  8 22 16 34  0.0000000  0 11G03G06G07G08G10G13G16G19G11G23G28
   6018933.26247   4701979.64445  21967475.1724                   21967474.6994
   8869746.99646   6917973.85744  23925702.3444                   23925703.6054
  -6629054.14547  -5149753.61946  21630865.3364                   21630863.8404
  -8096972.44547  -6269892.74544  23376866.2344                   23376865.4534
   2337430.93846   1826867.22443  24383005.1644                   24383007.0824
   -139376.12948    -85870.78446  20312468.8524                   20312466.6684
  11919359.77746   9285074.71243  24479825.2584                   24479824.1374
  -3324818.42248  -2567582.66946  21049999.8054                   21049996.9774
   1792235.98847   1416851.30843  23944533.0164                   23944532.1764
   6977657.07447   5446716.12444  21345185.1804                   21345182.3674
   2798925.08247   2197397.45343  23975345.2034                   23975344.5944
 11  8 22 16 34 30.0000000  0 11G03G06G07G08G10G13G16G19G11G23G28
   5983372.53548   4674269.95545  21960708.6024                   21960707.8244
   8846230.99246   6899649.66544  23921227.9144                   23921228.4494
  -6794002.12147  -5278284.49046  21599476.6024                   21599475.1294
  -8280582.18447  -6412965.24944  23341926.5084                   23341925.8094
   2264421.61746   1769976.73743  24369112.2034                   24369114.7384
   -219508.61747   -148311.70646  20297220.2424                   20297218.0554
  11893835.65646   9265185.63043  24474967.2584                   24474966.8244
  -3428987.59048  -2648753.45446  21030177.2344                   21030174.0164
   1601063.63347   1267885.83843  23908153.5394                   23908153.3364
   6947230.70347   5423007.18644  21339395.8284                   21339392.7734
   2626906.94946   2063357.41543  23942611.6484                   23942610.7624
 11  8 22 16 35  0.0000000  0 11G03G06G07G08G10G13G16G19G11G23G28
   5948164.60248   4646835.16345  21954008.9454                   21954008.3134
   8822906.28546   6881474.47544  23916789.3204                   23916789.7424
  -6958940.25847  -5406807.68246  21568090.4144                   21568088.4064
  -8464324.71547  -6556141.21144  23306961.7274                   23306960.4654
   2191636.38746   1713260.93343  24355262.0164                   24355263.4774
   -299139.59048   -210361.85046  20282066.8284                   20282064.8794
  11868151.08646   9245171.66143  24470080.0234                   24470079.8054
  -3532621.21548  -2729506.93846  21010456.4144                   21010453.2814
   1409813.26647   1118859.62343  23871759.6254                   23871759.3324
   6917137.32047   5399557.74944  21333669.0864                   21333666.3204
   2455029.00847   1929426.56643  23909903.7814                   23909902.9384
 11  8 22 16 35 30.0000000  0 11G03G06G07G08G10G13G16G19G11G23G28
   5913306.96547   4619673.32045  21947375.7344                   21947375.2074
   8799770.76246   6863446.74444  23912386.8524                   23912387.4534
  -7123866.80548  -5535321.87546  21536705.5554                   21536704.0204
  -8648198.53147  -6699419.51044  23271971.8054                   23271970.9494
   2119073.34846   1656718.23043  24341452.4454                   24341456.0354
   -378269.65248   -272021.65546  20267009.0634                   20267007.1954
  11842305.84845   9225032.49243  24465161.7194                   24465162.5824
  -3635719.17648  -2809843.00046  20990837.8204                   20990834.3754
   1218488.18846    969775.16743  23835351.5634                   23835351.6684
   6887375.25847   5376366.49744  21328005.5004                   21328002.8914
   2283291.25846   1795604.98343  23877223.0474                   23877221.3204
 11  8 22 16 36  0.0000000  0 11G03G06G07G08G10G13G16G19G11G23G28
   5878797.43447   4592782.74145  21940808.7734                   21940808.0704
   8776822.31646   6845564.77544  23908020.3914                   23908020.9804
  -7288779.93448  -5663825.60246  21505323.9844                   21505321.8754
  -8832202.39147  -6842799.11944  23236956.9224                   23236956.6844
   2046730.59845   1600347.19243  24327686.9144                   24327688.9734
   -456898.96548   -333291.28746  20252046.2894                   20252044.8204
  11816299.24246   9204767.47243  24460213.3834                   24460213.9264
  -3738281.50048  -2889761.70346  20971320.5634                   20971317.1374
   1027091.50846    820634.95943  23798929.8284                   23798929.9344
   6857942.34047   5353431.68344  21322404.6094                   21322402.2814
   2111694.49647   1661893.30743  23844569.3364                   23844567.8484
 11  8 22 16 36 30.0000000  0 11G03G06G07G08G10G13G16G19G11G23G28
   5844637.33647   4566164.44445  21934307.8754                   21934307.6134
   8754062.66446   6827829.93444  23903689.0944                   23903690.0314
  -7453674.48848  -5792314.85546  21473945.5084                   21473943.4884
  -9016332.18047  -6986276.84244  23201917.9454                   23201917.8204
   1974609.37546   1544148.69643  24313962.0784                   24313965.5634
   -535024.42648   -394168.29246  20237179.3524                   20237177.6414
  11790134.53546   9184379.35043  24455234.8754                   24455234.9414
  -3840304.40648  -2969260.07546  20951906.0474                   20951903.1024
    835630.08646    671444.23643  23762496.2814                   23762496.0824
   6828840.45347   5330754.85445  21316866.7584                   21316864.2154
   1940242.40247   1528294.31043  23811943.2034                   23811942.0904
 11  8 22 16 37  0.0000000  0 11G03G06G07G08G10G13G16G19G11G23G28
   5810829.89547   4539820.91445  21927874.5394                   21927874.4104
   8731495.11746   6810244.77344  23899394.5704                   23899395.6914
  -7618542.97348  -5920783.77946  21442572.0474                   21442569.9384
  -9200580.96947  -7129847.28244  23166856.7274                   23166856.3054
   1902712.98846   1488125.49043  24300281.9534                   24300283.5204
   -612640.73848   -454648.55546  20222409.6414                   20222408.0354
  11763816.56646   9163871.72343  24450226.9614                   24450226.6214
  -3941782.17248  -3048333.68046  20932595.5634                   20932592.7704
    644112.69546    522209.97143  23726051.4924                   23726051.3404
   6800072.93847   5308338.55845  21311392.7814                   21311390.1454
   1768940.82447   1394812.63243  23779344.8284                   23779345.2774
 11  8 22 16 37 30.0000000  0 11G03G06G07G08G10G13G16G19G11G23G28
   5777377.18047   4513753.82745  21921508.5164                   21921507.9574
   8709121.66046   6792810.84144  23895136.7894                   23895138.1174
  -7783379.77748  -6049228.03846  21411204.9454                   21411203.0514
  -9384943.74647  -7273506.57644  23131774.1174                   23131773.2154
   1831043.57846   1432279.16844  24286643.0234                   24286646.4104
   -689744.16848   -514729.17146  20207737.4924                   20207735.6454
  11737348.89847   9143247.54843  24445190.0164                   24445189.4804
  -4042710.60248  -3126979.20246  20913389.7194                   20913386.4534
    452546.87146    372937.86943  23689597.7894                   23689597.6214
   6771641.86347   5286184.42145  21305982.5554                   21305979.7274
   1597793.95347   1261451.45844  23746776.8444                   23746776.6724
 11  8 22 16 38  0.0000000  0 11G03G06G07G08G10G13G16G19G11G23G28
   5744280.11347   4487963.86844  21915210.1484                   21915209.8674
   8686943.35246   6775528.90943  23890916.7034                   23890917.2704
  -7948179.57048  -6177643.45946  21379844.1094                   21379842.5044
  -9569415.84047  -7417251.04045  23096669.5784                   23096669.7734
   1759602.30946   1376610.56543  24273048.8444                   24273050.9184
   -766331.95347   -574407.98946  20193163.2344                   20193161.6334
  11710734.07846   9122508.63243  24440126.5944                   24440124.9224
  -4143086.60948  -3205194.29246  20894288.6564                   20894285.5944
    260939.01646    223633.07443  23653136.2274                   23653135.2624
   6743548.59847   5264293.50945  21300636.4694                   21300633.7464
   1426805.24247   1128213.55044  23714239.1484                   23714238.9804
 11  8 22 16 38 30.0000000  0 11G03G06G07G08G10G13G16G19G11G23G28
   5711545.26647   4462456.14844  21908981.2114                   21908980.7344
   8664967.17646   6758404.59543  23886734.5704                   23886734.8284
  -8112931.65248  -6306021.69246  21348492.9844                   21348491.7234
  -9753987.14147  -7561072.81145  23061546.5394                   23061547.0044
   1688396.17646   1321125.14443  24259498.8364                   24259499.8284
   -842395.60547   -633678.39346  20178688.6174                   20178686.8484
  11683980.71946   9101661.79944  24435034.0004                   24435034.0474
  -4242900.80148  -3282971.58346  20875294.3444                   20875291.5744
     69301.20747     74304.94243  23616668.7584                   23616668.0594
   6715799.79348   5242671.02945  21295356.3444                   21295353.4574
   1255983.77747    995105.92044  23681732.6024                   23681732.9184
 11  8 22 16 39  0.0000000  0 11G03G06G07G08G10G13G16G19G11G23G28
   5679166.60247   4437225.95744  21902819.9694                   21902819.5554
   8643186.85946   6741432.81943  23882589.6484                   23882590.1454
  -8277638.06248  -6434364.34646  21317150.1954                   21317148.7814
  -9938660.54747  -7704974.13945  23026404.5704                   23026404.8444
   1617419.40246   1265818.55743  24245992.7194                   24245993.1414
   -917939.78548   -692544.00746  20164313.2894                   20164311.1884
  11657084.61346   9080703.74043  24429916.2814                   24429915.7544
  -4342157.67248  -3360314.60046  20856406.9384                   20856404.0004
   -122366.88347    -75046.77843  23580194.9614                   23580194.9804
   6688389.73848   5221312.48945  21290140.5314                   21290137.4144
   1085326.20347    862126.03743  23649257.2504                   23649257.6644
 11  8 22 16 39 30.0000000  0 11G03G06G07G08G10G13G16G19G11G23G28
   5647147.00447   4412275.55845  21896726.8984                   21896726.5164
   8621605.94146   6724616.45843  23878482.8054                   23878483.0784
  -8442291.52748  -6562665.74346  21285817.7274                   21285816.3014
 -10123429.71547  -7848950.10245  22991244.1254                   22991244.3484
   1546674.87147   1210692.82243  24232530.6804                   24232531.3404
   -992959.25048   -751000.75546  20150037.3754                   20150035.6884
  11630050.49246   9059638.12443  24424771.9304                   24424771.5274
  -4440851.58248  -3437218.95146  20837625.8984                   20837623.0514
   -314056.84447   -224415.54143  23543717.7274                   23543717.2704
   6661321.91047   5200220.61245  21284989.6884                   21284986.8054
    914837.58647    729277.79143  23616814.4304                   23616814.5744
 11  8 22 16 40  0.0000000  0 11G03G06G07G08G10G13G16G19G11G23G28
   5615481.23847   4387600.89645  21890701.3914                   21890700.8404
   8600219.34846   6707951.49343  23874413.3594                   23874413.4694
  -8606893.20748  -6690926.78946  21254495.2114                   21254493.9694
 -10308296.48847  -7993002.10545  22956065.2034                   22956065.5864
   1476157.76246   1155744.33343  24219111.1724                   24219112.2974
  -1067457.70747   -809051.52746  20135860.6954                   20135859.3674
  11602874.87146   9038462.21643  24419600.5394                   24419600.0084
  -4538985.18048  -3513686.67846  20818951.5864                   20818948.7464
   -505768.18447   -373800.99443  23507236.5164                   23507235.4384
   6634590.85247   5179391.17445  21279902.7734                   21279899.9734
    744515.38747    596559.19144  23584403.3984                   23584403.5044
 11  8 22 16 40 30.0000000  0 11G03G06G07G08G10G13G16G19G11G23G28
   7159589.79747   5590802.35245  22184535.4694                   22184535.5824
  10154447.19946   7919038.02243  24170174.0004                   24170174.0744
  -7196014.37547  -5591540.68646  21522976.5474                   21522975.1174
  -8917831.48447  -6909522.83644  23220661.9534                   23220662.0004
   2981289.77746   2328574.36043  24505528.3364                   24505529.7934
    433988.73447    360906.72346  20421576.5474                   20421574.9534
  13150979.84846  10244777.73943  24714195.3594                   24714195.0554
  -3061134.52048  -2362114.73146  21100177.3594                   21100174.2734
    877930.32447    704405.66743  23770545.6884                   23770544.7664
   8183617.24647   6386424.66044  21574672.8834                   21574670.2384
   2149787.12147   1691576.14643  23851818.3834                   23851818.2034
 11  8 22 16 41  0.0000000  0 11G03G06G07G08G10G13G16G19G11G23G28
   7128629.91047   5566677.72145  22178643.8984                   22178644.1524
  10133447.78146   7902674.80744  24166178.0164                   24166179.1844
  -7360502.10247  -5719712.94146  21491675.5234                   21491674.3364
  -9102884.25447  -7053719.78144  23185447.7194                   23185447.6054
   2911225.77047   2273978.96943  24492195.8754                   24492196.8984
    360535.97747    303670.78446  20407599.0004                   20407597.5124
  13123525.12246  10223384.41143  24708970.1094                   24708970.3164
  -3158144.18748  -2437706.66846  21081717.1644                   21081713.8164
    686190.91847    554998.39043  23734058.5704                   23734057.7074
   8157559.12547   6366119.59744  21569713.7274                   21569711.4384
   1979802.97347   1559121.00544  23819470.6094                   23819471.1994
 11  8 22 16 41 30.0000000  0 11G03G06G07G08G10G13G16G19G11G23G28
   7098025.14847   5542829.81845  22172820.3364                   22172819.9494
  10112644.57447   7886464.47144  24162219.5554                   24162220.1724
  -7524924.05548  -5847833.93346  21460387.1954                   21460385.2704
  -9288022.38747  -7197983.20744  23150217.2424                   23150216.5664
   2841390.90646   2219562.16743  24478906.9774                   24478908.3284
    287610.96947    246846.07446  20393721.9924                   20393720.2504
  13095936.21946  10201886.53143  24703720.4304                   24703720.5594
  -3254585.76648  -2512855.93746  21063364.3594                   21063361.5984
    494448.64547    405588.87143  23697571.5314                   23697570.1884
   8131840.22347   6346078.82044  21564820.3054                   21564817.2544
   1809994.30147   1426802.61144  23787157.1884                   23787157.0664
 11  8 22 16 42  0.0000000  0 11G03G06G07G08G10G13G16G19G11G23G28
   7067779.50847   5519261.74745  22167064.2504                   22167064.0664
  10092041.86347   7870410.35644  24158298.9144                   24158300.1524
  -7689272.01248  -5975897.25946  21429112.6564                   21429110.8984
  -9473238.35247  -7342307.33644  23114971.4694                   23114970.8554
   2771789.55147   2165327.24343  24465661.3524                   24465663.3054
    215219.07847    190436.79046  20379946.1724                   20379944.3554
  13068218.74245  10180288.37142  24698446.4064                   24698445.4264
  -3350453.59848  -2587558.12846  21045121.8054                   21045118.8054
    302712.79747    256184.38444  23661085.5554                   23661084.6294
   8106464.49247   6326305.46344  21559991.2584                   21559988.3134
   1640367.13347   1294625.63644  23754878.5704                   23754878.0354
 11  8 22 16 42 30.0000000  0 11G03G06G07G08G10G13G16G19G11G23G28
   7037894.07047   5495974.35944  22161377.1414                   22161377.0434
  10071640.75847   7854513.36544  24154416.5634                   24154417.4734
  -7853541.03148  -6103899.09146  21397853.7584                   21397851.4924
  -9658528.03147  -7486688.85944  23079712.1644                   23079711.2664
   2702422.41046   2111274.89244  24452461.7974                   24452463.8754
    143363.13348    134445.12646  20366272.5864                   20366270.8914
  13040375.27746  10158592.03942  24693147.9304                   24693145.8134
  -3445744.61748  -2661810.85546  21026988.0704                   21026985.2034
    110989.73847    106789.80944  23624601.4924                   23624600.5514
   8081432.84047   6306800.21044  21555227.8444                   21555224.7974
   1470924.94547   1162592.83444  23722634.7894                   23722634.1374
 11  8 22 16 43  0.0000000  0 11G03G06G07G08G10G13G16G19G11G23G28
   7008371.12547   5472969.41644  22155759.6414                   22155758.7544
  10051444.10946   7838775.75344  24150573.7034                   24150573.7974
  -8017724.50048  -6231834.24846  21366610.4144                   21366608.3794
  -9843885.11747  -7631122.92644  23044439.3674                   23044439.0704
   2633292.15247   2057407.10443  24439307.0784                   24439308.4224
     72047.13348     78874.19146  20352701.5164                   20352699.7934
  13012410.74646  10136801.47342  24687826.8524                   24687824.0704
  -3540454.06648  -2735610.41346  21008965.7194                   21008962.3914
    -80711.97747    -42588.08644  23588122.2114                   23588120.9694
   8056748.05547   6287565.24344  21550530.6564                   21550527.9304
   1301672.73047   1030708.00844  23690426.8674                   23690425.4414
 11  8 22 16 43 30.0000000  0 11G03G06G07G08G10G13G16G19G11G23G28
   6979214.49647   5450249.92545  22150211.2734                   22150209.9614
  10031455.60946   7823200.22643  24146769.3134                   24146769.2274
  -8181814.07848  -6359696.23746  21335385.2194                   21335383.2734
 -10029302.12947  -7775603.65644  23009156.1254                   23009155.2584
   2564402.67246   2003726.94544  24426197.1024                   24426200.0984
      1276.77047     23728.42145  20339234.3754                   20339232.5634
  12984330.73046  10114920.87542  24682484.2664                   24682481.4454
  -3634575.95348  -2808952.14546  20991054.4534                   20991051.3164
   -272383.19947   -191942.25043  23551647.8754                   23551647.0084
   8032414.10947   6268603.67244  21545900.0004                   21545896.8984
   1132616.85547    898976.23344  23658256.6644                   23658255.4184
 11  8 22 16 44  0.0000000  0 11G03G06G07G08G10G13G16G19G11G23G28
   6950426.64547   5427817.76144  22144733.3754                   22144732.1524
  10011678.25046   7807789.22943  24143005.9064                   24143006.0354
  -8345803.10948  -6487479.88646  21304179.1564                   21304177.3164
 -10214773.04747  -7920126.43144  22973862.4614                   22973861.1294
   2495757.10547   1950236.82544  24413134.6954                   24413136.5204
    -68944.03948    -30989.11645  20325871.7734                   20325870.5164
  12956139.75446  10092953.89142  24677118.8364                   24677117.1524
  -3728105.87148  -2881832.59346  20973256.6174                   20973253.1914
   -464015.28147   -341265.90844  23515181.4774                   23515180.3134
   8008434.32047   6249918.02944  21541336.9774                   21541333.8404
    963762.18447    767401.19344  23626124.3284                   23626123.5204
 11  8 22 16 44 30.0000000  0 11G03G06G07G08G10G13G16G19G11G23G28
   6922009.83647   5405674.74344  22139325.8524                   22139324.6254
   9992114.22746   7792544.55543  24139282.9144                   24139284.1644
  -8509685.18748  -6615180.18346  21272993.3444                   21272991.7234
 -10400292.05947  -8064686.67544  22938558.8444                   22938558.1994
   2427357.40647   1896938.32843  24400119.1024                   24400120.7344
   -138611.57848    -85275.52645  20312614.4694                   20312613.1414
  12927841.89146  10070903.61743  24671734.0394                   24671733.0824
  -3821039.55948  -2954248.44646  20955571.9384                   20955568.7854
   -655600.81647   -490553.31344  23478723.3134                   23478722.9964
   7984810.99247   6231510.20344  21536841.3444                   21536838.8404
    795113.30147    635986.52244  23594031.9064                   23594031.5554
 11  8 22 16 45  0.0000000  0 11G03G06G07G08G10G13G16G19G11G23G28
   6893965.06647   5383821.60245  22133988.9924                   22133988.6954
   9972765.34846   7777467.44743  24135601.0474                   24135601.9574
  -8673454.70348  -6742792.77846  21241829.1564                   21241827.1644
 -10585854.07847  -8209280.43044  22903247.7734                   22903247.1604
   2359205.46946   1843832.82243  24387149.2274                   24387151.5234
   -207722.89848   -139128.51945  20299463.0784                   20299461.7384
  12899440.36346  10048772.42343  24666329.2114                   24666329.3324
  -3913373.99248  -3026197.36246  20938001.2894                   20937998.3754
   -847132.51247   -639798.76044  23442276.7814                   23442275.8364
   7961545.02047   6213380.79744  21532414.1174                   21532411.6844
    626673.80947    504735.01744  23561978.5394                   23561978.2304
 11  8 22 16 45 30.0000000  0 11G03G06G07G08G10G13G16G19G11G23G28
   6866298.30147   5362263.04945  22128724.7424                   22128723.6334
   9953637.43046   7762562.48143  24131960.5474                   24131961.5594
  -8837101.81248  -6870310.00946  21210687.6804                   21210686.3134
 -10771449.53547  -8353900.24644  22867930.2734                   22867929.4064
   2291306.89146   1790924.79043  24374228.8754                   24374230.6994
   -276270.62947   -192542.36445  20286419.0394                   20286417.1684
  12870943.05146  10026566.69943  24660906.7664                   24660906.6954
  -4005101.39548  -3097673.26746  20920546.3444                   20920543.1524
  -1038599.02747   -788993.41344  23405841.5634                   23405841.4614
   7938642.58647   6195534.66944  21528056.3284                   21528053.8444
    458452.16047    373653.25044  23529967.4614                   23529967.5784
 11  8 22 16 46  0.0000000  0 11G03G06G07G08G10G13G16G19G11G23G28
   6839007.70347   5340997.60245  22123530.8054                   22123531.0634
   9934729.09846   7747828.59943  24128363.4384                   24128364.1174
  -9000623.84048  -6997729.77546  21179570.8444                   21179569.8834
 -10957077.05147  -8498545.02744  22832606.6094                   22832605.8794
   2223659.72346   1738212.61443  24361356.1724                   24361356.5474
   -344255.20747   -245517.37145  20273481.8054                   20273480.3204
  12842350.09046  10004286.48543  24655466.0164                   24655465.2504
  -4096221.23448  -3168675.75846  20903206.5864                   20903203.8404
  -1229996.23447   -938134.05644  23369419.8284                   23369419.6994
   7916102.07847   6177970.59245  21523766.8754                   21523764.2074
    290448.82447    242741.60944  23497996.9304                   23497997.0704
 11  8 22 16 46 30.0000000  0 11G03G06G07G08G10G13G16G19G11G23G28
   6812094.66047   5320026.35645  22118409.5164                   22118409.3834
   9916042.12146   7733267.23743  24124807.8834                   24124807.6214
  -9164014.71148  -7125047.33746  21148478.4064                   21148477.3364
 -11142731.16047  -8643210.52644  22797277.5784                   22797276.2424
   2156265.78546   1685697.77743  24348532.2734                   24348531.2664
   -411673.40247   -298051.05645  20260652.6724                   20260650.8874
  12813665.10946   9981934.49743  24650007.3834                   24650007.2854
  -4186730.24248  -3239202.25846  20885983.3524                   20885980.3324
  -1421317.32847  -1087215.38244  23333013.1644                   23333012.0594
   7893924.74247   6160689.50444  21519545.9534                   21519543.8444
    122667.77347    112003.15944  23466068.9694                   23466069.3444
 11  8 22 16 47  0.0000000  0 11G03G06G07G08G10G13G16G19G11G23G28
   6785560.00447   5299349.96645  22113360.0554                   22113360.0984
   9897577.68046   7718879.32644  24121293.5394                   24121293.5124
  -9327269.23848  -7252258.65646  21117412.1884                   21117410.9774
 -11328407.16447  -8787893.11144  22761944.3524                   22761943.5904
   2089126.27346   1633381.20843  24335755.7424                   24335755.1994
   -478522.95747   -350141.64245  20247931.3754                   20247930.2774
  12784891.42646   9959513.37543  24644531.7424                   24644531.5314
  -4276625.66848  -3309250.66146  20868877.0314                   20868873.7584
  -1612555.32447  -1236231.95644  23296621.6484                   23296620.8014
   7872112.16047   6143692.60844  21515396.0704                   21515393.4304
    -44887.65247    -18559.47444  23434184.3054                   23434184.6684
 11  8 22 16 47 30.0000000  0 11G03G06G07G08G10G13G16G19G11G23G28
   8334826.19147   6506570.31845  22408175.8674                   22408175.0554
  11454757.85247   8932266.36543  24417615.9144                   24417615.0594
  -7914956.50048  -6151755.23146  21386166.4694                   21386165.1524
  -9938674.04347  -7704984.16144  23026401.9614                   23026401.2664
   3597665.10546   2808865.98643  24622821.7894                   24622820.5824
   1030621.19147    825814.81645  20535111.9064                   20535110.6644
  14331453.18046  11164626.38844  24938832.6804                   24938832.9264
  -2790481.24248  -2151216.06246  21151680.8054                   21151677.7074
   -228276.70747   -157573.24544  23560040.8204                   23560040.4144
   9426086.34847   7354581.57144  21811107.5394                   21811104.7814
   1363211.82447   1078660.98444  23702137.0164                   23702136.6524
 11  8 22 16 48  0.0000000  0 11G03G06G07G08G10G13G16G19G11G23G28
   8309051.47747   6486486.04944  22403271.4614                   22403270.6174
  11436741.77347   8918227.84443  24414186.7274                   24414186.7344
  -8077922.94148  -6278742.07646  21355154.8914                   21355153.3874
 -10124380.29747  -7849690.33344  22991063.1644                   22991062.4804
   3531037.90646   2756948.58743  24610142.3914                   24610142.8714
    964916.28947    774616.17145  20522609.0234                   20522607.7074
  14302510.34446  11142073.44843  24933324.9924                   24933325.0784
  -2879140.97348  -2220301.57546  21134809.5234                   21134806.1214
   -419328.29747   -306444.55644  23523685.0634                   23523684.2734
   9405006.18047   7338155.40144  21807095.7814                   21807093.7774
   1196117.52347    948457.66744  23670339.7584                   23670339.7194
 11  8 22 16 48 30.0000000  0 11G03G06G07G08G10G13G16G19G11G23G28
   8283654.95747   6466696.51044  22398438.9144                   22398438.3674
  11418948.60947   8904363.01043  24410801.7114                   24410801.1844
  -8240740.44148  -6405612.85646  21324171.9774                   21324170.5204
 -10310097.89547  -7994405.30144  22955722.1954                   22955721.8594
   3464665.41846   2705229.61843  24597511.7584                   24597514.0824
    899784.07447    723863.75445  20510214.9144                   20510213.5704
  14273484.42246  11119455.80143  24927801.3984                   24927801.3794
  -2967181.90648  -2288904.92446  21118055.6884                   21118052.8524
   -610279.87147   -455237.94144  23487347.9304                   23487347.3054
   9384290.77047   7322013.46744  21803154.0234                   21803151.6054
   1029255.95347    818435.68444  23638587.5784                   23638586.7234
 11  8 22 16 49  0.0000000  0 11G03G06G07G08G10G13G16G19G11G23G28
   8258635.55947   6447200.82944  22393677.8364                   22393677.3714
  11401377.71147   8890671.36543  24407458.0554                   24407457.6484
  -8403405.56648  -6532364.89946  21293217.5864                   21293215.7974
 -10495824.02347  -8139126.94744  22920379.2504                   22920379.6174
   3398546.35946   2653708.22643  24584929.8054                   24584932.8324
    835225.12147    673558.05545  20497929.4924                   20497927.6524
  14244376.62946  11096774.35943  24922263.1954                   24922262.0314
  -3054603.14148  -2357025.37646  21101420.1644                   21101416.9884
   -801126.72347   -603949.73944  23451030.6564                   23451030.5554
   9363939.29747   7306155.13244  21799281.4614                   21799278.8754
    862628.52047    688596.18044  23606878.8984                   23606878.7034
 11  8 22 16 49 30.0000000  0 11G03G06G07G08G10G13G16G19G11G23G28
   8233990.79347   6427997.04644  22388987.6254                   22388987.8554
  11384027.22346   8877151.42043  24404156.4224                   24404156.2154
  -8565916.09048  -6658996.47246  21262292.9774                   21262291.0274
 -10681556.86347  -8283853.82744  22885035.5864                   22885035.8794
   3332678.68846   2602382.63043  24572396.1954                   24572398.0354
    771238.27347    623698.15045  20485753.2194                   20485751.5274
  14215186.59446  11074028.76743  24916707.9534                   24916707.1214
  -3141405.09448  -2424663.27746  21084901.7664                   21084899.1134
   -991865.14847   -752577.06244  23414734.6334                   23414734.1724
   9343949.49247   7290578.61344  21795477.4924                   21795474.8984
    696234.90647    558938.88844  23575214.8444                   23575215.4654
 11  8 22 16 50  0.0000000  0 10G03G06G07G08G10G13G19G11G23G28
   8209715.61747   6409081.24644  22384368.3444                   22384368.2154
  11366892.01646   8863799.32043  24400894.9224                   24400895.4574
  -8728272.68748  -6785508.10046  21231397.5864                   21231395.6374
 -10867297.65647  -8428586.86744  22849690.2974                   22849690.3794
   3267057.55146   2551249.27443  24559908.2504                   24559911.1764
    707819.83647    574281.17645  20473685.4384                   20473683.3634
  -3227591.21547  -2491821.31146  21068501.3284                   21068498.4224
  -1182494.59847   -901119.39744  23378459.0084                   23378458.8364
   9324316.36347   7275279.99544  21791741.6414                   21791738.6134
    530072.56647    429461.80444  23543595.3054                   23543595.7734
 11  8 22 16 50 30.0000000  0 10G03G06G07G08G10G13G19G11G23G28
   8185805.75047   6390450.12844  22379818.7194                   22379818.5044
  11349968.44146   8850612.00543  24397673.4614                   24397674.6564
  -8890475.44548  -6911899.85846  21200531.1174                   21200529.4844
 -11053047.15647  -8573326.74244  22814342.9534                   22814343.4494
   3201679.21146   2500304.97543  24547467.7584                   24547470.4774
    644967.04347    525304.92745  20461724.9694                   20461723.3714
  -3313163.95747  -2558501.36146  21052217.3594                   21052214.3874
  -1373013.29347  -1049575.51344  23342204.6644                   23342204.4144
   9305035.79747   7260256.12344  21788072.6414                   21788070.2344
    364139.95347    300163.68744  23512019.6174                   23512019.8244
 11  8 22 16 51  0.0000000  0 10G03G06G07G08G10G13G19G11G23G28
   8162270.88747   6372111.21244  22375340.1414                   22375339.5274
  11333266.55146   8837597.45743  24394496.0314                   24394497.1844
  -9052510.13748  -7038160.65946  21169697.0474                   21169695.1334
 -11238791.77047  -8718062.78744  22778996.8594                   22778996.7974
   3136553.25446   2449557.43543  24535074.4694                   24535077.2274
    582690.96147    476778.10645  20449874.1334                   20449873.0314
  -3398111.75447  -2624694.44646  21036052.2424                   21036049.3014
  -1563405.99247  -1197933.40044  23305973.7344                   23305973.4804
   9286117.66047   7245514.62744  21784472.5634                   21784470.1764
    198448.99647    171053.90944  23480489.6094                   23480489.5984
 11  8 22 16 51 30.0000000  0 10G03G06G07G08G10G13G19G11G23G28
   8139110.17646   6354063.84344  22370933.0004                   22370932.2854
  11316785.18846   8824754.77443  24391359.3754                   24391360.7934
  -9214373.35548  -7164287.84146  21138895.2114                   21138893.6094
 -11424528.68047  -8862792.83044  22743653.1334                   22743652.2234
   3071678.48046   2399005.62143  24522729.3204                   24522732.3834
    520992.15647    428701.07045  20438133.2974                   20438132.5204
  -3482434.08247  -2690400.15246  21020006.0784                   21020003.5514
  -1753667.76247  -1346189.27744  23269767.9064                   23269767.7234
   9267560.98047   7231054.80744  21780941.5164                   21780939.0704
     33000.61347     42133.06844  23449006.3364                   23449005.8094
 11  8 22 16 52  0.0000000  0 10G03G06G07G08G10G13G19G11G23G28
   8116314.09846   6336300.60344  22366594.3984                   22366594.4734
  11300515.58546   8812077.13543  24388264.2114                   24388264.4384
  -9376069.92648  -7290285.16646  21108125.5784                   21108123.6914
 -11610263.46547  -9007521.21644  22708308.9224                   22708308.0704
   3007045.78546   2348642.37543  24510430.5164                   24510433.3484
    459861.86347    381067.04545  20426500.8754                   20426499.4454
  -3566138.76647  -2755624.57646  21004077.8754                   21004074.8324
  -1943802.37147  -1494346.07744  23233586.8284                   23233586.4654
   9249356.57447   7216869.45844  21777477.2194                   21777474.6604
   -132211.79747    -86603.82044  23417567.3204                   23417566.9774
 11  8 22 16 52 30.0000000  0 10G03G06G07G08G10G13G19G11G23G28
   8093876.77047   6318816.92044  22362324.7114                   22362324.9964
  11284452.61346   8799560.44843  24385207.3364                   24385208.4144
  -9537601.03948  -7416153.57646  21077387.2894                   21077385.7034
 -11795997.89147  -9152249.31144  22672964.8984                   22672964.1254
   2942649.96146   2298463.76443  24498176.0944                   24498179.7854
    399295.92247    333872.77745  20414975.0164                   20414973.7424
  -3649229.49648  -2820370.58746  20988266.5944                   20988263.3834
  -2133809.41047  -1642403.49544  23197429.3834                   23197429.2894
   9231498.88747   7202954.31544  21774079.0634                   21774076.6214
   -297191.52347   -215159.42444  23386172.4614                   23386172.2774
 11  8 22 16 53  0.0000000  0 10G03G06G07G08G10G13G19G11G23G28
   8071793.79747   6301609.36745  22358123.0554                   22358122.9774
  11268591.55546   8787201.14143  24382190.0634                   24382189.8914
  -9698967.06248  -7541893.35246  21046680.3834                   21046679.0204
 -11981732.93047  -9296977.87945  22637620.6484                   22637619.8914
   2878485.87546   2248465.68043  24485966.5944                   24485969.5274
    339290.83247    287115.52945  20403556.6094                   20403554.3364
  -3731709.60547  -2884640.80246  20972571.0474                   20972568.3014
  -2323687.91847  -1790360.70544  23161296.6484                   23161296.4304
   9213982.87947   7189305.40944  21770746.5084                   21770743.4344
   -461941.25047   -343535.81644  23354821.3984                   23354821.3834
 11  8 22 16 53 30.0000000  0 10G03G06G07G08G10G13G19G11G23G28
   8050062.58647   6284675.93844  22353988.0314                   22353987.9804
  11252930.33646   8774997.50543  24379209.4534                   24379209.8054
  -9860166.28548  -7667503.13146  21016005.0314                   21016003.9344
 -12167467.03547  -9441705.74344  22602276.7344                   22602275.5164
   2814551.53546   2198646.62443  24473800.0864                   24473803.7504
    279845.49247    240794.45745  20392244.4614                   20392242.2584
  -3813579.75048  -2948435.71746  20956991.5164                   20956988.7664
  -2513434.46947  -1938215.16544  23125189.8364                   23125189.0084
   9196806.44547   7175921.08444  21767477.3594                   21767474.9964
   -626460.67647   -471732.73444  23323514.6414                   23323514.5394
 11  8 22 16 54  0.0000000  0 10G03G06G07G08G10G13G19G11G23G28
   9604099.18047   7495613.50844  22649711.6254                   22649711.7894
  12812885.63346   9990546.98043  24676059.3444                   24676059.8794
  -8445772.67248  -6565378.25146  21285155.4534                   21285153.8404
 -10777774.29347  -8358828.25244  22866726.1804                   22866725.7774
   4326265.24646   3376605.24643  24761469.7814                   24761472.3284
   1796378.71947   1422508.64045  20680831.2194                   20680828.8714
  -2319420.14848  -1784155.50846  21241320.8594                   21241317.7624
  -1127620.98047   -858360.41944  23388900.5314                   23388900.6954
  10755386.12547   8390398.71544  22064064.7894                   22064062.1994
    784673.61347    627852.48244  23592044.3834                   23592044.2424
 11  8 22 16 54 30.0000000  0 10G03G06G07G08G10G13G19G11G23G28
   9583059.55547   7479218.97144  22645707.0864                   22645707.2854
  12797614.12946   9978647.03443  24673153.1414                   24673154.0474
  -8606635.19548  -6690725.67546  21254544.4224                   21254542.5744
 -10963505.70747  -8503554.00944  22831382.6174                   22831381.8714
   4262779.70346   3327135.89643  24749389.1804                   24749391.3914
   1738045.30147   1377053.99845  20669730.8754                   20669729.4184
  -2400077.15648  -1847005.13646  21225972.6334                   21225969.3834
  -1317097.09847  -1006004.13144  23352844.6254                   23352844.5234
  10738878.15647   8377535.30144  22060923.5944                   22060921.2934
    620610.27047    500010.96144  23560824.1644                   23560824.2624
 11  8 22 16 55  0.0000000  0 10G03G06G07G08G10G13G19G11G23G28
   9562365.83247   7463093.91044  22641769.0704                   22641769.2664
  12782538.02746   9966899.37743  24670284.2734                   24670285.0784
  -8767322.56648  -6815936.61246  21223966.6804                   21223964.9614
 -11149229.89147  -8648274.15445  22796041.0084                   22796040.0634
   4199518.59446   3277841.37843  24737350.8444                   24737353.0824
   1680269.69147   1332034.00245  20658736.4304                   20658735.3634
  -2480125.07848  -1909380.14546  21210739.9694                   21210736.3094
  -1506429.18747  -1153535.59744  23316815.8134                   23316815.3874
  10722704.47747   8364932.40944  22057845.8914                   22057844.0394
    456778.64847    372349.99344  23529647.8054                   23529647.5904
 11  8 22 16 55 30.0000000  0 10G03G06G07G08G10G13G19G11G23G28
   9542013.71547   7447235.08644  22637896.5394                   22637896.3524
  12767653.24246   9955300.76543  24667450.8364                   24667451.8014
  -8927834.69948  -6941011.00446  21193422.2664                   21193420.4264
 -11334947.39847  -8792989.06744  22760699.4384                   22760699.3164
   4136477.69146   3228718.53043  24725354.6484                   24725357.0824
   1623048.60548   1287446.10045  20647847.7584                   20647847.2464
  -2559566.88348  -1971282.86746  21195622.4694                   21195619.2274
  -1695615.65247  -1300953.62044  23280815.2194                   23280814.9884
  10706860.87947   8352586.69344  22054831.7664                   22054829.6414
    293176.79747    244868.09244  23498515.0004                   23498515.3794
 11  8 22 16 56  0.0000000  0 10G03G06G07G08G10G13G19G11G23G28
   9522001.57447   7431641.15944  22634089.1564                   22634088.2034
  12752958.51246   9943850.28843  24664654.9144                   24664655.5664
  -9088169.02748  -7065946.83946  21162911.4534                   21162909.8404
 -11520656.00847  -8937697.06445  22725360.1954                   22725360.2274
   4073655.28946   3179765.86043  24713400.2974                   24713402.1764
   1566381.44548   1243289.84945  20637064.5164                   20637063.5944
  -2638402.82448  -2032713.48446  21180620.7344                   21180617.0044
  -1884652.35947  -1448254.91544  23244842.2504                   23244842.3524
  10691345.71147   8340496.84844  22051879.0784                   22051876.7814
    129804.75847    117565.22744  23467426.7344                   23467426.5904
 11  8 22 16 56 30.0000000  0 10G03G06G07G08G10G13G19G11G23G28
   9502326.10247   7416309.53044  22630344.8054                   22630344.5274
  12738451.26246   9932545.86342  24661894.3674                   24661894.0084
  -9248323.40648  -7190742.44646  21132435.0314                   21132433.5784
 -11706354.56247  -9082397.21345  22690022.9694                   22690022.7234
   4011048.71146   3130981.41743  24701487.0474                   24701489.1684
   1510266.37147   1199563.77445  20626385.9774                   20626385.0124
  -2716634.13348  -2093672.95646  21165733.7114                   21165730.5274
  -2073536.43447  -1595437.30644  23208898.7814                   23208898.3324
  10676156.00447   8328660.64344  22048988.9534                   22048985.9734
    -33337.66447     -9558.66144  23436381.5784                   23436382.0124
 11  8 22 16 57  0.0000000  0 10G03G06G07G08G10G13G19G11G23G28
   9482984.94147   7401238.48444  22626663.9304                   22626663.4924
  12724129.50046   9921386.03542  24659169.2664                   24659168.7344
  -9408295.96548  -7315396.39246  21101993.3444                   21101991.5434
 -11892041.57447  -9227088.38545  22654688.1484                   22654687.8714
   3948655.69546   3082363.38343  24689614.3524                   24689616.2464
   1454702.00048   1156266.82345  20615812.4304                   20615810.8794
  -2794261.43748  -2154161.78946  21150961.6414                   21150958.2304
  -2262264.49246  -1742498.07844  23172984.9534                   23172984.6844
  10661289.37147   8317076.18444  22046159.7814                   22046157.2584
   -196249.86747   -136503.22444  23405381.0084                   23405380.1684
 11  8 22 16 57 30.0000000  0 10G03G06G07G08G10G13G19G11G23G28
   9463975.94547   7386426.25544  22623046.5394                   22623047.0204
  12709990.89146   9910368.88342  24656478.0394                   24656478.4734
  -9568084.69548  -7439907.08746  21071586.3444                   21071584.6724
 -12077715.38747  -9371769.26445  22619355.1484                   22619354.9304
   3886473.79746   3033909.81643  24677781.5474                   24677783.8404
   1399687.30947   1113398.21645  20605343.6414                   20605341.6804
  -2871286.78548  -2214181.56146  21136304.0084                   21136300.3284
  -2450833.09047  -1889434.65344  23137101.5554                   23137101.0164
  10646743.38347   8305741.56244  22043392.0474                   22043388.8204
   -358933.02347   -263269.25644  23374423.2814                   23374422.7584
 11  8 22 16 58  0.0000000  0 10G03G06G07G08G10G13G19G11G23G28
   9445300.36747   7371873.78944  22619492.7194                   22619492.9064
  12696037.03546   9899495.70742  24653823.9144                   24653823.8754
  -9727684.06648  -7564270.23546  21041215.6644                   21041214.1254
 -12263371.05147  -9516436.01745  22584026.1174                   22584025.9774
   3824503.91846   2985621.55743  24665988.9614                   24665991.3674
   1345223.73447   1070959.03945  20594979.9384                   20594977.7504
  -2947707.22348  -2273729.97746  21121761.5634                   21121758.3714
  -2639235.46947  -2036241.69244  23101250.1484                   23101249.5514
  10632519.09847   8294657.64244  22040685.1414                   22040682.1254
   -521383.73847   -389854.18544  23343509.7894                   23343509.4534
 11  8 22 16 58 30.0000000  0 10G03G06G07G08G10G13G19G11G23G28
   9426953.30547   7357577.32344  22616001.3204                   22616001.3794
  12682264.02746   9888763.41842  24651202.6094                   24651203.3524
  -9887093.63748  -7688485.48446  21010881.0864                   21010879.0664
 -12449008.63347  -9661088.66245  22548700.4454                   22548700.4224
   3762742.32446   2937495.52843  24654236.0634                   24654239.3134
   1291308.52048   1028947.14445  20584719.9064                   20584718.4064
  -3023525.46948  -2332809.14446  21107333.6884                   21107330.4964
  -2827469.64147  -2182917.63344  23065430.2664                   23065429.9304
  10618612.66847   8283821.37044  22038039.2034                   22038036.0514
   -683603.74247   -516259.36544  23312639.9614                   23312639.6994
 11  8 22 16 59  0.0000000  0 10G03G06G07G08G10G13G19G11G23G28
   9408932.12147   7343534.81244  22612572.6884                   22612572.4574
  12668669.82446   9878170.44443  24648616.0394                   24648616.7114
 -10046311.16448  -7812551.09746  20980583.0314                   20980581.5864
 -12634626.41447  -9805725.89945  22513378.6094                   22513378.5474
   3701186.62946   2889529.93543  24642521.6804                   24642525.4654
   1237940.24648    987361.43945  20574564.4534                   20574563.0084
  -3098742.91048  -2391420.17146  21093020.7504                   21093017.2734
  -3015532.20346  -2329459.87144  23029643.0944                   23029642.6764
  10605021.36747   8273230.65144  22035452.1644                   22035450.3524
   -845593.09447   -642484.77944  23281814.5234                   23281814.3134
 11  8 22 16 59 30.0000000  0 10G03G06G07G08G10G13G19G11G23G28
   9391234.18447   7329744.18244  22609204.5634                   22609205.0234
  12655251.75446   9867714.86643  24646062.9844                   24646062.9224
 -10205335.17248  -7936465.90746  20950321.8754                   20950320.0784
 -12820223.58647  -9950347.07245  22478060.6484                   22478060.5164
   3639834.00446   2841722.58243  24630847.4534                   24630850.0634
   1185116.56647    946200.09345  20564511.9304                   20564510.9264
  -3173360.84048  -2449564.03746  21078821.2734                   21078817.9884
  -3203420.49647  -2475866.31244  22993889.1954                   22993888.3054
  10591742.02747   8262883.04043  22032925.3914                   22032922.8634
  -1007352.71547   -768531.21044  23251032.5084                   23251032.2854
 11  8 22 17  0  0.0000000  0 10G03G06G07G08G10G13G19G11G23G28
   9373853.94547   7316201.07344  22605897.3204                   22605897.9384
  12642004.61646   9857392.40243  24643541.8364                   24643542.0984
 -10364167.05948  -8060231.01846  20920097.2194                   20920095.5354
 -13005801.81647 -10094953.47645  22442746.4774                   22442746.0474
   3578678.46946   2794068.83743  24619209.7504                   24619212.6414
   1132832.83248    905459.48845  20554563.0634                   20554561.6724
  -3247383.73048  -2507244.23646  21064735.1564                   21064732.4344
  -3391134.17247  -2622136.68044  22958167.6024                   22958167.5234
  10578769.34446   8252774.39644  22030456.7584                   22030454.6524
  -1168885.78547   -894401.11544  23220293.9614                   23220293.1954
 11  8 22 17  0 30.0000000  0 10G03G06G07G08G10G13G19G11G23G28
   9356783.26647   7302899.15544  22602649.4694                   22602649.5944
  12628920.91446   9847197.20543  24641052.0704                   24641052.5434
 -10522809.49248  -8183848.50046  20889908.5164                   20889906.6564
 -13191364.64147 -10239547.85845  22407435.1414                   22407434.8984
   3517712.59846   2746562.84143  24607608.7974                   24607611.5274
   1081082.59048    865134.60446  20544715.1174                   20544713.9654
  -3320818.15648  -2564465.89946  21050761.1334                   21050758.4264
  -3578675.17646  -2768272.47544  22922480.6644                   22922479.5984
  10566095.24647   8242898.36944  22028044.8674                   22028042.9064
  -1330198.09447  -1020098.98644  23189597.3134                   23189596.7234
 11  8 22 17  1  0.0000000  0 10G03G06G07G08G10G13G19G11G23G28
  10915435.41847   8517433.24944  22899251.1484                   22899250.6484
  14191414.21146  11064724.39443  24938385.0314                   24938385.0904
  -9105840.04348  -7079716.46746  21159548.9304                   21159547.4384
 -11801489.14547  -9156527.99945  22671919.7734                   22671919.1094
   5032351.54346   3926800.92543  24895835.3754                   24895837.3834
   2605280.90248   2052821.55745  20834760.7664                   20834759.1524
  -1818247.68048  -1393631.78246  21336690.8284                   21336688.0634
  -2190618.56646  -1686669.89644  23186618.7974                   23186618.4344
  12129133.30947   9460850.03544  22325481.1954                   22325478.9924
     84130.95747     81975.62644  23458735.3754                   23458734.3554
 11  8 22 17  1 30.0000000  0 10G03G06G07G08G10G13G19G11G23G28
  10898957.57447   8504593.31144  22896115.7424                   22896115.2734
  14178632.53946  11054764.63243  24935951.9924                   24935953.1254
  -9264116.49248  -7203048.77646  21129430.0164                   21129428.0864
 -11987035.26247  -9301109.37845  22636611.3204                   22636611.3164
   4971739.68846   3879570.73843  24884300.7504                   24884302.8284
   2554573.85248   2013309.53345  20825111.3834                   20825110.3834
  -1890527.54748  -1449953.77446  21322936.1804                   21322933.4104
  -2377822.41847  -1832543.00644  23150995.1174                   23150994.3594
  12117030.55547   9451419.22744  22323178.1414                   22323175.8134
    -76758.83647    -43392.99644  23428118.6334                   23428117.8984
 11  8 22 17  2  0.0000000  0 10G03G06G07G08G10G13G19G11G23G28
  10882762.65247   8491973.84144  22893033.5704                   22893032.4694
  14165988.95746  11044912.38243  24933546.9844                   24933547.6334
  -9422216.61748  -7326243.68746  21099344.5474                   21099342.7544
 -12172580.43047  -9445690.02745  22601303.4694                   22601303.1454
   4911290.79346   3832467.56343  24872797.8134                   24872799.9574
   2504375.78548   1974194.12246  20815558.8674                   20815557.8404
  -1962241.70748  -1505834.95946  21309289.8594                   21309287.1524
  -2564862.50047  -1978288.50444  23115402.5084                   23115401.8954
  12105200.09447   9442200.61544  22320927.5084                   22320925.0274
   -237447.55547   -168604.94644  23397540.8204                   23397539.7974
 11  8 22 17  2 30.0000000  0 10G03G06G07G08G10G13G19G11G23G28
  10866845.11347   8479570.52344  22890004.6094                   22890003.7624
  14153478.38346  11035163.83143  24931166.7584                   24931167.3204
  -9580141.17648  -7449301.78646  21069292.0784                   21069290.7544
 -12358126.01647  -9590270.98645  22565994.7424                   22565995.0554
   4850999.44946   3785487.20043  24861325.2424                   24861327.4104
   2454682.48448   1935472.02946  20806102.9774                   20806101.8364
  -2033394.59848  -1561278.78446  21295749.8284                   21295746.8244
  -2751738.44146  -2123906.09744  23079841.1484                   23079840.6024
  12093636.31647   9433189.75444  22318726.8444                   22318725.1954
   -397938.72347   -293662.97144  23367000.1954                   23366999.0944
 11  8 22 17  3  0.0000000  0 10G03G06G07G08G10G13G19G11G23G28
  10851191.44947   8467372.80044  22887025.1174                   22887025.4224
  14141087.54346  11025508.52344  24928808.5314                   24928810.0044
  -9737899.31248  -7572230.20746  21039271.8984                   21039270.4104
 -12543681.58247  -9734859.74145  22530685.1414                   22530684.7974
   4790852.39846   3738619.24743  24849878.8364                   24849881.8484
   2405481.08648   1897133.23246  20796740.1414                   20796738.9924
  -2103998.76648  -1616295.02946  21282314.1564                   21282311.2894
  -2938457.86746  -2269401.71644  23044309.8834                   23044309.3954
  12082325.62547   9424376.16644  22316574.4224                   22316572.6764
   -558243.55947   -418575.79544  23336495.7974                   23336494.4384
 11  8 22 17  3 30.0000000  0  9G03G07G08G10G13G19G11G23G28
  10835798.03947   8455377.86743  22884095.6414                   22884095.2304
  -9895489.70348  -7695027.92546  21009283.4224                   21009282.0514
 -12729246.37947  -9879455.66245  22495372.9844                   22495372.4184
   4730846.32046   3691861.11643  24838461.3594                   24838463.8754
   2356769.13748   1859175.82645  20787470.4454                   20787469.3164
  -2174056.39148  -1670885.40246  21268982.8054                   21268980.0514
  -3125018.25447  -2414773.43344  23008808.4614                   23008807.7504
  12071264.40647   9415756.97444  22314469.8914                   22314468.0634
   -718363.30147   -543344.42444  23306025.3364                   23306025.0044
 11  8 22 17  4  0.0000000  0  9G03G07G08G10G13G19G11G23G28
  10820664.90247   8443585.72444  22881216.1174                   22881216.5204
 -10052907.95348  -7817691.50046  20979327.8594                   20979326.2384
 -12914816.45347 -10024055.69945  22460060.5864                   22460059.9614
   4670981.09046   3645212.78843  24827068.6804                   24827071.8524
   2308547.23848   1821600.28946  20778294.2344                   20778293.1954
  -2243566.40247  -1725049.05546  21255755.1254                   21255752.8054
  -3311414.21147  -2560017.03044  22973338.5704                   22973337.6484
  12060452.53147   9407332.04244  22312412.3914                   22312410.4774
   -878295.87947   -667967.16944  23275591.4774                   23275591.6024
 11  8 22 17  4 30.0000000  0  9G03G07G08G10G13G19G11G23G28
  10805797.80947   8432000.92244  22878387.6254                   22878387.8714
 -10210143.46547  -7940212.68746  20949406.7814                   20949405.2814
 -13100381.48447 -10168651.83445  22424748.1644                   22424748.1094
   4611262.71546   3598678.85543  24815704.9304                   24815708.4344
   2260821.45748   1784411.32245  20769212.2664                   20769210.9534
  -2312521.83247  -1778780.56746  21242633.9614                   21242630.6524
  -3497633.72747  -2705123.11544  22937901.8594                   22937901.3714
  12049895.94546   9399106.01344  22310403.0394                   22310401.4104
  -1038033.27347   -792437.84144  23245193.5314                   23245194.5904
 11  8 22 17  5  0.0000000  0  9G03G07G08G10G13G19G11G23G28
  10791194.73047   8420621.83644  22875609.0554                   22875609.4574
 -10367193.64147  -8062589.45146  20919521.3594                   20919519.8204
 -13285939.15647 -10313242.19045  22389438.1334                   22389437.3014
   4551689.37146   3552258.02844  24804368.6564                   24804371.6214
   2213591.20748   1747608.49745  20760224.7194                   20760223.4384
  -2380923.59047  -1832080.64646  21229617.3754                   21229614.4804
  -3683672.55547  -2850088.43844  22902499.8754                   22902499.3364
  12039592.50046   9391077.26043  22308442.6094                   22308440.2304
  -1197574.80146   -916755.86044  23214834.2974                   23214834.8634
 11  8 22 17  5 30.0000000  0  9G03G07G08G10G13G19G11G23G28
  10776852.77747   8409446.24144  22872879.5944                   22872880.2304
 -10524056.69548  -8184820.40446  20889671.2034                   20889669.5004
 -13471488.27047 -10457825.92544  22354129.3364                   22354128.2544
   4492258.34046   3505947.93043  24793059.6564                   24793062.3794
   2166854.40248   1711190.15945  20751331.3054                   20751329.3014
  -2448773.47748  -1884950.70546  21216705.7424                   21216703.0594
  -3869527.95347  -2994910.81544  22867132.5164                   22867132.1174
  12029539.33647   9383243.55443  22306530.0704                   22306527.2464
  -1356921.32847  -1040921.98344  23184512.1024                   23184511.8014
 11  8 22 17  6  0.0000000  0  9G03G07G08G10G13G19G11G23G28
  10762763.73447   8398467.72044  22870198.2194                   22870199.1564
 -10680736.18448  -8306908.31746  20859856.2344                   20859854.2584
 -13657033.42647 -10602406.54644  22318820.9384                   22318820.5784
   4432961.29746   3459742.33843  24781776.0704                   24781778.9534
   2120603.38348   1675150.36745  20742529.8204                   20742528.5084
  -2516078.32847  -1937396.05046  21203898.1724                   21203895.2584
  -4055202.30547  -3139592.13144  22831800.3134                   22831799.2814
  12019728.44947   9375598.59243  22304662.3914                   22304660.9964
  -1516079.05947  -1164940.94744  23154225.1724                   23154224.9654
 11  8 22 17  6 30.0000000  0 10G03G24G07G08G10G13G19G11G23G28
  10748919.95347   8387680.31744  22867563.8674                   22867564.8054
  20167974.48856  15736404.35253  24270883.2274                   24270886.8954
 -10837234.95348  -8428855.40446  20830075.3134                   20830073.7304
 -13842577.68447 -10746986.48745  22283512.7894                   22283512.2154
   4373790.84446   3413635.37843  24770516.8754                   24770519.1334
   2074831.19148   1639483.68745  20733819.7034                   20733818.2424
  -2582845.31648  -1989422.29246  21191192.9924                   21191189.9184
  -4240697.37147  -3284133.71644  22796501.3134                   22796500.8634
  12010152.14547   9368136.44644  22302840.3914                   22302838.5594
  -1675053.64847  -1288817.25644  23123973.6414                   23123972.5744
 11  8 22 17  7  0.0000000  0 10G03G24G07G08G10G13G19G11G23G28
  10735306.61347   8377072.45944  22864973.7274                   22864974.8874
  19982627.68445  15591978.31843  24235612.1174                   24235616.5824
 -10993563.01248  -8550669.48946  20800326.9384                   20800325.5824
 -14028131.03947 -10891573.50945  22248203.5314                   22248203.2384
   4314732.31646   3367615.59643  24759278.1564                   24759280.4494
   2029523.98448   1604179.31245  20725197.9614                   20725196.8794
  -2649087.95347  -2041039.94146  21178587.4924                   21178584.5594
  -4426021.57447  -3428542.17844  22761235.6564                   22761234.7544
  12000795.48847   9360845.41044  22301060.9774                   22301058.3134
  -1833857.30147  -1412560.28844  23093754.1484                   23093752.9924
 11  8 22 17  7 30.0000000  0 10G03G24G07G08G10G13G19G11G23G28
  10721918.41847   8366640.07044  22862426.2894                   22862426.5394
  19797182.54345  15447475.76543  24200322.6804                   24200326.9064
 -11149721.00048  -8672351.02146  20770611.2734                   20770609.6254
 -14213694.91847 -11036168.73445  22212891.8364                   22212891.4804
   4255780.26246   3321678.76143  24748060.3364                   24748063.0944
   1984676.93847   1569233.53045  20716664.0314                   20716663.2774
  -2714810.44547  -2092252.29346  21166080.8754                   21166077.9804
  -4611174.41847  -3572817.07944  22726002.3444                   22726000.8554
  11991652.89547   9353721.17244  22299321.0314                   22299319.1024
  -1992493.07847  -1536172.54944  23063566.8204                   23063565.6764
 11  8 22 17  8  0.0000000  0 10G03G24G07G08G10G13G19G11G23G28
  12284174.24647   9583982.19844  23159713.7974   23159714.0394   21187069.19545
  16530504.47743                  24464810.0784                   24464813.4304
  -9730280.83647  -7566293.75646  21040721.8284                   21040720.3444
 -12823840.68047  -9953165.42645  22477372.1484                   22477372.2274
   5772355.34445   4503425.41442  25036654.9144                   25036657.3014
   3515710.70348   2762246.79745  21008010.1024                   21008008.9574
  -1204591.29347   -915458.16346  21453465.9454                   21453463.0824
  -3220725.49247  -2489350.37544  22990596.0164                   22990594.9654
  13558143.30547  10574362.98644  22597414.4844                   22597412.4344
   -575535.46947   -432049.69144  23333204.5634                   23333203.2424
 11  8 22 17  8 30.0000000  0 10G03G24G07G08G10G13G19G11G23G28
  12271234.07847   9573898.89044  23157251.0554   23157251.0434   21001441.90646
  16385859.90943                  24429486.3754                   24429489.9304
  -9886087.19147  -7687701.30746  21011072.6024                   21011071.0084
 -13009415.34047 -10097769.05545  22442058.6414                   22442058.3984
   5713614.77045   4457653.46942  25025476.7114                   25025479.5784
   3471784.18047   2728018.31145  20999651.2664                   20999650.2154
  -1269272.78547   -965859.36046  21441157.5234                   21441154.4924
  -3405520.27747  -2633346.29644  22955430.2894                   22955429.4884
  13549427.07047  10567571.01344  22595755.5554                   22595753.8984
   -733831.57447   -555397.26844  23303081.7974                   23303079.9144
 11  8 22 17  9  0.0000000  0 10G03G24G07G08G10G13G19G11G23G28
  12258513.55947   9563986.73943  23154830.1884   23154829.8404   20815727.74646
  16241147.68143                  24394145.5944                   24394149.4694
 -10041714.60547  -7808969.42046  20981457.8834                   20981456.3754
 -13194993.32447 -10242375.25045  22406744.1254                   22406743.8404
   5654975.793 5                  25014316.711
   3428314.29347   2694145.63345  20991378.8444                   20991378.0824
  -1333436.57447  -1015857.12946  21428947.7504                   21428945.2544
  -3590131.42647  -2777199.09644  22920299.4924                   22920299.4804
  13540919.82447  10560941.88944  22594137.4304                   22594135.2974
   -891958.80147   -678613.25344  23272990.9384                   23272989.5634
 11  8 22 17  9 30.0000000  0  9G03G24G07G08G13G19G11G23G28
  12246011.62146   9554244.88543  23152451.0784   23152450.2584   20629930.97746
  16096371.00843                  24358790.8054                   24358793.1094
 -10197160.54748  -7930096.11946  20951877.3674                   20951876.1094
 -13380571.28947 -10386981.45145  22371430.1254                   22371429.9414
   3385300.35947   2660628.22645  20983193.6804                   20983192.5594
  -1397083.26248  -1065451.97546  21416836.2034                   21416833.5394
  -3774554.53946  -2920905.37944  22885205.8834                   22885204.7504
  13532619.94947  10554474.30543  22592557.3914                   22592555.8244
  -1049916.35947   -801697.06044  23242932.0394                   23242931.3794
 11  8 22 17 10  0.0000000  0  9G03G24G07G08G13G19G11G23G28
  12233730.05547   9544674.72843  23150113.9924   23150113.5274   20444058.90246
  15951535.69244                  24323419.7424                   24323423.1294
 -10352417.82848  -8051075.83146  20922333.2734                   20922331.6804
 -13566143.35247 -10531583.05945  22336116.8754                   22336116.5314
   3342745.01247   2627468.18945  20975095.8524                   20975094.3364
  -1460210.12548  -1114641.76146  21404823.3444                   21404820.7234
  -3958781.96147  -3064459.18744  22850148.1484                   22850147.4574
  13524529.44146  10548169.89943  22591017.5004                   22591016.4654
  -1207700.52747   -924645.73644  23212906.7274                   23212906.1054
 11  8 22 17 10 30.0000000  0  9G03G24G07G08G13G19G11G23G28
  12221678.71547   9535284.01944  23147820.9384   23147820.6524   20258126.94146
  15806653.76643                  24288037.7344                   24288041.4384
 -10507471.67648  -8171897.00846  20892827.2034                   20892825.9694
 -13751695.32047 -10676169.00945  22300807.3594                   22300807.3284
   3300658.47747   2594673.43845  20967087.0554                   20967085.6804
  -1522806.39848  -1163418.10246  21392911.7194                   21392909.3554
  -4142797.62546  -3207847.95644  22815130.7664                   22815130.5904
  13516657.84846  10542036.13443  22589519.7974                   22589517.7584
  -1365299.08247  -1047449.75344  23182916.9454                   23182917.2974
 11  8 22 17 11  0.0000000  0  9G03G24G07G08G13G19G11G23G28
  12209860.99246   9526075.35144  23145572.0004   23145572.6764   20072144.04346
  15661732.04743                  24252646.4064                   24252649.8324
 -10662314.74248  -8292553.94346  20863361.3914                   20863359.9654
 -13937219.70347 -10820733.44845  22265503.6724                   22265503.1724
   3259044.78547   2562247.13545  20959168.6094                   20959166.8634
  -1584867.84448  -1211777.69046  21381101.9304                   21381099.0744
  -4326592.31646  -3351064.55744  22780155.9144                   22780155.5864
  13509008.53147  10536075.50543  22588064.6804                   22588062.7544
  -1522706.65647  -1170104.97844  23152963.5634                   23152963.9574
 11  8 22 17 11 30.0000000  0  9G03G24G07G08G13G19G11G23G28
  12198271.78946   9517044.73744  23143367.1414   23143368.1484   19886111.46946
  15516771.61943                  24217245.0944                   24217249.8164
 -10816946.75848  -8413046.41946  20833936.0314                   20833934.4884
 -14122716.74647 -10965276.59645  22230204.3444                   22230204.1954
   3217899.66047   2530185.94245  20951338.3754                   20951337.7274
  -1646398.54748  -1259723.71746  21369393.2584                   21369389.8594
  -4510165.02346  -3494108.18844  22745223.0554                   22745222.3954
  13501576.76246  10530284.41643  22586650.3984                   22586648.0354
  -1679925.75847  -1292613.33744  23123045.6484                   23123045.8554
 11  8 22 17 12  0.0000000  0  9G03G24G07G08G13G19G11G23G28
  12186904.73447   9508187.21644  23141204.4614   23141205.5904   19700027.93046
  15371771.53343                  24181835.4924                   24181838.5274
 -10971369.32048  -8533375.68346  20804550.4924                   20804548.7894
 -14308188.41047 -11109799.95145  22194909.9844                   22194910.2504
   3177217.07448   2498485.19145  20943597.1414                   20943596.4924
  -1707403.93048  -1307260.40246  21357784.0784                   21357780.9414
  -4693516.29347  -3636979.25244  22710332.4144                   22710331.5274
  13494355.64547  10524657.41443  22585276.8134                   22585274.1374
  -1836960.89847  -1414978.34045  23093163.1954                   23093163.3794
 11  8 22 17 12 30.0000000  0  9G03G24G07G08G13G19G11G23G28
  12175759.16447   9499502.26844  23139083.1414   23139084.6804   19513898.22346
  15226735.47643                  24146415.7894                   24146419.2464
 -11125578.84448  -8653538.94846  20775205.5234                   20775203.7974
 -14493631.56247 -11254301.09745  22159621.5164                   22159621.4024
   3136996.48848   2467144.42345  20935943.3134                   20935942.5904
  -1767884.23448  -1354387.95946  21346275.1644                   21346272.0514
  -4876641.23447  -3779673.93744  22675485.3754                   22675484.3444
  13487344.35947  10519193.98143  22583942.5394                   22583940.3444
  -1993810.90647  -1537199.07745  23063315.6174                   23063315.7344
 11  8 22 17 13  0.0000000  0  9G03G24G07G08G13G19G11G23G28
  12164830.11747   9490986.06544  23137003.9064   23137004.5514   19327723.29346
  15081664.12043                  24110987.7504                   24110991.2274
 -11279575.30548  -8773536.19246  20745901.0634                   20745899.1024
 -14679046.32847 -11398780.12545  22124338.0084                   22124337.9804
   3097233.97748   2436160.59645  20928377.0784                   20928375.6414
  -1827843.37948  -1401109.40146  21334865.3984                   21334862.2934
  -5059538.61747  -3922191.37544  22640680.9224                   22640680.1174
  13480538.06646  10513890.18043  22582647.3754                   22582645.8874
  -2150478.32447  -1659277.54645  23033502.8204                   23033502.2664
 11  8 22 17 13 30.0000000  0  9G03G24G07G08G13G19G11G23G28
  12154112.72346   9482634.77444  23134964.1644   23134964.6914   19141503.71146
  14936557.95043                  24075551.1644                   24075553.9224
 -11433358.93448  -8893367.58546  20716636.6024                   20716635.1914
 -14864433.53547 -11543237.67545  22089060.0084                   22089059.7304
   3057924.83248   2405530.04245  20920896.6804                   20920895.3914
  -1887285.81248  -1447428.20946  21323553.7734                   21323550.6724
  -5242207.41047  -4064530.62944  22605919.7974                   22605919.3754
  13473932.06346  10508742.51143  22581389.8594                   22581388.4184
  -2306966.01247  -1781215.95745  23003724.0084                   23003723.7114
 11  8 22 17 14  0.0000000  0  9G03G24G07G08G13G19G11G23G28
  12143601.25446   9474443.96143  23132963.4924   23132964.1914   18955239.38746
  14791417.07043                  24040106.4454                   24040109.1134
 -11586931.00448  -9013034.15046  20687412.9924                   20687411.4844
 -15049794.71147 -11687674.94945  22053787.0474                   22053786.5084
   3019063.63748   2375248.53145  20913501.7974                   20913500.8204
  -1946216.33648  -1493348.14146  21312339.5864                   21312336.8834
  -5424647.71547  -4206691.86544  22571203.0164                   22571202.4574
  13467520.20746  10503746.16243  22580169.8284                   22580168.4884
  -2463277.80547  -1903017.32245  22973978.5164                   22973979.0514
 11  8 22 17 14 30.0000000  0  9G03G24G07G08G13G19G11G23G28
  12133292.05546   9466410.76043  23131001.9454   23131002.0594   18768932.23846
  14646242.76243                  24004653.3204                   24004656.0084
 -11740290.56248  -9132535.10246  20658229.9064                   20658228.1334
 -15235129.04747 -11832091.31445  22018519.3364                   22018518.4414
   2980647.19148   2345313.56445  20906191.4534                   20906190.5634
  -2004637.89548  -1538871.46046  21301222.4384                   21301219.4494
  -5606857.50847  -4348673.47244  22536529.1954                   22536528.7114
  13461298.12146  10498897.67543  22578985.6094                   22578984.6254
  -2619415.43047  -2024682.95745  22944266.5394                   22944266.5354
 11  8 22 17 15  0.0000000  0  9G03G24G07G08G13G19G11G23G28
  13698595.36346  10686127.52143  23428868.4614   23428869.5354   20158004.13346
  15728636.51843                  24268985.2274                   24268987.6334
 -10318017.62148  -8024270.47646  20928879.1954                   20928877.5704
 -13845016.47747 -10748886.69545  22283049.1884                   22283048.3594
   4518086.96148   3543318.52245  21198756.5944                   21198755.8714
   -487138.35248   -356404.30146  21589993.3364                   21589990.1374
  -4213414.81647  -3262873.93144  22801692.9534                   22801692.1214
  15030676.72346  11721790.00243  22877628.7344                   22877627.3244
  -1199961.63747   -918615.03745  23214380.0004                   23214379.5474
 11  8 22 17 15 30.0000000  0  9G03G24G07G08G13G19G11G23G28
  13688667.32446  10678391.27043  23426980.3834   23426980.9304   19971605.41846
  15583390.72443                  24233514.9774                   24233516.7934
 -10470960.60548  -8143446.84146  20899775.1254                   20899773.3914
 -14030307.02047 -10893268.90045  22247789.5784                   22247789.0514
   4480538.20348   3514059.68145  21191611.3054                   21191610.4024
   -544563.46148   -401151.16246  21579065.5474                   21579062.3444
  -4395168.58647  -3404500.21944  22767106.5554                   22767105.5084
  15024812.35246  11717220.21243  22876513.1884                   22876512.2234
  -1355767.27347  -1040021.99945  23184731.7194                   23184730.7584
 11  8 22 17 16  0.0000000  0  9G03G24G07G08G13G19G11G23G28
  13678923.94547  10670798.99944  23425125.8524   23425127.3524   19785163.50446
  15438111.35343                  24198036.4144                   24198038.3284
 -10623694.28148  -8262460.10446  20870710.7424                   20870709.3014
 -14215575.07447 -11037633.60245  22212534.4924                   22212533.6954
   4443417.85248   3485134.68345  21184547.4694                   21184546.4224
   -601495.28948   -445513.63946  21568231.3204                   21568228.5274
  -4576691.57047  -3545946.64044  22732563.7034                   22732563.1414
  15019120.50847  11712784.90443  22875430.5314                   22875429.1564
  -1511410.07047  -1161302.06645  23155113.1724                   23155112.1994
 11  8 22 17 16 30.0000000  0  9G03G24G07G08G13G19G11G23G28
  13669363.18847  10663348.96744  23423307.5704   23423308.5514   19598681.94946
  15292801.11143                  24162549.7734                   24162552.4344
 -10776215.76248  -8381308.01746  20841686.7424                   20841685.4924
 -14400818.55947 -11181979.14045  22177283.6564                   22177282.6954
   4406724.09047   3456542.08545  21177564.8674                   21177563.7344
   -657935.24248   -489492.84446  21557491.5234                   21557488.2774
  -4757980.32047  -3687210.57445  22698065.5084                   22698065.2304
  15013598.89546  11708482.25443  22874379.8754                   22874378.2664
  -1666890.22747  -1282455.41745  23125525.8524                   23125524.8914
 11  8 22 17 17  0.0000000  0  9G03G24G07G08G13G19G11G23G28
  13659979.24247  10656036.75144  23421522.0474   23421522.5864   19412160.41046
  15147459.78743                  24127055.7274                   24127058.4494
 -10928526.30948  -8499991.55946  20812703.1724                   20812701.7584
 -14586038.65647 -11326306.47445  22142037.3284                   22142037.0314
   4370451.34847   3428277.54145  21170662.7664                   21170661.0394
   -713888.82447   -533093.06546  21546843.8984                   21546841.0904
  -4939034.63347  -3828291.79745  22663611.9304                   22663611.4384
  15008241.53146  11704307.47243  22873360.3914                   22873358.6914
  -1822211.17647  -1403484.70945  23095969.2974                   23095968.5864
 11  8 22 17 17 30.0000000  0  9G03G24G07G08G13G19G11G23G28
  13650773.86747  10648863.69044  23419770.2194   23419771.0234   19225605.98446
  15002092.71343                  24091555.5944                   24091558.3134
 -11080620.19148  -8618506.27946  20783760.7034                   20783759.2734
 -14771229.87547 -11470611.31745  22106796.4614                   22106796.4104
   4334601.28947   3400342.39945  21163840.6174                   21163839.6884
   -769353.73847   -576312.49246  21536289.2194                   21536286.7154
  -5119847.16847  -3969184.66545  22629204.4924                   22629203.5744
  15003049.77047  11700261.84743  22872373.3984                   22872370.5554
  -1977369.68747  -1524387.42844  23066443.6804                   23066442.9264
 11  8 22 17 18  0.0000000  0  9G03G24G07G08G13G19G11G23G28
  13641743.57847  10641827.03744  23418051.7974   23418052.1054   19039021.22746
  14856702.07643                  24056049.2584                   24056052.3484
 -11232495.62548  -8736850.78246  20754859.7504                   20754858.2814
 -14956390.55947 -11614892.36145  22071561.0314                   22071561.2624
   4299171.26647   3372734.52745  21157098.1024                   21157097.5784
   -824332.50047   -619153.10446  21525826.9924                   21525824.5434
  -5300415.26647  -4109887.05745  22594843.5164                   22594842.8984
  14998020.39547  11696342.74543  22871415.4614                   22871413.7234
  -2132366.83647  -1645164.39144  23036948.7034                   23036948.0664
 11  8 22 17 18 30.0000000  0  9G03G24G07G08G13G19G11G23G28
  13632888.39147  10634926.81243  23416366.1174   23416366.5554   18852412.08646
  14711292.44943                  24020538.4694                   24020542.1214
 -11384147.75448  -8855021.27346  20726001.2894                   20725999.6764
 -15141516.07847 -11759145.99245  22036333.6724                   22036333.4224
   4264161.81647   3345454.39245  21150435.8984                   21150435.9884
   -878824.57847   -661614.48146  21515457.2344                   21515455.1294
  -5480732.48047  -4250393.95845  22560530.3054                   22560529.1804
  14993153.42647  11692550.11243  22870489.5864                   22870487.7814
  -2287200.33247  -1765813.84445  23007485.3674                   23007484.5944
 11  8 22 17 19  0.0000000  0  9G03G24G07G08G13G19G11G23G28
  13624209.75847  10628164.18344  23414715.2814   23414716.1174   18665785.89146
  14565869.50843                  23985024.0944                   23985028.4924
 -11535570.13348  -8973012.74346  20697186.2894                   20697184.6994
 -15326600.36747 -11903367.50245  22001112.4534                   22001112.4494
   4229574.40247   3318503.10445  21143854.3134                   21143854.1804
   -932827.81648   -703694.93946  21505180.8134                   21505178.8984
  -5660792.10547  -4390700.13045  22526265.9844                   22526265.1604
  14988450.16047  11688885.02643  22869594.1024                   22869593.2034
  -2441866.71547  -1886333.07145  22978053.1644                   22978052.3554
 11  8 22 17 19 30.0000000  0  9G03G24G07G08G13G19G11G23G28
  13615706.15647  10621537.88243  23413096.9454   23413097.7544   18479146.34046
  14420436.19143                  23949508.7274                   23949511.9414
 -11686760.23447  -9090823.21946  20668415.9224                   20668414.2854
 -15511640.91447 -12047554.94045  21965900.5004                   21965900.3714
   4195407.53547   3291879.52245  21137352.8054                   21137352.1484
   -986343.74647   -745395.67646  21494997.4614                   21494994.8134
  -5840590.25447  -4530802.53145  22492051.2194                   22492051.1564
  14983908.73447  11685346.20243  22868730.1334                   22868729.1374
  -2596366.03547  -2006722.11045  22948652.6884                   22948652.0084
 11  8 22 17 20  0.0000000  0  9G03G24G07G08G13G19G11G23G28
  13607377.73446  10615048.16343  23411511.9614   23411512.7114   18292499.14146
  14274996.93143                  23913989.9304                   23913994.1564
 -11837712.92648  -9208448.70146  20639690.7114                   20639688.6644
 -15696633.25847 -12191704.81345  21930698.0314                   21930697.3324
   4161661.53147   3265583.88645  21130931.2034                   21130930.4224
  -1039371.90647   -786716.34446  21484906.8054                   21484903.6024
  -6020120.92647  -4670696.54645  22457887.8134                   22457887.0704
  14979528.97347  11681933.23043  22867897.6804                   22867895.7074
  -2750696.22747  -2126979.38645  22919284.8364                   22919284.0784
 11  8 22 17 20 30.0000000  0  9G03G24G07G08G13G19G11G23G28
  13599224.27046  10608694.69043  23409960.8134   23409961.0824   18105849.96546
  14129556.07743                  23878472.2814                   23878475.6724
 -11988423.91848  -9325885.86046  20611011.2894                   20611009.4804
 -15881573.10547 -12335813.76045  21895504.9844                   21895504.1254
   4128336.53147   3239616.31845  21124589.8754                   21124589.0864
  -1091911.69147   -827656.45246  21474908.3834                   21474905.7074
  -6199378.14847  -4810377.47744  22423776.3754                   22423775.5594
  14975310.71546  11678646.16943  22867094.6644                   22867093.3834
  -2904855.49247  -2247103.45945  22889949.0234                   22889948.4844
 11  8 22 17 21  0.0000000  0  9G03G24G07G08G13G19G11G23G28
  13591243.56346  10602475.86744  23408442.5004   23408442.3914   17919201.98447
  13984116.11843                  23842954.5944                   23842957.0744
 -12138890.74648  -9443132.75246  20582378.4694                   20582376.7774
 -16066458.10547 -12479879.96645  21860322.8204                   21860321.7154
   4095430.16847   3213974.93545  21118327.9844                   21118327.2234
  -1143965.08248   -868217.55946  21465003.5784                   21465000.1024
  -6378358.98847  -4949843.02444  22389717.2344                   22389716.3284
  14971251.23847  11675482.80343  22866322.4924                   22866320.7234
  -3058844.24247  -2367094.66145  22860646.0474                   22860645.3444
 11  8 22 17 21 30.0000000  0  9G03G24G07G08G13G19G11G23G28
  13583434.52047  10596390.79143  23406955.8984   23406956.5904   17732559.88347
  13838680.71643                  23807438.0394                   23807440.4694
 -12289109.65648  -9560186.45846  20553792.7274                   20553790.7774
 -16251285.21547 -12623901.07445  21825151.1334                   21825149.8634
   4062941.75847   3188659.23545  21112145.6334                   21112144.9614
  -1195532.68748   -908400.12446  21455189.9924                   21455187.5124
  -6557058.59047  -5089089.44245  22355711.9694                   22355711.0824
  14967349.19546  11672442.14043  22865580.1174                   22865578.2974
  -3212661.27047  -2486952.06345  22831375.5314                   22831374.5234
 11  8 22 17 22  0.0000000  0  9G03G24G07G08G13G19G11G23G28
  15151219.31647  11818041.19543  23705296.2814   23705296.0594   19121357.59447
  14920860.81943                  24071717.5474                   24071719.7504
 -10863649.27348  -8449438.10846  20825048.9534                   20825047.3014
 -14860621.60547 -11540267.06545  22089785.8284                   22089784.4144
   5606294.68847   4391271.86245  21405836.1174                   21405835.5084
    328809.74248    279399.14146  21745263.0234                   21745259.7424
  -5160043.09847  -4000505.90844  22621554.6884                   22621554.5554
  16539026.94546  12897125.94243  23164660.5314                   23164659.0124
  -1790877.74247  -1379068.77844  23101932.0084                   23101931.1644
 11  8 22 17 22 30.0000000  0  9G03G24G07G08G13G19G11G23G28
  15143753.41447  11812223.49843  23703875.4224   23703875.1684   18934744.41047
  14775447.98944                  24036205.9064                   24036208.4884
 -11013358.78948  -8566094.87946  20796560.2894                   20796558.4924
 -15045319.07448 -11684187.14845  22054639.2814                   22054638.0044
   5574642.43847   4366607.72845  21399812.9924                   21399811.9614
    278215.02048    239974.66346  21735635.0394                   21735632.0984
  -5338162.80547  -4139300.43344  22587659.8914                   22587659.4774
  16535440.10246  12894330.82943  23163977.7664                   23163976.7464
  -1944346.10947  -1498654.51944  23072727.2734                   23072727.0394
 11  8 22 17 23  0.0000000  0  9G03G24G07G08G13G19G11G23G28
  15136457.16847  11806538.06743  23702487.0944   23702486.7854   18748151.94947
  14630051.30344                  24000699.0944                   24000701.4024
 -11162808.47748  -8682549.18146  20768120.7894                   20768119.0744
 -15229947.17248 -11828053.19045  22019505.2274                   22019504.8954
   5543406.18447   4342267.71745  21393868.9924                   21393868.2504
    228104.92648    200927.80246  21726099.9144                   21726096.5434
  -5515986.21147  -4277864.10245  22553821.1024                   22553820.5354
  16532008.12946  12891656.41843  23163324.7584                   23163323.2344
  -2097639.33647  -1618103.77144  23043556.4224                   23043555.7384
 11  8 22 17 23 30.0000000  0  9G03G24G07G08G13G19G11G23G28
  15129329.83647  11800984.23643  23701130.5004   23701130.8204   18561585.72347
  14484675.09444                  23965196.2664                   23965199.1254
 -11311994.23448  -8798797.82547  20739731.9304                   20739730.1564
 -15414501.78948 -11971861.98345  21984385.9144                   21984384.8094
   5512585.78547   4318251.77045  21388003.7034                   21388003.3954
    178479.42248    162258.55046  21716656.2424                   21716653.1454
  -5693507.80547  -4416192.57245  22520040.4064                   22520039.3954
  16528730.54746  12889102.32543  23162701.1644                   23162699.1844
  -2250755.93447  -1737415.40244  23014419.0704                   23014418.9104
 11  8 22 17 24  0.0000000  0  9G03G24G07G08G13G19G11G23G28
  15122368.38747  11795559.62043  23699805.8594   23699806.3094   18375048.04346
  14339321.13544                  23929699.0554                   23929702.2194
 -11460914.98848  -8914839.97146  20711393.4304                   20711391.3794
 -15598981.61747 -12115612.48445  21949280.1094                   21949279.8244
   5482177.77047   4294557.11945  21382217.5634                   21382217.1454
    129335.46948    123964.51846  21707304.3134                   21707301.8444
  -5870725.33647  -4554284.12745  22486316.6954                   22486315.8484
  16525604.02746  12886665.94043  23162105.7814                   23162103.9494
  -2403697.50447  -1856590.63144  22985315.5164                   22985314.8324
 11  8 22 17 24 30.0000000  0  9G03G24G07G08G13G19G11G23G28
  15115574.69946  11790265.78843  23698512.5314   23698513.7034   18188546.11347
  14193995.04744                  23894208.8914                   23894212.0204
 -11609563.58648  -9030670.06546  20683106.2734                   20683104.7464
 -15783380.43448 -12259299.86545  21914190.3204                   21914189.6604
   5452184.27047   4271185.52145  21376510.0944                   21376509.2704
     80675.25448     86047.43846  21698044.7504                   21698042.0824
  -6047631.25047  -4692132.84645  22452652.5394                   22452651.5234
  16522629.79346  12884348.21543  23161540.4844                   23161538.6484
  -2556460.20747  -1975626.49744  22956246.0004                   22956244.9844
 11  8 22 17 25  0.0000000  0  9G03G24G07G08G13G19G11G23G28
  15108946.43846  11785100.85643  23697251.1254   23697251.8284   18002083.53947
  14048699.60644                  23858726.1334                   23858728.8524
 -11757938.52748  -9146286.89846  20654871.3594                   20654869.8204
 -15967696.02348 -12402922.39945  21879116.2504                   21879115.5204
   5422602.63347   4248134.83045  21370880.6724                   21370880.1374
     32496.62548     48505.61146  21688876.8594                   21688874.2664
  -6224222.16047  -4829736.11545  22419048.6024                   22419047.5664
  16519805.53146  12882147.28443  23161002.6254                   23161001.7344
  -2709044.55547  -2094523.34344  22927210.3364                   22927209.8244
 11  8 22 17 25 30.0000000  0  9G03G24G07G08G13G19G11G23G28
  15102480.54746  11780062.46243  23696021.7274   23696021.3444   17815662.92646
  13903436.85743                  23823251.3364                   23823254.1914
 -11906037.30147  -9261688.54446  20626689.0634                   20626687.4884
 -16151926.79747 -12546478.83145  21844058.3364                   21844057.8324
   5393430.06647   4225402.91144  21365329.4144                   21365328.7424
    -15202.62548     11337.33346  21679799.8834                   21679797.6054
  -6400495.88347  -4967092.21145  22385504.7034                   22385503.9344
  16517128.34846  12880061.01643  23160493.9144                   23160492.6254
  -2861451.36347  -2213281.86244  22898208.4064                   22898207.6374
 11  8 22 17 26  0.0000000  0  9G03G24G07G08G13G19G11G23G28
  15096175.79346  11775149.53543  23694821.7734   23694821.8244   17629288.57847
  13758210.12843                  23787785.4924                   23787788.2194
 -12053856.95348  -9376872.70246  20598559.6954                   20598558.5554
 -16336069.44548 -12689966.62245  21809017.4224                   21809016.5904
   5364665.30147   4202988.74744  21359855.9144                   21359855.1524
    -62423.70748    -25458.34146  21670813.9844                   21670811.5434
  -6576447.38747  -5104197.23045  22352022.2584                   22352020.9804
  16514596.25046  12878087.81443  23160011.9454                   23160010.5824
  -3013680.23447  -2331901.73145  22869240.3134                   22869239.2544
 11  8 22 17 26 30.0000000  0  9G03G24G07G08G13G19G11G23G28
  15090033.23046  11770363.06043  23693652.9384   23693652.9694   17442967.41047
  13613024.84244                  23752329.8364                   23752332.9064
 -12201392.06647  -9491835.13546  20570484.7034                   20570483.8204
 -16520119.34048 -12833382.10945  21773993.7274                   21773992.9344
   5336309.21947   4180893.02444  21354460.0784                   21354459.3754
   -109165.88748    -61880.86146  21661919.1724                   21661916.7384
  -6752070.32047  -5241046.22945  22318602.3444                   22318601.0664
  16512210.34046  12876228.51843  23159558.2274                   23159557.5124
  -3165728.75047  -2450381.07145  22840306.2344                   22840306.3554
 11  8 22 17 27  0.0000000  0  9G03G24G07G08G13G19G11G23G28
  15084048.46547  11765699.53743  23692514.3134   23692514.2424   17256700.89547
  13467882.14443                  23716883.8284                   23716887.2304
 -12348641.64548  -9606575.08846  20542463.9774                   20542463.0514
 -16704075.30548 -12976724.41345  21738987.8914                   21738987.2704
   5308357.98847   4159112.80144  21349141.0784                   21349140.2504
   -155432.43448    -97932.74546  21653114.7814                   21653112.5744
  -6927362.80547  -5377637.71945  22285244.9694                   22285244.3554
  16509966.31646  12874479.74243  23159130.9614                   23159130.6604
  -3317598.80147  -2568721.36545  22811406.1724                   22811405.9774
 11  8 22 17 27 30.0000000  0  9G03G24G07G08G13G19G11G23G28
  15078225.77347  11761162.31143  23691406.2584   23691406.5394   17070498.89146
  13322789.80343                  23681451.2504                   23681454.2194
 -12495597.13748  -9721085.86546  20514499.3594                   20514498.1914
 -16887928.47348 -13119986.61545  21704001.8284                   21704000.8954
   5280815.75447   4137651.24944  21343899.9384                   21343899.3364
   -201219.23448   -133610.79846  21644401.9224                   21644399.4654
  -7102315.60547  -5513964.50445  22251952.3284                   22251952.0594
  16507868.30146  12872844.77543  23158731.7274                   23158731.5664
  -3469284.21947  -2686917.74945  22782541.3754                   22782540.8134
 11  8 22 17 28  0.0000000  0  9G03G24G07G08G13G19G11G23G28
  15072559.55147  11756746.96244  23690328.5394   23690328.7504   16884361.14546
  13177747.43043                  23646029.9614                   23646032.9024
 -12642259.91048  -9835368.55846  20486590.3204                   20486589.3014
 -17071680.29348 -13263169.83845  21669034.8284                   21669034.5704
   5253676.07047   4116503.39245  21338735.5004                   21338734.5984
   -246532.27748   -168919.69646  21635779.5554                   21635776.4454
  -7276928.81247  -5650026.69845  22218724.5864                   22218724.4064
  16505909.73446  12871318.41543  23158359.5864                   23158358.7154
  -3620789.41447  -2804973.73245  22753711.1644                   22753710.0434
 11  8 22 17 28 30.0000000  0  9G03G24G07G08G13G19G11G23G28
  15067048.85546  11752452.89543  23689279.7114   23689280.0554   16698292.69546
  13032759.09943                  23610622.3914                   23610624.5124
 -12788625.87548  -9949419.97446  20458737.5314                   20458736.6644
 -17255327.38748 -13406271.45545  21634088.1724                   21634087.3204
   5226938.14147   4095668.58445  21333647.4774                   21333647.0274
   -291371.83648   -203859.64946  21627246.7814                   21627243.8794
  -7451197.52347  -5785820.43045  22185562.3054                   22185562.2974
  16504089.51646  12869899.90643  23158012.8134                   23158012.3714
  -3772113.28147  -2922888.42744  22724915.1094                   22724914.4534
 11  8 22 17 29  0.0000000  0  9G03G24G07G08G13G19G11G23G28
  16637111.70746  12975878.40743  23988052.3444   23988053.0164   18087722.68846
  14115431.84743                  23875021.6644                   23875024.4654
 -11359268.52748  -8835635.03746  20730735.8524                   20730734.1994
 -15863441.53947 -12321685.07945  21898954.8054                   21898954.8484
   6776020.41047   5302745.62545  21628428.7034                   21628428.0124
   1239680.78548    989168.33446  21918596.4534                   21918593.8204
  -6049692.98047  -4693738.91145  22452260.4304                   22452259.6134
  18077825.11346  14096187.29443  23457485.7814                   23457484.0634
  -2347831.53547  -1813058.46644  22995946.9384                   22995945.8714
 11  8 22 17 29 30.0000000  0  9G03G24G07G08G13G19G11G23G28
  16631906.03546  12971821.98043  23987061.4144   23987062.4844   17901802.98046
  13970559.35543                  23839642.6174                   23839645.8874
 -11505033.95348  -8949218.50646  20702997.5784                   20702996.0904
 -16046871.63348 -12464617.61545  21864049.7274                   21864049.4924
   6750079.65247   5282531.98645  21623491.8754                   21623491.7544
   1195781.72348    954961.22946  21910242.8914                   21910239.9414
  -6223262.58647  -4828987.90545  22419230.7034                   22419229.7584
  18076274.98046  14094979.15642  23457190.5944                   23457189.7854
  -2498794.06247  -1930691.59144  22967219.7114                   22967218.5634
 11  8 22 17 30  0.0000000  0  9G03G24G07G08G13G19G11G23G28
  16626847.93046  12967880.58043  23986099.3914   23986099.2974   17715961.71546
  13825748.03743                  23804278.1094                   23804280.0164
 -11650496.78948  -9062566.18046  20675316.8134                   20675315.3954
 -16230191.07448 -12607463.92845  21829164.7894                   21829164.8164
   6724532.32047   5262624.92745  21618630.4224                   21618629.8444
   1152348.42648    921117.05846  21901977.9924                   21901975.1954
  -6396478.98047  -4963961.68745  22386268.0944                   22386267.5354
  18074854.69946  14093872.23243  23456920.6414                   23456919.1484
  -2649577.88747  -2048185.46544  22938526.3914                   22938525.3634
 11  8 22 17 30 30.0000000  0  9G03G24G07G08G13G19G11G23G28
  16621935.39546  12964052.49642  23985163.9224   23985163.8484   17530202.27746
  13681000.52643                  23768929.4144                   23768931.2734
 -11795654.46948  -9175676.07246  20647694.5634                   20647693.0594
 -16413397.11748 -12750221.88445  21794302.1804                   21794301.9774
   6699376.69947   5243023.06845  21613843.3444                   21613843.0984
   1109379.08248    887634.41846  21893801.0634                   21893798.1524
  -6569338.80147  -5098657.62145  22353374.8524                   22353373.4574
  18073561.87946  14092864.71643  23456675.0474                   23456673.4574
  -2800183.18047  -2165540.24744  22909867.0084                   22909866.1334
 11  8 22 17 31  0.0000000  0  9G03G24G07G08G13G19G11G23G28
  16617163.42646  12960334.06342  23984255.6564   23984254.9264   17344524.80946
  13536316.79843                  23733596.0314                   23733598.6684
 -11940507.79348  -9288548.80646  20620129.8914                   20620128.4414
 -16596490.65248 -12892892.16446  21759460.7034                   21759460.3134
   6674606.68847   5223721.71245  21609129.8984                   21609130.0124
   1066868.30148    854509.10346  21885711.2274                   21885708.6604
  -6741841.85547  -5233075.54845  22320547.9304                   22320547.3324
  18072391.28946  14091952.27343  23456452.3754                   23456451.0044
  -2950613.49647  -2282758.64944  22881241.1254                   22881239.9304
 11  8 22 17 31 30.0000000  0  9G03G24G07G08G13G19G11G23G28
  16612528.04746  12956721.99242  23983374.0554   23983373.3484   17158931.30547
  13391698.57343                  23698279.2734                   23698281.8594
 -12085056.55948  -9401184.21446  20592622.7424                   20592621.4774
 -16779471.27748 -13035474.46846  21724640.4384                   21724639.8594
   6650218.08647   5204717.52945  21604488.7814                   21604488.3094
   1024811.97348    821737.90946  21877708.0944                   21877705.3014
  -6913986.70347  -5367214.36745  22287790.1094                   22287789.4884
  18071338.27046  14091131.55143  23456252.1884                   23456251.1174
  -3100871.46547  -2399842.75744  22852648.1484                   22852646.9384
 11  8 22 17 32  0.0000000  0  9G03G24G07G08G13G19G11G23G28
  16608025.45746  12953213.35743  23982516.9844   23982517.4924   16973423.72347
  13247147.30543                  23662977.8054                   23662980.1564
 -12229299.42648  -9513581.26246  20565174.5474                   20565173.2974
 -16962338.31248 -13177968.24646  21689842.0634                   21689841.6214
   6626207.38347   5186007.82945  21599920.1024                   21599919.5164
    983206.46547    789317.99845  21869790.7274                   21869788.1374
  -7085771.17247  -5501072.36045  22255100.7274                   22255100.3054
  18070399.17646  14090399.59243  23456073.2424                   23456072.5434
  -3250958.64547  -2516793.79444  22824087.5004                   22824086.2624
 11  8 22 17 32 30.0000000  0  9G03G24G07G08G13G19G11G23G28
  16603651.53146  12949805.04643  23981685.5394   23981685.1804   16788003.67247
  13102664.24243                  23627693.5634                   23627695.9534
 -12373236.10248  -9625739.73146  20537784.0314                   20537783.0164
 -17145091.07848 -13320372.97346  21655065.4224                   21655065.2584
   6602570.19147   5167589.17244  21595421.8984                   21595421.0824
    942047.88747    757246.35345  21861958.6334                   21861956.2774
  -7257194.16447  -5634648.69345  22222480.0004                   22222479.2894
  18069569.28546  14089752.83243  23455915.1414                   23455915.0044
  -3400877.74247  -2633613.83845  22795559.0314                   22795557.8364
 11  8 22 17 33  0.0000000  0  9G03G24G07G08G13G19G11G23G28
  16599400.81346  12946492.77043  23980876.6644   23980877.2504   16602671.08647
  12958249.27943                  23592425.5554                   23592428.1414
 -12516867.33248  -9737660.18346  20510452.3054                   20510450.7344
 -17327730.12548 -13462689.10246  21620310.2424                   21620309.8364
   6579300.87147   5149457.16244  21590993.8984                   21590993.4844
    901330.50848    725518.49445  21854210.3754                   21854207.9654
  -7428256.01247  -5767943.63245  22189927.5784                   22189927.1214
  18068843.21946  14089186.80843  23455776.5004                   23455776.8594
  -3550632.24247  -2750305.64344  22767062.1174                   22767060.6804
 11  8 22 17 33 30.0000000  0  9G03G24G07G08G13G19G11G23G28
  16595272.30146  12943275.70043  23980090.9844   23980092.6254   16417430.84047
  12813906.34343                  23557175.0084                   23557178.2974
 -12660189.57848  -9849339.85246  20483178.6954                   20483177.4224
 -17510252.44948 -13604914.26745  21585577.7274                   21585576.8404
   6556397.85947   5131610.60544  21586636.0784                   21586634.7384
    861053.59448    694133.86346  21846546.2504                   21846543.5044
  -7598951.54347  -5900953.11545  22157445.3204                   22157444.8204
  18068219.66446  14088700.72343  23455659.0784                   23455658.7934
  -3700221.58247  -2866868.75845  22738595.4384                   22738594.8094
 11  8 22 17 34  0.0000000  0  9G03G24G07G08G13G19G11G23G28
  16591262.96946  12940151.50443  23979328.0234   23979329.1454   16232285.45347
  12669637.31843                  23521943.6094                   23521946.8134
 -12803201.61748  -9960777.81046  20455964.5164                   20455962.8054
 -17692656.32448 -13747047.15145  21550867.2194                   21550866.9614
   6533857.75447   5114046.79044  21582346.5394                   21582345.7504
    821213.80548    663089.84746  21838965.2424                   21838962.4844
  -7769279.01647  -6033675.81745  22125033.2034                   22125032.6054
  18067695.15246  14088291.87142  23455558.7424                   23455559.0784
  -3849647.11747  -2983304.21945  22710160.7344                   22710159.6644
 11  8 22 17 34 30.0000000  0  9G03G24G07G08G13G19G11G23G28
  16587368.69946  12937116.96343  23978586.9774   23978587.8834   16047236.20347
  12525443.18444                  23486729.9534                   23486732.7504
 -12945902.88748 -10071973.60946  20428809.5864                   20428807.9494
 -17874941.10948 -13889087.24545  21516179.5004                   21516179.1254
   6511676.49247   5096762.61344  21578125.8204                   21578125.0704
    781807.16048    632383.35146  21831465.9224                   21831463.6644
  -7939237.11747  -6166110.67045  22092691.2974                   22092690.3324
  18067265.08646  14087956.62142  23455477.5164                   23455476.7464
  -3998911.42647  -3099614.03145  22681756.4064                   22681755.8404
 11  8 22 17 35  0.0000000  0  9G03G24G07G08G13G19G11G23G28
  16583586.88746  12934169.99343  23977867.2274   23977868.2504   15862286.60547
  12381326.75544                  23451535.1334                   23451538.3364
 -13088291.50048 -10182925.77546  20401713.8284                   20401712.1174
 -18057104.56248 -14031032.77446  21481515.0004                   21481514.2624
   6489851.21947   5079755.82844  21573972.7274                   21573971.8404
    742830.99248    602012.28446  21824049.4694                   21824047.2114
  -8108822.59047  -6298255.18945  22060420.3204                   22060419.1994
  18066926.84446  14087692.76642  23455413.7504                   23455412.8754
  -4148015.06247  -3215798.67345  22653383.1024                   22653382.4804
 11  8 22 17 35 30.0000000  0  9G03G24G07G08G13G19G11G23G28
  18155334.93846  14158908.72543  24276960.7504   24276962.3554   17252865.36747
  13464894.70044                  23716153.5554                   23716155.9964
 -11654941.06648  -9066029.33947  20674471.3754                   20674469.6524
 -16663719.77348 -12945278.39746  21746667.3524                   21746666.6024
   8043799.27747   6290624.36444  21869679.1644                   21869678.3984
   2279703.77048   1799575.45546  22116506.0944                   22116504.1604
  -6702607.64847  -5202503.27445  22328013.9844                   22328012.5084
  19642097.22346  15315098.12443  23755159.0554                   23755157.8324
  -2721534.40247  -2104255.28145  22924833.4384                   22924832.6134
 11  8 22 17 36  0.0000000  0  9G03G24G07G08G13G19G11G23G28
  18151765.78546  14156127.41943  24276282.1644   24276282.9384   17068119.03147
  13320936.60644                  23680997.5474                   23681000.3284
 -11796703.19148  -9176493.33246  20647494.7814                   20647493.3404
 -16845640.61748 -13087034.88346  21712048.9844                   21712048.1644
   8022672.75047   6274162.05144  21865658.8914                   21865658.2774
   2241575.84047   1769865.34946  22109251.3754                   22109248.5554
  -6871444.61747  -5334064.53545  22295885.1174   22295884.4454   19641929.44946
  15314967.06443                  23755126.6804                   23755126.2544
  -2870324.44547  -2220195.55445  22896519.7734                   22896518.3054
 11  8 22 17 36 30.0000000  0  8G24G07G08G13G19G11G23G28
  16883476.66447  13177059.51044  23645861.1024                   23645863.6724
 -11938151.40648  -9286712.73147  20620578.0944                   20620576.7424
 -17027439.05948 -13228695.99546  21677454.1484                   21677453.5204
   8001888.54747   6257966.50744  21861703.7584                   21861703.3754
   2203865.76247   1740480.84746  22102075.1254                   22102072.8554
  -7039905.42647  -5465332.69145  22263828.0554   22263827.3914   19641840.16046
  15314897.31642                  23755109.9774                   23755109.1454
  -3018961.27747  -2336016.44445  22868234.6094                   22868233.8364
 11  8 22 17 37  0.0000000  0  8G24G07G08G13G19G11G23G28
  16698941.41047  13033265.90744  23610745.1254                   23610747.5434
 -12079283.63348  -9396685.90746  20593721.5864                   20593720.1414
 -17209112.81248 -13370259.96046  21642882.6884                   21642882.0944
   7981443.91847   6242035.55744  21857813.2274                   21857813.1374
   2166570.91448   1711419.88945  22094978.0164                   22094975.3954
  -7207987.42247  -5596305.65145  22231843.6094   22231842.6094   19641826.57045
  15314886.50842                  23755106.9534                   23755107.9224
  -3167446.09047  -2451718.88045  22839978.9064                   22839978.5274
 11  8 22 17 37 30.0000000  0  8G24G07G08G13G19G11G23G28
  16514522.81647  12889563.17744  23575650.9774                   23575653.8594
 -12220091.49648  -9506406.32547  20566926.7274                   20566925.2854
 -17390653.29348 -13511720.06346  21608336.4774                   21608335.9734
   7961342.62147   6226372.14545  21853988.3134                   21853988.1914
   2129694.77748   1682685.21645  22087960.8284                   22087957.5744
  -7375681.05147  -5726976.02045  22199932.6644   22199931.8404   19641892.40246
  15314937.56342                  23755119.4534                   23755120.6644
  -3315772.80947  -2567298.10945  22811753.4844                   22811752.7894
 11  8 22 17 38  0.0000000  0  8G24G07G08G13G19G11G23G28
  16330225.90247  12745955.25344  23540580.6564                   23540583.6334
 -12360571.32848  -9615871.13847  20540194.2114                   20540192.8484
 -17572057.03548 -13653073.62546  21573816.3754                   21573816.3634
   7941583.68047   6210975.49444  21850228.2814                   21850228.0864
   2093236.97347   1654276.49245  22081023.1644                   22081020.0634
  -7542981.87547  -5857340.28845  22168096.2664   22168095.3284   19642036.68446
  15315049.80542                  23755147.2504                   23755148.0594
  -3463940.71947  -2682753.62145  22783557.9844                   22783557.6764
 11  8 22 17 38 30.0000000  0  8G24G07G08G13G19G11G23G28
  16146044.78947  12602437.56844  23505532.1414                   23505534.5634
 -12500730.18448  -9725085.84647  20513522.9064                   20513521.6954
 -17753330.56648 -13794325.73146  21539320.8984                   21539321.0634
   7922155.09447   6195836.25845  21846531.6414                   21846531.1524
   2057185.91848   1626184.72045  22074162.6484                   22074159.9264
  -7709895.91447  -5987403.15745  22136332.9454   22136332.3014   19642247.42646
  15315213.81342                  23755188.0084                   23755187.8554
  -3611959.78147  -2798093.14245  22755391.0944                   22755390.2074
 11  8 22 17 39  0.0000000  0  8G24G07G08G13G19G11G23G28
  15961977.49646  12459008.56444  23470505.0004                   23470507.9734
 -12640571.02748  -9834052.75847  20486912.4144                   20486910.7504
 -17934476.79348 -13935478.62646  21504849.9614                   21504850.0984
   7903048.81347   6180948.18344  21842895.5944                   21842895.5634
   2021533.23847   1598403.37445  22067378.7584                   22067375.3794
  -7876425.46547  -6117166.43045  22104644.1094   22104642.8484   19642517.32446
  15315423.95342                  23755239.3524                   23755239.6604
  -3759835.69547  -2913321.09645  22727251.1334                   22727250.6604
 11  8 22 17 39 30.0000000  0  8G24G07G08G13G19G11G23G28
  15778023.62547  12315667.98244  23435499.4694                   23435502.1374
 -12780095.44548  -9942773.11447  20460361.7194                   20460360.1054
 -18115497.21548 -14076533.50445  21470403.1484                   21470402.6724
   7884258.60547   6166306.40544  21839320.3134                   21839319.8554
   1986273.64848   1570928.32746  22060668.5164                   22060665.8794
  -8042571.53147  -6246630.87845  22073027.3444   22073026.6724   19642839.71146
  15315674.88843                  23755300.8834                   23755301.6094
  -3907573.05947  -3028441.11245  22699137.8914                   22699137.6024
 11  8 22 17 40  0.0000000  0  8G24G07G08G13G19G11G23G28
  15594182.51647  12172415.24944  23400516.1804                   23400518.0204
 -12919305.19948 -10051248.26547  20433870.7584                   20433869.7154
 -18296393.57848 -14217491.70445  21435979.7664                   21435978.8954
   7865777.69147   6151905.61544  21835803.2814                   21835802.8634
   1951400.27747   1543754.21846  22054032.5474                   22054030.4534
  -8208335.24648  -6375797.40445  22041483.7734   22041482.7034   19643208.02046
  15315961.67642                  23755371.1884                   23755371.1524
  -4055176.50447  -3143456.75445  22671049.5704                   22671049.2424
 11  8 22 17 40 30.0000000  0  8G24G07G08G13G19G11G23G28
  15410454.22347  12029250.35044  23365553.4774                   23365555.7274
 -13058201.60548 -10159479.24347  20407439.8594                   20407438.3364
 -18477166.93448 -14358354.07746  21401579.6174                   21401578.8164
   7847599.82047   6137740.95644  21832344.1804                   21832344.0704
   1916907.17247   1516876.43745  22047468.6644                   22047466.4774
  -8373716.74247  -6504666.07945  22010012.4454   22010011.6024   19643616.19146
  15316279.40242                  23755449.7424                   23755448.8714
  -4202650.07447  -3258371.21245  22642986.1484                   22642986.0594
 11  8 22 17 41  0.0000000  0  8G24G07G08G13G19G11G23G28
  15226837.65247  11886172.61344  23330612.3134                   23330615.0594
 -13196786.86748 -10267467.77647  20381068.0784                   20381066.4024
 -18657819.04348 -14499121.93845  21367202.9144                   21367201.5314
   7829717.86747   6123806.87744  21828941.6954                   21828940.8444
   1882787.39847   1490289.55845  22040976.1024                   22040973.7234
  -8538717.67248  -6633238.21645  21978614.1484   21978613.2114   19644057.19546
  15316622.86342                  23755533.3364                   23755532.3204
  -4349998.63347  -3373188.23645  22614946.9064                   22614946.6994
 11  8 22 17 41 30.0000000  0  9G17G24G07G08G13G19G11G23G28
  27989487.14856  21834922.10154  24508970.3204                   24508974.3674
  15043332.20347  11743181.42744  23295692.8754                   23295694.4734
 -13335062.85948 -10375215.31947  20354754.9774                   20354753.5984
 -18838351.73848 -14639796.75745  21332849.1414                   21332847.5314
   7812125.39147   6110098.37044  21825593.7034                   21825593.4534
   1849034.82447   1463988.81046  22034553.1804                   22034551.0904
  -8703338.52747  -6761514.21445  21947287.5864   21947286.3134   19644524.61346
  15316986.81342                  23755622.3674                   23755621.4884
  -4497227.03147  -3487911.63145  22586929.9304                   22586929.5904
 11  8 22 17 42  0.0000000  0  9G17G24G07G08G13G19G11G23G28
  27771372.62546  21664962.92944  24467464.6414                   24467468.1174
  14859924.14147  11600266.11344  23260791.5474                   23260793.0474
 -13473044.43748 -10482733.44747  20328498.1414                   20328496.3054
 -19018779.65648 -14780389.93946  21298514.2114                   21298512.8364
   7794802.60947   6096600.02944  21822297.1644                   21822297.0514
   1815629.51647   1437958.64745  22028196.7814                   22028194.1294
  -8867594.34047  -6889505.74645  21916030.6724   21916029.5824   19644998.62946
  15317355.92642                  23755712.5394                   23755712.1844
  -4644353.10547  -3602555.30845  22558932.6954                   22558932.4694
 11  8 22 17 42 30.0000000  0  9G17G24G07G08G13G19G11G23G28
  29128750.33647  22722659.98044  24725764.5164                   24725768.5164
  16252037.70747  12685030.00644  23525701.2734                   23525703.8634
 -12035309.92648  -9362420.85347  20602089.7114                   20602088.1844
 -17623679.71548 -13693299.07546  21563993.0554                   21563991.8594
   9353161.96547   7310905.93244  22118843.1254                   22118842.9884
   3357984.90647   2639793.98245  22321696.8674                   22321694.5824
  -7456061.65647  -5789610.12445  22184635.8984   22184635.3164   21220891.66446
  16545324.27042                  24055595.1564                   24055595.6174
  -3215957.84447  -2489520.01845  22830747.2894                   22830746.9384
 11  8 22 17 43  0.0000000  0  9G17G24G07G08G13G19G11G23G28
  28910770.67647  22552805.84944  24684284.7424                   24684287.9224
  16068826.70347  12542268.30544  23490837.5164                   23490839.8364
 -12172703.99248  -9469481.16147  20575944.6804                   20575942.9534
 -17803898.91848 -13833729.61446  21529698.1954                   21529697.9454
   9336362.34447   7297815.22044  22115646.7194                   22115646.5744
   3325259.07847   2614293.29045  22315469.5314                   22315467.0354
  -7619585.89147  -5917031.60345  22153518.3524   22153518.0434   21221363.92646
  16545692.00442                  24055685.8674                   24055686.3324
  -3362888.84047  -2604011.67245  22802787.3284                   22802786.4414
 11  8 22 17 43 30.0000000  0  9G17G24G07G08G13G19G11G23G28
  28692870.61347  22383013.75144  24642819.3984                   24642822.4494
  15885727.79347  12399593.91544  23455994.9774                   23455996.8954
 -12309792.72748  -9576303.55647  20549857.6024                   20549855.9494
 -17984001.26248 -13974069.11746  21495426.1024                   21495425.3794
   9319828.78547   7284931.84944  22112500.1484                   22112500.2974
   3292877.84847   2589061.10745  22309307.3984                   22309305.0044
  -7782731.16447  -6044157.79945  22122473.1954   22122472.6564   21221840.15646
  16546062.85542                  24055777.3754                   24055777.0704
  -3509714.75447  -2718421.45745  22774847.3284                   22774846.4964
 11  8 22 17 44  0.0000000  0  9G17G24G07G08G13G19G11G23G28
  28475056.50047  22213288.59044  24601370.4454                   24601374.0864
  15702748.17647  12257012.48644  23421174.8984                   23421176.8524
 -12446569.87148  -9682883.16247  20523829.6954                   20523828.0204
 -18163980.46548 -14114312.65946  21461177.1414                   21461176.9804
   9303562.42247   7272256.65744  22109405.2424                   22109404.9414
   3260842.73447   2564098.63245  22303211.8364                   22303208.6454
  -7945490.86347  -6170983.52845  22091501.0474   22091500.3914   21222321.60246
  16546437.78542                  24055867.9774                   24055868.9414
  -3656432.10947  -2832746.65145  22746927.6174                   22746927.3364
 11  8 22 17 44 30.0000000  0  9G17G24G07G08G13G19G11G23G28
  28257334.98447  22043635.64444  24559939.0474                   24559942.7584
  15519895.39847  12114529.89543  23386379.0084                   23386380.9454
 -12583029.20348  -9789215.10847  20497862.2424                   20497860.7274
 -18343830.02747 -14254455.18146  21426952.6484                   21426952.5474
   9287564.85547   7259790.95744  22106360.7974                   22106360.6254
   3229155.24247   2539407.03045  22297181.8204                   22297178.7774
  -8107858.03948  -6297503.40645  22060603.7424   22060603.0234   21222809.74246
  16546817.79543                  24055961.8914                   24055962.0664
  -3803037.71947  -2946984.75845  22719029.8444                   22719028.8794
 11  8 22 17 45  0.0000000  0  9G17G24G07G08G13G19G11G23G28
  28039709.11347  21874057.21844  24518526.2734                   24518529.8674
  15337173.75847  11972149.50243  23351607.9224                   23351610.3954
 -12719167.25848  -9895296.71547  20471955.8984                   20471954.3324
 -18523546.91047 -14394494.31246  21392753.6334                   21392753.3054
   9271833.95747   7247533.03744  22103367.3674                   22103367.5784
   3197813.52747   2514984.86345  22291217.3754                   22291214.4534
  -8269828.73848  -6423714.34945  22029781.2194   22029781.3874   21223302.99246
  16547201.98042                  24056055.4304                   24056056.1484
  -3949531.39147  -3061135.64245  22691153.0784                   22691151.8794
 11  8 22 17 45 30.0000000  0  9G17G24G07G08G13G19G11G23G28
  27822185.48047  21704558.46643  24477132.8754                   24477136.3164
  15154590.90647  11829877.24344  23316864.3754                   23316865.4104
 -12854977.87148 -10001123.18447  20446111.9694                   20446110.4534
 -18703124.20747 -14534424.68046  21358581.6804                   21358580.8134
   9256371.24647   7235484.07344  22100425.1174                   22100425.0664
   3166819.58247   2490833.67245  22285320.1174                   22285317.1294
  -8431396.05148  -6549610.95245  21999036.4224   21999035.8054   21223802.90646
  16547591.22342                  24056150.6414                   24056151.1374
  -4095909.34047  -3175196.36445  22663298.3054                   22663297.6954
 11  8 22 17 46  0.0000000  0  9G17G24G07G08G13G19G11G23G28
  27604768.89146  21535143.08843  24435759.6564                   24435762.6524
  14972152.37147  11687717.41844  23282147.0634                   23282147.8754
 -12990456.88348 -10106691.26147  20420331.1564                   20420329.5784
 -18882556.58647 -14674242.10446  21324436.8524                   21324435.9574
   9241176.28147   7223643.77144  22097533.8204                   22097533.5514
   3136173.42247   2466953.50745  22279488.1564                   22279485.5124
  -8592554.87948  -6675189.24945  21968368.7504   21968368.4224   21224309.65645
  16547985.80142                  24056247.6174                   24056248.0744
  -4242170.04747  -3289165.72345  22635465.4774                   22635464.8134
 11  8 22 17 46 30.0000000  0  9G17G24G07G08G13G19G11G23G28
  27387466.34046  21365816.57443  24394408.7894                   24394410.6914
  14789866.16847  11545676.33843  23247458.8284                   23247460.8834
 -13125597.56648 -10211995.70846  20394614.8754                   20394613.1054
 -19061837.16448 -14813941.24146  21290320.8674                   21290320.0164
   9226251.15247   7212013.72544  22094693.7424                   22094693.6684
   3105876.73847   2443345.65245  22273722.7274                   22273720.4774
  -8753297.99248  -6800443.61245  21937780.6174   21937779.7774   21224825.10245
  16548387.17242                  24056344.9454                   24056345.4344
  -4388310.00047  -3403041.00545  22607656.3834                   22607655.5784
 11  8 22 17 47  0.0000000  0  9G17G24G07G08G13G19G11G23G28
  27170281.70746  21196581.95843  24353079.2734                   24353081.8954
  14607737.18847  11403757.77544  23212800.8524                   23212802.8674
 -13260396.08248 -10317033.52946  20368963.3364                   20368962.0274
 -19240962.40248 -14953519.32646  21256234.2894                   21256233.2624
   9211594.25047   7200592.67644  22091904.5084                   22091904.5984
   3075928.52747   2420009.34445  22268023.6724                   22268022.0904
  -8913620.91848  -6925370.57045  21907271.9304   21907271.1214   21225348.16845
  16548794.48042                  24056444.5474                   24056445.1254
  -4534327.61747  -3516820.96745  22579870.1414                   22579869.3014
 11  8 22 17 47 30.0000000  0  9G17G24G07G08G13G19G11G23G28
  26953222.01646  21027444.74443  24311774.0634                   24311777.7464
  14425773.84847  11261968.27344  23178174.0784                   23178176.0084
 -13394845.49648 -10421799.31646  20343378.5234                   20343377.3284
 -19419924.55548 -15092970.34246  21222179.0234                   21222178.3284
   9197208.07047   7189382.60944  22089166.5784                   22089166.9494
   3046331.33247   2396946.55745  22262391.1884                   22262389.5784
  -9073515.82448  -7049964.01145  21876845.0554   21876844.3054   21225881.76245
  16549209.96942                  24056547.4304                   24056547.1564
  -4680218.96147  -3630502.51545  22552107.8054                   22552107.4024
 11  8 22 17 48  0.0000000  0  9G17G24G07G08G13G19G11G23G28
  26736289.59046  20858406.66544  24270493.0164                   24270496.7584
  14243979.27047  11120310.26944  23143580.1174                   23143581.8834
 -13528943.71548 -10526291.44847  20317860.4534                   20317859.0704
 -19598721.29748 -15232292.45146  21188154.9144                   21188154.6294
   9183089.52047   7178381.01144  22086480.2814                   22086480.7034
   3017082.51247   2374155.21845  22256825.8204                   22256823.4064
  -9232980.04748  -7174221.84945  21846500.1414   21846499.1334   21226422.85246
  16549631.33242                  24056650.4224                   24056650.9884
  -4825984.83247  -3744086.28645  22524369.6954                   22524369.0274
 11  8 22 17 48 30.0000000  0  9G17G24G07G08G13G19G11G23G28
  26519497.55546  20689477.98444  24229238.9844                   24229242.3594
  14062367.48047  10978794.71744  23109019.7344                   23109022.5204
 -13662678.14148 -10630500.11947  20292411.6334                   20292410.4104
 -19777339.75048 -15371475.66446  21154165.0004                   21154164.6644
   9169246.48047   7167594.15744  22083846.2974                   22083845.9654
   2988189.90247   2351641.45745  22251327.4224                   22251325.3284
  -9392000.66447  -7298134.01045  21816239.3054   21816238.6374   21226979.35245
  16550064.75442                  24056757.2664                   24056756.7034
  -4971615.39147  -3857564.63845  22496656.9774                   22496656.4844
 11  8 22 17 49  0.0000000  0  9G17G24G07G08G13G19G11G23G28
  26302849.94146  20520661.79544  24188011.6414                   24188015.4384
  13880943.49647  10837425.48144  23074496.2344                   23074497.9534
 -13796045.22748 -10734422.53547  20267032.7584                   20267031.9344
 -19955776.00848 -15510516.91346  21120209.8444                   21120209.5474
   9155677.82047   7157021.05444  22081264.1024                   22081264.3404
   2959652.81647   2329404.70945  22245897.1254                   22245894.8834
  -9550572.86748  -7421696.76745  21786063.7424   21786062.9144   21227550.69545
  16550509.55942                  24056865.1954                   24056865.7424
  -5117109.52347  -3970936.67445  22468970.2814                   22468969.8164
 11  8 22 17 49 30.0000000  0  9G17G24G07G08G13G19G11G23G28
  27661775.77046  21579565.21544  24446607.2734                   24446609.9224
  15275135.98447  11923809.33044  23339802.1254                   23339804.0664
 -12353618.62148  -9610453.76747  20541517.6564                   20541516.3594
 -18558601.70348 -14421809.66246  21386082.8594                   21386082.9064
  10717800.77047   8374259.62043  22378526.2344                   22378525.6214
   4506889.06647   3535043.31645  22540327.0554                   22540324.0554
  -8133269.32848  -6317304.38945  22055768.0634   22055767.3324   22803553.87145
  17778563.66442                  24356769.3284                   24356769.8524
  -3687043.75447  -2856599.68445  22741102.4614                   22741101.9774
 11  8 22 17 50  0.0000000  0  9G17G24G07G08G13G19G11G23G28
  27445422.45746  21410978.35644  24405435.6644                   24405439.3754
  15094096.20747  11782739.45244  23305351.6024                   23305353.3794
 -12486245.31648  -9713799.26347  20516279.4844                   20516278.1524
 -18736666.20748 -14560561.22246  21352198.2504                   21352198.2074
  10704771.29747   8364106.68644  22376046.9694                   22376047.0004
   4479053.91847   3513353.55445  22535030.2274                   22535027.2704
  -8290938.09048  -6440163.17645  22025764.9924   22025764.0744
                                  22804146.348 5                  24356882.203
  -3832268.55147  -2969761.85345  22713467.5084                   22713466.4064
 11  8 22 17 50 30.0000000  0  9G17G24G07G08G13G19G11G23G28
  27229222.22347  21242510.78544  24364294.4534                   24364297.5864
  14913255.94147  11641825.04944  23270938.7194                   23270940.2154
 -12618496.84848  -9816852.41847  20491112.8364                   20491111.6524
 -18914539.11348 -14699163.48546  21318350.1954                   21318350.1214
  10692009.58247   8354162.38743  22373618.8284                   22373618.9304
   4451568.15247   3491936.03045  22529800.0864                   22529797.2704
  -8448149.05548  -6562665.21645  21995848.7894   21995847.7154
                                  22804747.727 5                  24356995.813
  -3977357.19947  -3082817.91145  22685857.9924                   22685856.8874
 11  8 22 17 51  0.0000000  0  9G17G24G07G08G13G19G11G23G28
  27013182.45346  21074168.32144  24323183.6724                   24323186.3324
  14732624.25446  11501073.15944  23236565.3594                   23236567.5314
 -12750365.11348  -9919606.92747  20466019.2734                   20466018.1134
 -19092212.05948 -14837609.93046  21284540.3834                   21284539.9924
  10679518.02047   8344428.62144  22371241.7424                   22371242.1484
   4424434.85547   3470793.18145  22524636.1644                   22524634.1604
  -8604893.77048  -6684803.95845  21966021.4534   21966019.8284
                                  22805361.027 5                  24357113.164
  -4122305.06647  -3195764.27545  22658275.4454                   22658274.2034
 11  8 22 17 51 30.0000000  0  9G17G24G07G08G13G19G11G23G28
  26797304.37947  20905951.77244  24282103.2114                   24282105.4924
  14552202.54346  11360484.89243  23202231.7894                   23202234.5824
 -12881849.93448 -10022062.64347  20440998.5944                   20440997.5394
 -19269684.15648 -14975899.85246  21250768.4694                   21250767.7114
  10667292.39146   8334902.01643  22368914.8054                   22368915.4774
   4397649.69947   3449921.56945  22519539.1804                   22519536.6724
  -8761171.32448  -6806578.67145  21936282.6644   21936281.6214
                                  22805982.199 6                  24357231.953
  -4267114.48447  -3308602.75845  22630718.8524                   22630717.6884
 11  8 22 17 52  0.0000000  0  9G17G24G07G08G13G19G11G23G28
  26581593.38747  20737865.44344  24241054.5004                   24241056.3554
  14371997.56346  11220065.53144  23167940.5004                   23167942.3634
 -13012946.03948 -10124215.46447  20416052.0474                   20416050.3244
 -19446949.87548 -15114028.97346  21217036.1174                   21217035.3714
  10655333.24247   8325583.15244  22366639.4614                   22366640.0944
   4371213.41847   3429321.82045  22514508.5704                   22514506.0514
  -8916975.82847  -6927984.76545  21906633.8834   21906632.8094   22806612.14546
  17780945.29653                  24357352.6254                   24357351.8914
  -4411782.78147  -3421331.27345  22603189.4224                   22603188.1214
 11  8 22 17 52 30.0000000  0  9G17G24G07G08G13G19G11G23G28
  26366053.80147  20569912.66844  24200039.0394                   24200040.6374
  14192014.82046  11079819.30444  23133690.4844                   23133692.4574
 -13143649.05548 -10226061.98347  20391180.2034                   20391178.6644
 -19624004.12148 -15251993.30946  21183343.3444                   21183342.8134
  10643639.89547   8316471.34444  22364414.3754                   22364414.7624
   4345125.50446   3408993.52645  22509543.6334                   22509542.0904
  -9072302.56647  -7049018.57945  21877075.6334   21877074.9184   22807250.57446
  17781442.36742                  24357474.4924                   24357473.6524
  -4556308.40647  -3533948.63045  22575687.4454                   22575686.3094
 11  8 22 17 53  0.0000000  0  9G17G24G07G08G13G19G11G23G28
  26150687.62147  20402095.04244  24159055.6954                   24159057.7304
  14012257.13346  10939748.45644  23099483.0944                   23099485.5904
 -13273957.53548 -10327601.05747  20366383.1724                   20366381.5824
 -19800844.89548 -15389791.30646  21149692.0394                   21149691.0904
  10632208.89847   8307563.99944  22362239.5784                   22362239.5904
   4319382.80546   3388934.22845  22504645.1484                   22504643.2704
  -9227149.35947  -7169678.40245  21847609.5164   21847608.5744   22807894.43846
  17781943.76242                  24357597.2504                   24357596.9184
  -4700692.78947  -3646455.90545  22548211.5164                   22548210.5594
 11  8 22 17 53 30.0000000  0  9G17G24G07G08G13G19G11G23G28
  25935494.24247  20234412.05844  24118105.9064                   24118108.5274
  13832724.89546  10799853.25344  23065319.6414                   23065322.1254
 -13403872.80148 -10428833.73947  20341660.8134                   20341659.5824
 -19977472.81248 -15527423.41846  21116080.5394                   21116080.0434
  10621034.66447   8298856.67443  22360112.9924                   22360113.3054
   4293980.16046   3369139.90345  22499811.8364                   22499809.4804
  -9381516.54748  -7289964.50245  21818233.8524   21818233.6914   22808538.76646
  17782445.49642                  24357719.5234                   24357720.6214
  -4844939.46147  -3758855.89645  22520762.2814                   22520761.2384
 11  8 22 17 54  0.0000000  0  9G17G24G07G08G13G19G11G23G28
  25720473.91446  20066863.90344  24077188.4694                   24077191.7384
  13653419.63746  10660134.91243  23031199.3364                   23031200.8834
 -13533394.50448 -10529759.74847  20317013.8284                   20317012.7854
 -20153887.02348 -15664889.03246  21082509.9454                   21082509.6524
  10610112.35547   8290345.71944  22358034.7424                   22358034.9614
   4268913.00847   3349607.02545  22495041.5164                   22495039.0664
  -9535403.50047  -7409876.38245  21788950.5474   21788949.9224   22809178.93046
  17782944.03142                  24357841.3914                   24357842.7624
  -4989050.84047  -3871150.45545  22493338.5634                   22493337.9454
 11  8 22 17 54 30.0000000  0  9G17G24G07G08G13G19G11G23G28
  25505624.75846  19899449.16044  24036303.1884                   24036307.0274
  13474340.55947  10520592.88444  22997121.4224                   22997123.3634
 -13662524.41448 -10630380.46547  20292441.2664                   20292439.9574
 -20330089.22348 -15802189.44646  21048979.9534                   21048979.4774
  10599435.00447   8282025.58944  22356002.8444                   22356003.0554
   4244174.37547   3330330.13245  22490334.7734                   22490332.2734
  -9688811.87148  -7529415.36645  21759758.2504   21759757.6334   22809808.07046
  17783434.00042                  24357961.6024                   24357963.2344
  -5133031.83247  -3983343.42445  22465939.9924                   22465938.9964
 11  8 22 17 55  0.0000000  0  9G17G24G07G08G13G19G11G23G28
  25290946.82446  19732167.78844  23995451.3364                   23995454.5314
  13295488.60247  10381227.72744  22963087.1334                   22963089.0944
 -13791262.84048 -10730696.12647  20267943.1644                   20267941.9064
 -20506078.87148 -15939324.22546  21015490.1804                   21015490.0514
  10588997.73447   8273892.49343  22354017.0634                   22354016.9804
   4219759.58647   3311305.57945  22485688.4694                   22485685.9694
  -9841741.11747  -7648580.98945  21730656.5784   21730655.9494   22810421.63746
  17783911.69942                  24358078.8674                   24358080.6724
  -5276885.34847  -4095437.05645  22438565.6174                   22438564.4384
 11  8 22 17 55 30.0000000  0  8G17G24G07G08G13G19G11G28
  25076441.84947  19565021.12644  23954632.6884                   23954635.3874
  13116866.20747  10242041.52343  22929096.3364                   22929098.4494
 -13919608.62548 -10830705.84047  20243519.7194                   20243518.3164
 -20681854.02747 -16076291.89146  20982041.5784                   20982041.0164
  10578796.57847   8265943.45143  22352075.6954                   22352075.8594
   4195665.37147   3292530.82445  22481103.1334                   22481101.6644
  -9994189.76647  -7767372.12345  21701646.5784   21701646.1994
  -5420612.84447  -4207432.50645  22411214.6804                   22411213.5904
 11  8 22 17 56  0.0000000  0  8G17G24G07G08G13G19G11G28
  24862114.62547  19398013.06344  23913847.6564                   23913850.3524
  12938479.65247  10103039.02544  22895150.8134                   22895152.3324
 -14047557.03148 -10930405.91147  20219171.8204                   20219170.3594
 -20857409.64548 -16213088.46346  20948634.2424                   20948633.9804
  10568831.30147   8258178.12643  22350179.3674                   22350179.6644
   4171891.75047   3274005.87045  22476579.2894                   22476577.6914
 -10146152.53547  -7885784.64145  21672728.7974   21672728.3984
  -5564212.50047  -4319328.31745  22383888.6884                   22383887.9024
 11  8 22 17 56 30.0000000  0  8G17G24G07G08G13G19G11G28
  26223405.37147  20458759.23144  24172892.2034                   24172895.6564
  14335769.11747  11191836.03744  23161045.9144                   23161047.3134
 -12599671.22348  -9802183.20647  20494695.3364                   20494694.1844
 -19457306.31648 -15122098.86146  21215065.1414                   21215064.6724
  12134531.00047   9478203.79043  22648122.3134                   22648122.4734
   5723867.82047   4483337.81045  22771910.6724                   22771908.9384
  -8722190.85947  -6776204.08045  21943699.2424   21943699.4064
  -4132248.97747  -3203512.56745  22656382.9144                   22656381.6764
 11  8 22 17 57  0.0000000  0  8G17G24G07G08G13G19G11G28
  26009467.15247  20292054.21744  24132181.0704                   24132183.9064
  14157890.84447  11053229.62144  23127196.8754                   23127198.6604
 -12726792.49248  -9901238.74847  20470505.4774                   20470504.1684
 -19632388.37948 -15258526.43646  21181748.2814                   21181747.7704
  12125056.60947   9470821.02143  22646319.0474                   22646319.8404
   5700754.39147   4465327.30145  22767512.2734                   22767509.9924
  -8873147.76247  -6893832.79545  21914973.5554   21914973.1174
  -4275567.65247  -3315189.45145  22629110.1564                   22629109.1294
 11  8 22 17 57 30.0000000  0  8G17G24G07G08G13G19G11G28
  25795724.98447  20125501.96744  24091507.7194                   24091510.1644
  13980269.79347  10914823.64644  23093396.2974                   23093398.4384
 -12853499.46948  -9999971.46847  20446393.6334                   20446392.4344
 -19807231.75847 -15394768.02946  21148476.7664                   21148476.2304
  12115821.22347   9463624.49043  22644562.0784                   22644562.1604
   5677965.17647   4447569.41045  22763175.5394                   22763173.3134
  -9023600.17247  -7011068.39945  21886343.4534   21886342.7194
  -4418749.04347  -3426759.34245  22601863.6804                   22601862.9024
 11  8 22 17 58  0.0000000  0  9G17G24G07G08G26G13G19G11G28
  25582166.82447  19959093.15844  24050868.7504                   24050870.9414
  13802895.40247  10776609.89944  23059643.2114                   23059645.2854
 -12979803.73848 -10098390.39147  20422358.5944                   20422357.7624
 -19981847.60948 -15530832.31946  21115248.6724                   21115247.5314
  32744213.82056  25537687.75753  24315283.8054                   24315285.5784
  12106808.37147   9456601.37643  22642846.9694                   22642847.0864
   5655483.68446   4430051.30845  22758897.5944                   22758894.8484
  -9173559.48447  -7127919.79245  21857807.0634   21857806.5434
  -4561807.43047  -3538233.40645  22574640.4064                   22574639.7814
 11  8 22 17 58 30.0000000  0  9G17G24G07G08G26G13G19G11G28
  25368778.35947  19792816.55044  24010261.7344                   24010264.0664
  13625754.07847  10638577.74644  23025934.0944                   23025936.1094
 -13105720.32848 -10196507.22547  20398397.5784                   20398396.6884
 -20156249.91448 -15666730.23646  21082060.6564                   21082059.9494
  32543617.20746  25381378.84943  24277111.8594                   24277111.9224
  12097998.19147   9449736.22143  22641170.5314                   22641170.7114
   5633290.22347   4412757.65145  22754674.3594                   22754671.9884
  -9323040.07048  -7244398.15645  21829362.1174   21829361.0314
  -4704760.42247  -3649625.33745  22547437.7114                   22547436.4494
 11  8 22 17 59  0.0000000  0  9G17G24G07G08G26G13G19G11G28
  25155559.15246  19626671.81544  23969687.6884                   23969689.7344
  13448846.30947  10500727.56444  22992269.7034                   22992271.4494
 -13231250.18048 -10294322.70447  20374509.7274                   20374508.8914
 -20330439.12948 -15802462.08846  21048913.4064                   21048913.0514
  32343402.96946  25225367.76343  24239013.1884                   24239013.6524
  12089385.03147   9443024.56444  22639531.8204                   22639532.7304
   5611379.74247   4395684.49345  22750505.0004                   22750502.4844
  -9472042.41047  -7360503.84445  21801007.6804   21801006.8754
  -4847611.91847  -3760938.18645  22520253.5164                   22520252.8324
 11  8 22 17 59 30.0000000  0  9G17G24G07G08G26G13G19G11G28
  24942505.80146  19460656.34144  23929145.0004                   23929147.4304
  13272169.94546  10363057.71844  22958649.6094                   22958651.5944
 -13356396.78548 -10391839.55547  20350695.5864                   20350694.4654
 -20504418.13748 -15938030.13746  21015806.3834                   21015806.1724
  32143568.99646  25069653.07143  24200985.3524                   24200986.9774
  12080960.89847   9436460.19643  22637928.6174                   22637929.2894
   5589744.26247   4378825.61145  22746388.1884                   22746386.2584
  -9620569.71947  -7476239.39045  21772743.8054   21772742.7154
  -4990367.72747  -3872176.46745  22493088.0474                   22493087.1294
 11  8 22 18  0  0.0000000  0  9G17G24G07G08G26G13G19G11G28
  24729625.81646  19294775.96044  23888635.1804                   23888637.8674
  13095733.74247  10225574.99544  22925074.4614                   22925076.5664
 -13481152.69148 -10489051.97647  20326955.0394                   20326953.9804
 -20678179.01647 -16073428.22146  20982740.7034                   20982740.1914
  31944123.48046  24914241.03543  24163032.5164                   24163033.9694
  12072727.55547   9430044.48843  22636361.6954                   22636362.8484
   5568386.15647   4362182.89445  22742323.8054                   22742322.0044
  -9768614.37147  -7591598.83945  21744572.0004   21744571.1994
  -5133023.25847  -3983336.59445  22465941.8674                   22465941.2974
 11  8 22 18  0 30.0000000  0  9G17G24G07G08G26G13G19G11G28
  24516919.76247  19129031.08344  23848158.4454                   23848160.6764
  12919538.93046  10088280.40644  22891545.6484                   22891547.5314
 -13605518.13348 -10585960.12547  20303289.2424                   20303288.3014
 -20851720.77048 -16208655.55546  20949717.2664                   20949716.4304
  31745067.39546  24759132.41943  24125153.2584                   24125155.5204
  12064680.80547   9423774.14343  22634830.5474                   22634831.9384
   5547300.88347   4345752.75245  22738311.3364                   22738309.7854
  -9916175.68747  -7706581.67045  21716491.8834   21716491.1844
  -5275580.88747  -4094420.45045  22438813.8984                   22438813.1024
 11  8 22 18  1  0.0000000  0  9G17G24G07G08G26G13G19G11G28
  24304387.54346  18963421.68644  23807714.4774                   23807717.6804
  12743586.64547   9951174.77544  22858063.2894                   22858064.6024
 -13729493.48448 -10682564.30547  20279697.5234                   20279696.5124
 -21025043.17248 -16343711.97846  20916734.6644                   20916734.2664
  31546401.67646  24604328.01743  24087347.8054                   24087350.0864
  12056815.65647   9417645.33243  22633334.2664                   22633334.6254
   5526484.34047   4329532.00945  22734350.0944                   22734348.3204
 -10063253.52747  -7821187.77345  21688503.8284   21688503.4104
  -5418043.63347  -4205430.35445  22411703.9774                   22411703.6334
 11  8 22 18  1 30.0000000  0  9G17G24G07G08G26G13G19G11G28
  24092028.84846  18797947.48644  23767304.5634                   23767306.4924
  12567877.65647   9814258.70944  22824627.1174                   22824628.3794
 -13853078.87948 -10778864.63547  20256179.9064                   20256178.7384
 -21198145.55948 -16478596.95346  20883794.3984                   20883794.1604
  31348126.68446  24449828.02243  24049617.6414                   24049619.6524
  12049126.65647   9411653.80843  22631870.9384                   22631871.4224
   5505930.97347   4313516.33245  22730439.1804                   22730436.9574
 -10209848.36748  -7935417.50045  21660607.8444   21660607.3754
  -5560414.47747  -4316368.66645  22384611.6174                   22384610.6414
 11  8 22 18  2  0.0000000  0  9G17G24G07G08G26G13G19G11G28
  23879844.26246  18632608.94044  23726926.5474                   23726929.4654
  12392413.90647   9677533.73044  22791237.2664                   22791238.9774
 -13976274.46548 -10874861.21047  20232736.6414                   20232735.3444
 -21371027.26648 -16613309.96846  20850896.0394                   20850896.2384
  31150243.95746  24295633.77243  24011962.1094                   24011964.0514
  12041609.40647   9405796.04443  22630440.8054                   22630441.3554
   5485636.53547   4297702.45045  22726577.3284                   22726574.8834
 -10355959.32048  -8049270.18645  21632803.8754   21632803.2234
  -5702695.79347  -4427237.21845  22357536.3754                   22357535.5234
 11  8 22 18  2 30.0000000  0  9G17G24G07G08G26G13G19G11G28
  23667833.06346  18467405.49644  23686582.1094                   23686585.0704
  12217195.46147   9540999.91244  22757894.5634                   22757896.4384
 -14099081.32848 -10970554.88647  20209367.2664                   20209366.2304
 -21543688.60548 -16747851.26646  20818039.8364                   20818039.6134
  30952753.44946  24141745.12743  23974380.5704                   23974382.3364
  12034257.91447   9400067.56343  22629042.1254                   22629042.7814
   5465595.52747   4282086.03845  22722763.5474                   22722761.5984
 -10501587.41048  -8162746.60545  21605091.9614   21605090.8984
  -5844891.60247  -4538039.12845  22330477.3674                   22330476.1214
 11  8 22 18  3  0.0000000  0  9G17G24G07G08G26G13G19G11G28
  23455992.32046  18302334.88944  23646270.1414                   23646273.3054
  12042220.08247   9404655.50044  22724597.8134                   22724599.1174
 -14221502.83648 -11065948.27647  20186071.3284                   20186070.1844
 -21716132.23048 -16882222.92746  20785224.9454                   20785224.5204
  30755652.49246  23988159.99743  23936873.6804                   23936875.3364
  12027063.86747   9394461.65043  22627672.6884                   22627673.8444
   5445800.25847   4266661.08245  22718995.8594                   22718994.7734
 -10646735.44547  -8275848.97645  21577470.6724   21577469.6334
  -5987007.41847  -4648778.71845  22303433.4844                   22303432.5434
 11  8 22 18  3 30.0000000  0  9G17G24G07G08G26G13G19G11G28
  24819747.10246  19365001.00644  23905783.9384                   23905786.5204
  13442913.19947  10496104.70144  22991140.6804                   22991142.0394
 -12768116.84448  -9933439.72947  20462641.4224                   20462640.1844
 -20312933.28148 -15788821.15746  21052244.2974                   21052244.1484
  32134367.05946  25062483.10543  24199234.1724                   24199235.1604
  13595441.26647  10616573.84743  22926125.8984                   22926125.8554
   7001664.56647   5479022.85345  23015067.3364                   23015065.6954
  -9215980.49247  -7160974.98145  21849734.9774   21849733.2384
  -4553623.16847  -3531855.90345  22576197.9144                   22576196.6994
 11  8 22 18  4  0.0000000  0  9G17G24G07G08G26G13G19G11G28
  24608242.57846  19200192.37544  23865535.9224                   23865538.2384
  13268423.63747  10360138.84444  22957936.4694                   22957937.7544
 -12889772.67248 -10028236.49647  20439491.3284                   20439489.7664
 -20484943.66048 -15922855.22646  21019512.2504                   21019512.0204
  31938043.96246  24909504.07043  24161874.9924                   24161875.5164
  13588543.58247  10611198.87843  22924812.8984                   22924813.6334
   6982342.03947   5463966.25845  23011390.2274                   23011388.6644
  -9360172.76247  -7273332.60845  21822295.7274   21822294.4414
  -4695591.71547  -3642480.73845  22549181.8134                   22549180.7894
 11  8 22 18  4 30.0000000  0  9G17G24G07G08G26G13G19G11G28
  24396904.36346  19035513.32644  23825319.5634                   23825321.2734
  13094176.47346  10224361.85644  22924778.1954                   22924779.7814
 -13011048.39848 -10122737.07847  20416413.1254                   20416411.9534
 -20656738.95748 -16056721.69246  20986820.6884                   20986820.0824
  31742108.78146  24756827.39043  24124590.4384                   24124590.7894
  13581784.51247  10605931.98943  22923526.7114                   22923527.7384
   6963246.86347   5449086.83745  23007756.9454                   23007755.2584
  -9503888.83647  -7385319.15145  21794947.5634   21794946.4924
  -4837492.92247  -3753053.08845  22522179.1804                   22522178.4224
 11  8 22 18  5  0.0000000  0  9G17G24G07G08G26G13G19G11G28
  24185730.65247  18870962.46444  23785134.5394                   23785136.7034
  12920171.23047  10088773.38544  22891666.2504                   22891667.6954
 -13131945.69548 -10216942.77947  20393407.1884                   20393405.7344
 -20828319.81648 -16190421.06846  20954169.7584                   20954169.2114
  31546560.68446  24604452.30343  24087378.4064                   24087379.4454
  13575157.53947  10600767.95143  22922265.8834                   22922266.2154
   6944372.30947   5434379.35145  23004165.9924                   23004163.4184
  -9647130.58647  -7496936.10845  21767689.5634   21767688.5864
  -4979331.14547  -3863576.37245  22495187.7814                   22495187.4694
 11  8 22 18  5 30.0000000  0  9G17G24G07G08G26G13G19G11G28
  23974721.10946  18706539.57244  23744981.2424                   23744983.2074
  12746408.55546   9953373.92544  22858600.5784                   22858602.0594
 -13252465.70348 -10310854.49247  20370472.8984                   20370471.6334
 -20999686.87148 -16323953.84446  20921559.9694                   20921558.8984
  31351399.78546  24452378.86943  24050239.8284                   24050241.8874
  13568657.13347  10595702.63943  22921028.4224                   22921029.4224
   6925713.71547   5419840.14045  23000614.8204                   23000612.6914
  -9789898.81247  -7608184.06945  21740521.9224   21740520.8484
  -5121109.77047  -3974053.21945  22468208.0784                   22468207.5904
 11  8 22 18  6  0.0000000  0  9G17G24G07G08G26G13G19G11G28
  23763875.16047  18542244.07744  23704858.0234                   23704859.8054
  12572889.22347   9818164.12144  22825580.6644                   22825582.4844
 -13372609.05948 -10404472.70547  20347610.4774                   20347609.1334
 -21170839.40248 -16457319.44446  20888990.7034                   20888989.7344
  31156626.50446  24300607.52443  24013176.3134                   24013178.4344
  13562277.89547  10590731.68943  22919815.0314                   22919816.1484
   6907265.48447   5405464.85145  22997104.1414                   22997102.6764
  -9932193.77347  -7719063.26745  21713443.8754   21713443.2274
  -5262832.15247  -4084486.21945  22441239.6804                   22441238.7544
 11  8 22 18  6 30.0000000  0  9G17G24G07G08G26G13G19G11G28
  23553197.23047  18378079.56744  23664767.4694                   23664768.9734
  12399618.70746   9683148.16444  22792608.1484                   22792610.0594
 -13492371.79748 -10497794.33747  20324820.1024                   20324819.2074
 -21341772.64848 -16590514.18046  20856463.4064                   20856462.5634
  30962246.06646  24149142.33743  23976186.7504                   23976188.0944
  13556019.27046  10585854.73543  22918624.0864                   22918625.0664
   6889027.39847   5391253.28445  22993633.4144                   22993632.2304
 -10074010.90647  -7829570.11845  21686456.9304   21686456.3014
  -5404496.59447  -4194874.09245  22414281.7344                   22414280.9534
 11  8 22 18  7  0.0000000  0  9G17G24G07G08G26G13G19G11G28
  23342686.95346  18214045.67944  23624708.9064                   23624710.2774
  12226597.65646   9548326.61044  22759682.8134                   22759684.6954
 -13611754.82848 -10590820.09647  20302102.3444                   20302101.3714
 -21512487.03148 -16723538.36646  20823977.2974                   20823976.5634
  30768258.47346  23997983.19443  23939271.7194                   23939272.8014
  13549875.60546  10581067.33043  22917455.1174                   22917456.0664
   6870994.16047   5377201.33445  22990201.8914                   22990200.8634
 -10215351.10547  -7939705.33545  21659560.5554   21659559.8284
  -5546106.39147  -4305219.39145  22387334.2814                   22387333.8364
 11  8 22 18  7 30.0000000  0  9G17G24G07G08G26G13G19G11G28
  23132348.80147  18050145.91144  23584682.3524                   23584684.3954
  12053831.53946   9413703.68744  22726806.5394                   22726808.6254
 -13730753.88348 -10683546.64647  20279457.5634                   20279456.3524
 -21682976.71548 -16856387.45146  20791534.5234                   20791533.5124
  30574669.12146  23847134.40843  23902432.8284                   23902433.3164
  13543846.52346  10576369.21643  22916307.9384                   22916308.3284
   6853165.78947   5363309.04445  22986809.7034                   22986807.8984
 -10356209.77047  -8049465.32345  21632756.1954   21632755.2304
  -5687659.58647  -4415520.56745  22360397.4844                   22360396.8794
 11  8 22 18  8  0.0000000  0  9G17G24G07G08G26G13G19G11G28
  22922190.61746  17886386.38344  23544690.7194                   23544692.6884
  11881329.25847   9279286.36044  22693981.1484                   22693982.9614
 -13849361.33248 -10775968.05447  20256887.6024                   20256886.4574
 -21853233.39148 -16989055.00546  20759135.5554                   20759134.8244
  30381486.46146  23696602.48343  23865671.8444                   23865671.6954
  13537934.93446  10571762.62343  22915182.5084                   22915184.0514
   6835545.34047   5349578.77245  22983456.7584                   22983455.0164
 -10496579.35247  -8158844.21945  21606044.3054   21606043.3134
  -5829151.17647  -4525773.74245  22333472.8594                   22333471.6804
 11  8 22 18  8 30.0000000  0  9G17G24G07G08G26G13G19G11G28
  22712219.82447  17722772.87644  23504734.2274                   23504736.2734
  11709099.47346   9145081.39644  22661206.4304                   22661208.3364
 -13967570.41048 -10868079.03847  20234393.1094                   20234392.0084
 -22023249.19948 -17121534.84246  20726782.7584                   20726782.2304
  30188718.77746  23546393.85343  23828989.2344                   23828988.5044
  13532143.63347  10567249.82543  22914081.0634                   22914082.1374
   6818135.79747   5336012.83945  22980143.6804                   22980141.9924
 -10636452.22747  -8267836.06245  21579427.7894   21579426.8674
  -5970576.44147  -4635975.23245  22306560.0234                   22306559.4924
 11  8 22 18  9  0.0000000  0  9G17G24G07G08G26G13G19G11G28
  22502439.18447  17559307.50545  23464814.5004                   23464816.4804
  11537146.03946   9011091.76244  22628484.6564                   22628486.5744
 -14085378.59848 -10959877.64847  20211974.7974                   20211973.7974
 -22193021.23048 -17253824.74446  20694476.1564                   20694475.5084
  29996369.28546  23396511.19543  23792386.4774                   23792386.1414
  13526469.78947  10562828.45443  22913001.6254                   22913002.6174
   6800934.85947   5322609.43845  22976870.8594                   22976868.5784
 -10775826.05147  -8376439.03945  21552905.6644   21552904.9924
  -6111935.53947  -4746125.15545  22279660.5314                   22279660.0824
 11  8 22 18  9 30.0000000  0  9G17G24G07G08G26G13G19G11G28
  22292856.33647  17395996.26744  23424931.8674                   23424934.5044
  11365477.61347   8877324.21044  22595817.0004                   22595818.8244
 -14202778.84448 -11051358.37547  20189634.5234                   20189633.2344
 -22362540.47748 -17385917.67446  20662217.7034                   20662217.3444
  29804446.41447  23246960.95343  23755865.1254                   23755865.4574
  13520916.36747  10558500.95043  22911945.4144                   22911945.8754
   6783945.36747   5309370.79345  22973637.9924                   22973635.6024
 -10914693.40647  -8484647.36345  21526480.4614   21526479.1524
  -6253223.61747  -4856219.74845  22252774.2814                   22252773.7034
 11  8 22 18 10  0.0000000  0  9G17G24G07G08G26G13G19G11G28
  22083478.49247  17232844.78944  23385088.7424                   23385091.1884
  11194102.65246   8743785.31944  22563205.8364                   22563207.1454
 -14319764.21147 -11142515.82647  20167373.1094                   20167372.1564
 -22531798.99648 -17517807.42646  20630008.6174                   20630008.2384
  29612958.22747  23097749.41143  23719426.4064                   23719426.8404
  13515486.04747  10554269.42943  22910911.7734                   22910912.7664
   6767170.72347   5296299.60245  22970445.1724                   22970443.6054
 -11053046.98047  -8592455.35245  21500152.6094   21500151.7504
  -6394435.93747  -4966255.30545  22225902.3754                   22225901.9144
 11  8 22 18 10 30.0000000  0  9G17G24G07G08G26G13G19G11G28
  23449737.64147  18297462.39444  23645079.2274                   23645081.4964
  12598452.79347   9838084.19044  22830444.3984                   22830446.2074
 -12860906.27348 -10005743.43247  20444984.4774                   20444983.3054
 -21125366.17248 -16421885.75546  20897644.0784                   20897643.5984
  30997336.35547  24176485.65043  23982864.8134                   23982865.2544
  15085598.52747  11777733.53343  23209694.2664                   23209695.3204
   8326031.16447   6510995.97245  23267087.0944                   23267085.5004
  -9615457.55147  -7472255.77845  21773716.6644   21773715.8014
  -4960145.63747  -3848626.48845  22498838.9924                   22498838.5904
 11  8 22 18 11  0.0000000  0  9G17G24G07G08G26G13G19G11G28
  23240786.03547  18134643.04544  23605316.7274                   23605319.1564
  12427683.93447   9705017.60344  22797948.1804                   22797950.6094
 -12977046.85248 -10096242.60547  20422883.6094                   20422882.5784
 -21294085.86748 -16553355.64746  20865537.6724                   20865537.3524
  30806735.46147  24027965.49343  23946594.2664                   23946595.3914
  15080415.18447  11773694.39543  23208708.1174                   23208709.8094
   8309687.30547   6498260.44045  23263977.2274                   23263975.4924
  -9752768.13347  -7579251.01545  21747586.9614   21747586.3874
  -5101198.69947  -3958537.95645  22471997.2894                   22471996.8164
 11  8 22 18 11 30.0000000  0  9G17G24G07G08G26G13G19G11G28
  23032056.87547  17971997.01745  23565597.0474                   23565599.1294
  12257228.71546   9572195.39744  22765512.0864                   22765512.9694
 -13092756.34848 -10186405.87547  20400864.7664                   20400863.8524
 -21462525.94547 -16684607.65646  20833484.6564                   20833484.1724
  30616588.44947  23879799.03943  23910409.8984                   23910411.5984
  15075357.56647  11769753.24843  23207745.2894                   23207747.3284
   8293561.38347   6485694.74045  23260907.8594                   23260907.0944
  -9889548.35947  -7685832.98545  21721558.8364   21721557.9614
  -5242166.84047  -4068383.24545  22445171.9224                   22445171.3874
 11  8 22 18 12  0.0000000  0  9G17G24G07G08G26G13G19G11G28
  22823555.52347  17809528.52144  23525920.6024                   23525922.0164
  12087093.87946   9439622.86144  22733136.1174                   22733137.4064
 -13208030.07848 -10276229.58547  20378928.9144                   20378928.0634
 -21630680.48848 -16815637.16446  20801486.0234                   20801485.5164
  30426901.25046  23731990.86943  23874313.2274                   23874315.2424
  15070425.95747  11765910.28543  23206807.7274                   23206809.0704
   8277653.72747   6473299.09544  23257880.7814                   23257880.2814
 -10025793.12147  -7791997.72945  21695632.1174   21695631.2934
  -5383047.34447  -4178160.25545  22418363.0474                   22418362.8984
 11  8 22 18 12 30.0000000  0  9G17G24G07G08G26G13G19G11G28
  22615283.33247  17647238.58244  23486287.3364                   23486288.9574
  11917282.31347   9307302.22944  22700821.7344                   22700823.1644
 -13322866.83647 -10365712.79046  20357076.0704                   20357075.2304
 -21798547.07448 -16946442.28546  20769541.7734                   20769541.2504
  30237676.28946  23584542.86943  23838305.6954                   23838306.2734
  15065616.79747  11762162.78243  23205892.4534                   23205893.6484
   8261961.64547   6461071.43944  23254894.9774                   23254893.6414
 -10161501.03948  -7897744.12245  21669807.8134   21669806.7974
  -5523841.54347  -4287870.00745  22391570.8754                   22391570.6374
 11  8 22 18 13  0.0000000  0  9G17G24G07G08G26G13G19G11G28
  22407246.72747  17485132.23944  23446699.3524                   23446700.8244
  11747801.27047   9175239.15444  22668570.7974                   22668572.6844
 -13437260.54747 -10454850.75946  20335307.4844                   20335306.6254
 -21966118.93448 -17077017.76146  20737654.0474                   20737653.3204
  30048920.35547  23437460.38143  23802386.8524                   23802386.9304
  15060931.62147  11758511.77443  23205000.9064                   23205002.8714
   8246486.96547   6449013.19344  23251950.3834                   23251948.3244
 -10296665.61347  -8003067.13345  21644086.8444   21644086.2344
  -5664545.78547  -4397509.67145  22364795.7734                   22364795.4064
 11  8 22 18 13 30.0000000  0  9G17G24G07G08G26G13G19G11G28
  22199446.88747  17323210.35844  23407155.8754                   23407157.8674
  11578652.80546   9043435.20544  22636382.5704                   22636384.6884
 -13551210.60547 -10543643.02747  20313623.9774                   20313622.8404
 -22133393.84448 -17207361.83446  20705822.7664                   20705821.9694
  29860635.41447  23290744.87243  23766557.2584                   23766557.6764
  15056366.89847  11754954.75443  23204132.3834                   23204133.7304
   8231226.03947   6437121.49945  23249046.7034                   23249044.1374
 -10431286.56647  -8107966.55645  21618469.0394   21618468.1454
  -5805161.20747  -4507080.10245  22338037.7584                   22338037.0944
 11  8 22 18 14  0.0000000  0  9G17G24G07G08G26G13G19G11G28
  21991892.14147  17161479.50045  23367659.4064                   23367662.2344
  11409846.37546   8911897.81944  22604259.6254                   22604261.2664
 -13664709.23047 -10632083.51546  20292025.7734                   20292024.7234
 -22300363.21548 -17337467.84546  20674049.0864                   20674048.6054
  29672830.19947  23144403.23343  23730819.7274                   23730820.2424
  15051925.99647  11751494.16643  23203287.5704                   23203288.6134
   8216182.66047   6425399.33645  23246184.1484                   23246181.8984
 -10565355.75448  -8212436.01645  21592956.3284   21592955.6094
  -5945682.06647  -4616576.86745  22311297.3754                   22311297.1914
 11  8 22 18 14 30.0000000  0  9G17G24G07G08G26G13G19G11G28
  21784585.21147  16999941.73945  23328210.6484                   23328212.4774
  11241385.55946   8780629.71944  22572202.3594                   22572204.4654
 -13777753.78147 -10720170.19747  20270514.4304                   20270512.8754
 -22467023.63348 -17467333.10046  20642335.0554                   20642334.4884
  29485507.95347  22998437.88943  23695172.4774                   23695174.3634
  15047606.86346  11748128.39243  23202465.3754                   23202466.7194
   8201355.01247   6413845.27145  23243362.1644                   23243360.6334
 -10698870.70348  -8316473.62145  21567549.6094   21567548.8204
  -6086108.61748  -4726000.13645  22284575.0164                   22284574.5744
 11  8 22 18 15  0.0000000  0  9G17G24G07G08G26G13G19G11G28
  21577523.58247  16838595.12944  23288808.1564                   23288809.8134
  11073269.20347   8649630.02144  22540211.3914                   22540213.0234
 -13890347.73847 -10807905.75747  20249088.5164                   20249087.0744
 -22633376.50048 -17596958.71946  20610679.0634                   20610678.3524
  29298666.91047  22852847.49643  23659618.2034                   23659619.0274
  15043401.76646  11744851.55643  23201665.9924                   23201666.3134
   8186735.84047   6402453.62844  23240580.0394                   23240578.4924
 -10831834.33648  -8420081.62845  21542247.4384   21542246.7854
  -6226445.71547  -4835353.70345  22257869.9304                   22257869.4184
 11  8 22 18 15 30.0000000  0  9G17G24G07G08G26G13G19G11G28
  21370714.17247  16677445.02144  23249453.1174                   23249454.8914
  10905505.30146   8518904.98544  22508287.3054                   22508288.8914
 -14002484.78148 -10895285.28547  20227749.2274                   20227748.2734
 -22799414.56648 -17726339.02746  20579083.2894                   20579082.6134
  29112314.41847  22707637.81743  23624155.6564                   23624157.4454
  15039312.84846  11741665.20643  23200888.1804                   23200888.6954
   8172327.96147   6391226.62045  23237839.1024                   23237837.3054
 -10964239.96148  -8523254.82745  21517051.8284   21517050.4964
  -6366689.76247  -4944634.76345  22231182.4454                   22231181.4844
 11  8 22 18 16  0.0000000  0  9G17G24G07G08G26G13G19G11G28
  21164160.19947  16516493.96844  23210146.9924                   23210148.8914
  10738098.21546   8388457.98045  22476430.1954                   22476432.0434
 -14114161.42248 -10982306.06347  20206498.0864                   20206496.7934
 -22965133.52748 -17855470.68846  20547547.7034                   20547547.1054
  28926454.51647  22562811.89543  23588788.2034                   23588789.9344
  15035339.06646  11738568.52742  23200131.6254                   23200132.3954
   8158129.96547   6380163.18545  23235137.2194                   23235135.2274
 -11096084.71948  -8625990.99045  21491962.6644   21491962.0164
  -6506839.02347  -5053841.99545  22204512.9614                   22204512.0354
 11  8 22 18 16 30.0000000  0  9G17G24G07G08G26G13G19G11G28
  20957862.75047  16355742.79945  23170890.1094                   23170892.1254
  10571050.30147   8258290.85145  22444642.0944                   22444643.4804
 -14225377.54348 -11068967.98247  20185334.4064                   20185333.2774
 -23130531.28948 -17984352.04946  20516073.8134                   20516072.9264
  28741089.16047  22418371.39143  23553514.3204                   23553515.9224
  15031476.64546  11735558.68042  23199396.0234                   23199397.4224
   8144138.38347   6369260.60144  23232474.7424                   23232472.8094
 -11227367.75048  -8728289.44545  21466980.5234   21466979.5044
  -6646895.50847  -5162976.88145  22177861.0084                   22177860.4614
 11  8 22 18 17  0.0000000  0  9G17G24G07G08G26G13G19G11G28
  20751827.15647  16195195.64445  23131682.9224                   23131685.1844
  10404367.69547   8128408.34344  22412923.6024                   22412924.8794
 -14336128.35548 -11155267.32947  20164259.1724                   20164258.1884
 -23295602.21148 -18112978.74546  20484661.8134                   20484660.9184
  28556223.78547  22274320.43743  23518335.8054                   23518337.0634
  15027726.11346  11732636.05542  23198683.6414                   23198684.5664
   8130354.02347   6358519.50144  23229851.1954                   23229849.6524
 -11358084.42248  -8830146.60945  21442105.9534   21442104.8794
  -6786856.50047  -5272037.37345  22151227.1724                   22151226.6484
 11  8 22 18 17 30.0000000  0  9G17G24G07G08G26G13G19G11G28
  22121481.34847  17262458.74045  23392319.3524                   23392321.5824
  11813478.14146   9226416.53244  22681068.1804                   22681069.8284
 -12870989.24248 -10013600.49547  20443065.7504                   20443064.9184
 -21884918.69548 -17013744.82946  20753105.9144                   20753105.3404
  29947286.43847                  23358265.31744  23783046.7664   23783047.1954
  16599503.92246  12957397.81243  23497782.6484                   23497784.3914
   9692194.02746   7575537.65444  23527058.9844                   23527058.3404
  -9912809.77348  -7703958.57946  21717132.6094   21717131.1914
  -5351298.85547  -4153421.01645  22424404.7814                   22424404.1884
 11  8 22 18 18  0.0000000  0  9G17G24G07G08G26G13G19G11G28
  21915975.02347  17102324.02345  23353212.8204                   23353215.0274
  11647534.89147   9097110.12345  22649490.5474                   22649491.9694
 -12980804.86748 -10099171.12047  20422168.7424                   20422167.5004
 -22049327.39848 -17141855.49646  20721820.0394                   20721819.3914
  29763428.82447                  23214999.67043  23748059.2504   23748059.7464
  16595968.27746  12954642.58242  23497109.7034                   23497111.9884
   9678816.42646   7565113.49644  23524513.3834                   23524512.8954
 -10042388.99648  -7804929.42145  21692474.0394   21692473.0824
  -5491070.94947  -4262334.32745  22397807.0784                   22397806.4144
 11  8 22 18 18 30.0000000  0  9G17G24G07G08G26G13G19G11G28
  21710736.36347  16942397.89044  23314157.0084                   23314158.6994
  11481966.18447   8968095.59945  22617983.5784                   22617985.1764
 -13090150.69148 -10184375.68247  20401360.6884                   20401359.9614
 -22213401.57848 -17269705.50246  20690597.5394                   20690597.1174
  29580078.93047                  23072129.65344  23713169.4694   23713169.5984
  16592535.89146  12951967.83943  23496457.1804                   23496458.7504
   9665638.29746   7554844.76844  23522006.2504                   23522005.7704
 -10171397.25048  -7905455.32645  21667924.8364   21667922.8554
  -5630749.43047  -4371174.67745  22371226.8674                   22371225.9774
 11  8 22 18 19  0.0000000  0  9G17G24G07G08G26G13G19G11G28
  21505770.22347  16782684.08144  23275153.1024                   23275154.7424
  11316777.87947   8839377.44144  22586549.6804                   22586550.8634
 -13199022.51648 -10269210.88247  20380643.4064                   20380642.0474
 -22377135.18048 -17397290.12146  20659440.5944                   20659439.8364
  29397242.43847                  22929659.75944  23678376.5944   23678377.3054
  16589206.88746  12949373.61643  23495823.8284                   23495824.7624
   9652660.41847   7544732.06745  23519536.9064                   23519535.8984
 -10299829.84848  -8005532.68345  21643485.0164   21643483.3874
  -5770331.65647  -4479940.03945  22344665.6094                   22344664.5594
 11  8 22 18 19 30.0000000  0  9G17G24G07G08G26G13G19G11G28
  21301077.43047  16623183.28444  23236201.7734                   23236202.0004
  11151971.94947   8710957.26544  22555187.7034                   22555188.9344
 -13307419.56248 -10353676.12947  20360016.0864                   20360014.9224
 -22540526.47348 -17524608.02046  20628348.0634                   20628347.2034
  29214920.32447                  22787590.67244  23643681.2034   23643682.5904
  16585977.56346  12946857.11543  23495209.1484                   23495210.3754
   9639879.18447   7534772.58545  23517105.4304                   23517103.7424
 -10427686.64148  -8105161.35745  21619154.3834   21619153.1524
  -5909819.62947  -4588631.94445  22318121.5234                   22318120.3754
 11  8 22 18 20  0.0000000  0  9G17G24G07G08G26G13G19G11G28
  21096661.29347  16463898.02544  23197302.1024                   23197303.0084
  10987552.55147   8582838.26144  22523899.8524                   22523901.1844
 -13415339.26648 -10437769.41247  20339479.5784                   20339478.5904
 -22703571.11748 -17651655.79346  20597321.4614                   20597320.9574
  29033116.48447                  22645925.34844  23609085.4454   23609086.7344
  16582846.69546  12944417.27042  23494613.7974                   23494615.3054
   9627293.06646   7524965.17344  23514709.9384                   23514708.7854
 -10554964.62148  -8204339.00345  21594934.1024   21594933.0634
  -6049212.22347  -4697249.53745  22291596.3054                   22291595.4024
 11  8 22 18 20 30.0000000  0  9G17G24G07G08G26G13G19G11G28
  20892521.65647  16304828.29244  23158455.6254                   23158456.6524
  10823520.70747   8455021.25145  22492685.3524                   22492686.8954
 -13522782.54748 -10521491.46547  20319033.9534                   20319032.3484
 -22866268.64548 -17778433.08746  20566361.2584                   20566360.6764
  28851831.34847                  22504664.20944  23574587.7584   23574589.1724
  16579809.09846  12942050.10242  23494035.7194                   23494037.0394
   9614897.98046   7515306.56744  23512350.8054                   23512349.1254
 -10681664.73048  -8303066.35545  21570823.8984   21570822.9694
  -6188512.22347  -4805794.97345  22265088.1804                   22265087.1454
 11  8 22 18 21  0.0000000  0  9G17G24G07G08G26G13G19G11G28
  20688660.45347  16145975.46944  23119661.9924                   23119664.1024
  10659879.39847   8327508.57845  22461545.6254                   22461547.0354
 -13629748.04748 -10604841.21147  20298679.0234                   20298677.4964
 -23028616.61348 -17904938.00746  20535467.4064                   20535467.0984
  28671067.16047                  22363809.03044  23540189.1334   23540191.5944
  16576861.87946  12939753.41042  23493474.7974                   23493476.6954
   9602691.30946   7505794.80444  23510027.7814                   23510025.8444
 -10807785.42248  -8401342.19845  21546824.0004   21546823.1374
  -6327720.33647  -4914268.81845  22238597.8914                   22238596.7584
 11  8 22 18 21 30.0000000  0  9G17G24G07G08G26G13G19G11G28
  20485081.77047  15987342.79844  23080922.6094                   23080923.9384
  10496633.87146   8200304.27344  22430481.0004                   22430482.4104
 -13736231.94948 -10687815.69347  20278415.8594                   20278414.3094
 -23190609.62148 -18031166.33146  20504640.9924                   20504640.9494
  28490828.73847                  22223363.54744  23505891.7274   23505892.9694
  16574004.85546  12937526.98643  23492931.6024                   23492933.3444
   9590672.81646   7496429.69644  23507740.9144                   23507738.8524
 -10933323.08648  -8499163.74845  21522934.8054   21522933.9414
  -6466834.67647  -5022669.58945  22212125.3594                   22212124.4844
 11  8 22 18 22  0.0000000  0  9G17G24G07G08G26G13G19G11G28
  20281788.02747  15828932.16045  23042236.7504                   23042238.1484
  10333787.46947   8073410.98545  22399492.7114                   22399493.3324
 -13842232.28948 -10770413.38047  20258244.5474                   20258243.2154
 -23352244.57447 -18157115.64546  20473882.7424                   20473882.9734
  28311119.21147                  22083330.17344  23471693.8834   23471695.5864
  16571235.75046  12935368.99443  23492404.4384                   23492406.4494
   9578840.79746   7487209.88744  23505489.3984                   23505487.2584
 -11058275.54348  -8596529.29945  21499157.0004   21499156.3164
  -6605855.34847  -5130997.36645  22185670.5474                   22185669.6214
 11  8 22 18 22 30.0000000  0  9G17G24G07G08G26G13G19G11G28
  20078782.48847  15670746.10145  23003606.3834                   23003607.1414
  10171344.61347   7946832.14744  22368580.9384                   22368581.6414
 -13947746.48048 -10852632.23947  20238165.9454                   20238164.6644
 -23513517.21148 -18282782.63446  20443193.7894                   20443193.5044
  28131942.12947                  21943711.73444  23437597.4064   23437598.5984
  16568553.10546  12933278.42843  23491894.8754                   23491896.7704
   9567194.18846   7478134.54144  23503273.6954                   23503271.7544
 -11182640.37948  -8693436.95145  21475491.1724   21475490.5044
  -6744781.14547  -5239251.23645  22159234.1884                   22159232.9534
 11  8 22 18 23  0.0000000  0  9G17G24G07G08G26G13G19G11G28
  19876066.87547  15512785.94545  22965031.0084                   22965031.4024
  10009308.02047   7820569.88645  22337746.2664                   22337747.3014
 -14052773.36748 -10934471.38447  20218180.0704                   20218178.8524
 -23674425.37948 -18408165.62546  20412574.2344                   20412573.4654
  27953299.62947                  21804509.81043  23403602.2894   23403603.9774
  16565953.74646  12931252.77343  23491399.7734                   23491401.7234
   9555729.95747   7469201.31244  23501092.0004                   23501090.5824
 -11306416.43448  -8789885.80045  21451936.9694   21451936.6914
  -6883613.24248  -5347432.07845  22132814.8754                   22132813.9964
 11  8 22 18 23 30.0000000  0  9G17G24G07G08G26G13G19G11G28
  19673641.61347  15355052.03645  22926510.1024                   22926511.5514
   9847679.11347   7694625.31045  22306988.7194                   22306990.4924
 -14157313.23448 -11015931.03347  20198286.8444                   20198285.5704
 -23834967.68048 -18533263.52546  20382023.8594                   20382023.4224
  27775192.78946                  21665725.34943  23369709.9144   23369710.9224
  16563433.86746  12929289.03143  23490921.1724                   23490923.2734
   9544444.38747   7460407.30844  23498944.5394                   23498943.0904
 -11429603.77348  -8885875.92545  21428495.6024   21428495.1524
  -7022353.41847  -5455541.28545  22106413.4064                   22106412.2854
 11  8 22 18 24  0.0000000  0  9G17G24G07G08G26G13G19G11G28
  19471508.30547  15197545.64945  22888045.5314                   22888047.2624
   9686460.26647   7569000.27145  22276310.0164                   22276311.9734
 -14261365.04748 -11097010.37947  20178486.2734                   20178485.1684
 -23995141.45348 -18658074.26346  20351544.0164                   20351543.1294
  27597623.47347                  21527359.67444  23335919.8984   23335920.5704
  16560990.19546  12927384.69043  23490456.2664                   23490458.0204
   9533335.05947   7451750.61044  23496830.4454                   23496829.6914
 -11552201.66848  -8981406.74145  21405166.5314   21405165.4024
  -7161002.57047  -5563579.56445  22080029.5004                   22080028.4454
 11  8 22 18 24 30.0000000  0  9G17G24G07G08G26G13G19G11G28
  20845097.43847  16267874.89945  23149430.8594                   23149432.8244
  11101081.64147   8671302.70645  22545503.0704                   22545505.3364
 -12789502.17248  -9950104.25347  20458572.3754                   20458571.4574
 -22579517.09048 -17554990.33946  20620928.3134                   20620927.6604
  28996021.62947                  22617020.57044  23602026.0704   23602027.0044
  18134042.06646  14153139.21243  23789798.5474                   23789801.0664
  11097821.41846   8670830.81544  23794542.2734                   23794541.3204
 -10098783.03148  -7848872.73545  21681742.9384   21681741.6604
  -5724134.80148  -4443942.32245  22353456.6804                   22353455.5314
 11  8 22 18 25  0.0000000  0  9G17G24G07G08G26G13G19G11G28
  20643554.69947  16110828.69345  23111078.3914                   23111080.2464
  10940693.14846   8546324.68945  22514982.0084                   22514984.2274
 -12892572.71948 -10030418.98747  20438958.8134                   20438958.1644
 -22738944.69548 -17679219.64046  20590590.4454                   20590589.3244
  28819535.31647                  22479498.83744  23568441.9224   23568442.5204
  18131744.05146  14151348.36343  23789360.3284                   23789363.3134
  11087057.79747   8662443.55044  23792494.7504                   23792492.9414
 -10220197.07448  -7943481.06545  21658638.4774   21658637.2974
  -5862602.12948  -4551838.92945  22327106.7034                   22327105.9924
 11  8 22 18 25 30.0000000  0  9G17G24G07G08G26G13G19G11G28
  20442307.02047  15954012.38545  23072782.2114                   23072783.5664
  10780721.43047   8421671.45545  22484540.9924                   22484542.3954
 -12995153.46948 -10110352.04847  20419438.3984                   20419437.4694
 -22897997.53948 -17803156.90946  20560323.4144                   20560322.6094
  28643591.25847                  22342399.58944  23534960.7974   23534961.6254
  18129511.91846  14149608.83642  23788935.5634                   23788937.9574
  11076460.97346   8654186.23444  23790478.7114                   23790476.1374
 -10341020.08248  -8037628.86145  21635646.3834   21635645.4844
  -6000982.25848  -4659667.58945  22300774.0634                   22300773.3324
 11  8 22 18 26  0.0000000  0  9G17G24G07G08G26G13G19G11G28
  20241357.10547  15797428.09145  23034542.4384                   23034543.9104
  10621170.40247   8297346.01945  22454179.5784                   22454181.0314
 -13097242.56248 -10189902.01047  20400011.3134                   20400010.3714
 -23056672.28948 -17926799.55546  20530128.8054                   20530127.9614
  28468192.62947                  22205725.34144  23501583.9614   23501584.3014
  18127343.79746  14147919.20342  23788523.5164                   23788525.8484
  11066029.16846   8646057.49544  23788492.3984                   23788491.5514
 -10461250.16448  -8131314.62545  21612767.3914   21612766.2544
  -6139274.62547  -4767427.85545  22274457.5944                   22274456.9924
 11  8 22 18 26 30.0000000  0  9G17G24G07G08G26G13G19G11G28
  20040704.32447  15641075.35544  22996359.6644                   22996360.8794
  10462039.97747   8173348.31145  22423898.3204                   22423899.2464
 -13198841.26648 -10269069.85447  20380677.6804                   20380677.1174
 -23214969.22748 -18050147.80146  20500006.0394                   20500005.0744
  28293338.85947                  22069475.65844  23468310.0164   23468311.3444
  18125234.30546  14146275.25842  23788121.8444                   23788124.9774
  11055757.37146   8638053.45244  23786537.8364                   23786536.1884
 -10580888.63348  -8224539.39546  21590000.9144   21590000.4694
  -6277482.10548  -4875121.99045  22248157.6724                   22248157.1134
 11  8 22 18 27  0.0000000  0  9G17G24G07G08G26G13G19G11G28
  19840348.56647  15484954.04444  22958232.9924                   22958234.1684
  10303331.33247   8049679.26545  22393696.9224                   22393697.8594
 -13299950.12148 -10347855.99647  20361437.3524                   20361436.2974
 -23372887.57048 -18173201.04146  20469954.9384                   20469954.0824
  28119030.32847                  21933650.83843  23435140.0784   23435140.8244
  18123179.19146  14144673.67242  23787730.7814                   23787733.6254
  11045641.25846   8630170.70444  23784612.6414                   23784611.3594
 -10699936.37148  -8317303.86745  21567347.3594   21567346.2504
  -6415607.34448  -4982752.02145  22221873.7114                   22221872.9494
 11  8 22 18 27 30.0000000  0  9G17G24G07G08G26G13G19G11G28
  19640292.96547  15329066.63944  22920163.5784                   22920164.8754
  10145048.48047   7926342.03145  22363576.4534                   22363577.6914
 -13400567.19148 -10426258.93147  20342290.7194                   20342289.5984
 -23530422.98048 -18295955.90046  20439977.0704                   20439976.0864
  27945270.28947                  21798253.44643  23402074.6414   23402075.0594
  18121176.41046  14143112.76943  23787350.1484                   23787352.9184
  11035679.74246   8622408.39743  23782717.0084                   23782715.1994
 -10818391.14148  -8409606.25746  21544805.7114   21544804.9064
  -6553649.89148  -5090317.64145  22195604.8834                   22195604.1334
